[[{"header":{"parameterUnit":"m.s-1","parameterCategory":1,"la1":30.6,"la2":29.2853,"lo1":-89.7004,"lo2":-87.6739,"dy":0.0162,"dx":0.0183,"nx":112,"ny":82,"refTime":"2023-05-06T12:00:00:Z","depth":0,"parameterNumber":2,"parameterNumberName":"U-component_of_WINDS"},"data":[0.0,0.0,0.0,0.0,0.0,0.0,0.0,0.0,0.0,0.0,0.0,0.0,0.0,0.0,0.0,0.0,0.0,0.0,0.0,0.0,0.0,0.0,0.0,0.0,0.0,0.0,0.0,0.0,0.0,0.0,0.0,0.0,0.0,0.0,0.0,0.0,0.0,0.0,0.0,0.0,0.0,0.0,0.0,0.0,0.0,0.0,0.0,0.0,0.0,0.0,0.0,0.0,0.0,0.0,0.0,0.0,0.0,0.0,0.0,0.0,0.0,0.0,0.0,0.0,0.0,0.0,0.0,0.0,0.0,0.0,0.0,0.0,0.0,0.0,0.0,0.0,0.0,0.0,0.0,0.0,0.0,0.0,0.0,0.0,0.0,0.0,0.0,0.0,0.0,0.0,-3.127,-3.1253,-3.1655,-3.1893,-3.1819,-3.1697,-3.106,-2.9695,0.0,0.0,0.0,0.0,0.0,0.0,0.0,0.0,0.0,0.0,0.0,0.0,0.0,0.0,0.0,0.0,0.0,0.0,0.0,0.0,0.0,0.0,0.0,0.0,0.0,0.0,0.0,0.0,0.0,0.0,0.0,0.0,0.0,0.0,0.0,0.0,0.0,0.0,0.0,0.0,0.0,0.0,0.0,0.0,0.0,0.0,0.0,0.0,0.0,0.0,0.0,0.0,0.0,0.0,0.0,0.0,0.0,0.0,0.0,0.0,0.0,0.0,0.0,0.0,0.0,0.0,0.0,0.0,0.0,0.0,0.0,0.0,0.0,0.0,0.0,0.0,0.0,0.0,0.0,0.0,0.0,0.0,0.0,0.0,0.0,0.0,0.0,0.0,0.0,0.0,0.0,0.0,0.0,0.0,0.0,0.0,0.0,0.0,0.0,0.0,0.0,0.0,0.0,0.0,-3.2004,-3.1934,-3.2021,-3.2019,-3.1893,-3.1305,-3.056,-2.966,0.0,0.0,0.0,0.0,0.0,0.0,0.0,0.0,0.0,0.0,0.0,0.0,0.0,0.0,0.0,0.0,0.0,0.0,0.0,0.0,0.0,0.0,0.0,0.0,0.0,0.0,0.0,0.0,0.0,0.0,0.0,0.0,0.0,0.0,0.0,0.0,0.0,0.0,0.0,0.0,0.0,0.0,0.0,0.0,0.0,0.0,0.0,0.0,0.0,0.0,0.0,0.0,0.0,0.0,0.0,0.0,0.0,0.0,0.0,0.0,0.0,0.0,0.0,0.0,0.0,0.0,0.0,0.0,0.0,0.0,0.0,0.0,0.0,0.0,0.0,0.0,0.0,0.0,0.0,0.0,0.0,0.0,0.0,0.0,0.0,0.0,0.0,0.0,0.0,0.0,0.0,0.0,0.0,0.0,0.0,0.0,0.0,0.0,0.0,0.0,0.0,0.0,0.0,-3.2354,-3.2267,-3.2161,-3.2144,-3.2108,-3.202,-3.1289,-3.0542,-2.9794,-2.9376,0.0,0.0,0.0,0.0,0.0,0.0,0.0,0.0,0.0,0.0,0.0,0.0,0.0,0.0,0.0,0.0,0.0,0.0,0.0,0.0,0.0,0.0,0.0,0.0,0.0,0.0,0.0,0.0,0.0,0.0,0.0,0.0,0.0,0.0,0.0,0.0,0.0,0.0,0.0,0.0,0.0,0.0,0.0,0.0,0.0,0.0,0.0,0.0,0.0,0.0,0.0,0.0,0.0,0.0,0.0,0.0,0.0,0.0,0.0,0.0,0.0,0.0,0.0,0.0,0.0,0.0,0.0,0.0,0.0,0.0,0.0,0.0,0.0,0.0,0.0,0.0,0.0,0.0,0.0,0.0,0.0,0.0,0.0,0.0,0.0,0.0,0.0,0.0,0.0,0.0,0.0,0.0,0.0,0.0,0.0,0.0,0.0,0.0,0.0,0.0,0.0,0.0,-3.2406,-3.2354,-3.2267,-3.2249,-3.2197,-3.2126,-3.1411,-3.0731,-3.0221,-2.9487,0.0,0.0,0.0,0.0,0.0,0.0,0.0,0.0,0.0,0.0,0.0,0.0,0.0,0.0,0.0,0.0,0.0,0.0,0.0,0.0,0.0,0.0,0.0,0.0,0.0,0.0,0.0,0.0,0.0,0.0,0.0,0.0,0.0,0.0,0.0,0.0,0.0,0.0,0.0,0.0,0.0,0.0,0.0,0.0,0.0,0.0,0.0,0.0,0.0,0.0,0.0,0.0,0.0,0.0,0.0,0.0,0.0,0.0,0.0,0.0,0.0,0.0,0.0,0.0,0.0,0.0,0.0,0.0,0.0,0.0,0.0,0.0,0.0,0.0,0.0,0.0,0.0,0.0,0.0,0.0,0.0,0.0,0.0,0.0,0.0,0.0,0.0,0.0,0.0,0.0,0.0,0.0,0.0,0.0,0.0,0.0,0.0,0.0,0.0,0.0,0.0,0.0,-3.2406,-3.2406,-3.2388,-3.2388,-3.2336,-3.2197,-3.1515,-3.1078,-3.1025,-3.0256,0.0,0.0,0.0,0.0,0.0,0.0,0.0,0.0,0.0,0.0,0.0,0.0,0.0,0.0,0.0,0.0,0.0,0.0,0.0,0.0,0.0,0.0,0.0,0.0,0.0,0.0,0.0,0.0,0.0,0.0,0.0,0.0,0.0,0.0,0.0,0.0,0.0,0.0,0.0,0.0,0.0,0.0,0.0,0.0,0.0,0.0,0.0,0.0,0.0,0.0,0.0,0.0,0.0,0.0,0.0,0.0,0.0,0.0,0.0,0.0,0.0,0.0,0.0,0.0,0.0,0.0,0.0,0.0,0.0,0.0,0.0,0.0,0.0,0.0,0.0,0.0,0.0,0.0,0.0,0.0,0.0,0.0,0.0,0.0,0.0,0.0,0.0,0.0,0.0,0.0,0.0,0.0,0.0,0.0,0.0,0.0,0.0,0.0,0.0,0.0,0.0,0.0,-3.2406,-3.2406,-3.2406,-3.2406,-3.2371,-3.2336,-3.16,-3.1162,-3.1162,0.0,0.0,0.0,0.0,0.0,0.0,0.0,0.0,0.0,0.0,0.0,0.0,0.0,0.0,0.0,0.0,0.0,0.0,0.0,0.0,0.0,0.0,0.0,0.0,0.0,0.0,0.0,0.0,0.0,0.0,0.0,0.0,0.0,0.0,0.0,0.0,0.0,0.0,0.0,0.0,0.0,0.0,0.0,0.0,0.0,0.0,0.0,0.0,0.0,0.0,0.0,0.0,0.0,0.0,0.0,0.0,0.0,0.0,0.0,0.0,0.0,0.0,0.0,0.0,0.0,0.0,0.0,0.0,0.0,0.0,0.0,0.0,0.0,0.0,0.0,0.0,0.0,0.0,0.0,0.0,0.0,0.0,0.0,0.0,0.0,0.0,0.0,0.0,0.0,0.0,0.0,0.0,0.0,0.0,0.0,0.0,0.0,0.0,0.0,0.0,0.0,0.0,-3.2406,-3.2406,-3.2406,-3.2406,-3.2406,-3.2406,-3.2406,-3.1897,-3.1581,-3.1581,0.0,0.0,0.0,0.0,0.0,0.0,0.0,0.0,0.0,0.0,0.0,0.0,0.0,0.0,0.0,0.0,0.0,0.0,0.0,0.0,0.0,0.0,0.0,0.0,0.0,0.0,0.0,0.0,0.0,0.0,0.0,0.0,0.0,0.0,0.0,0.0,0.0,0.0,0.0,0.0,0.0,0.0,0.0,0.0,0.0,0.0,0.0,0.0,0.0,0.0,0.0,0.0,0.0,0.0,0.0,0.0,0.0,0.0,0.0,0.0,0.0,0.0,0.0,0.0,0.0,0.0,0.0,0.0,0.0,0.0,0.0,0.0,0.0,0.0,0.0,0.0,0.0,0.0,0.0,0.0,0.0,0.0,0.0,0.0,0.0,0.0,0.0,0.0,0.0,0.0,0.0,0.0,0.0,0.0,0.0,0.0,0.0,0.0,0.0,0.0,0.0,0.0,-3.2388,-3.2388,-3.2406,-3.2406,-3.2406,-3.2406,-3.2406,-3.2406,-3.2406,0.0,0.0,0.0,0.0,0.0,0.0,0.0,0.0,0.0,0.0,0.0,0.0,0.0,0.0,0.0,0.0,0.0,0.0,0.0,0.0,0.0,0.0,0.0,0.0,0.0,0.0,0.0,0.0,0.0,0.0,0.0,0.0,0.0,0.0,0.0,0.0,0.0,0.0,0.0,0.0,0.0,0.0,0.0,0.0,0.0,0.0,0.0,0.0,0.0,0.0,0.0,0.0,0.0,0.0,0.0,0.0,0.0,0.0,0.0,0.0,0.0,0.0,0.0,0.0,0.0,0.0,0.0,0.0,0.0,0.0,0.0,0.0,0.0,0.0,0.0,0.0,0.0,0.0,0.0,0.0,0.0,0.0,0.0,0.0,0.0,0.0,0.0,0.0,0.0,0.0,0.0,0.0,0.0,0.0,0.0,0.0,0.0,0.0,0.0,0.0,0.0,0.0,0.0,-3.1493,-3.2037,-3.2406,-3.2406,-3.2406,-3.2406,-3.2406,-3.2406,-3.216,-3.1581,0.0,0.0,0.0,0.0,0.0,0.0,0.0,0.0,0.0,0.0,0.0,0.0,0.0,0.0,0.0,0.0,0.0,0.0,0.0,0.0,0.0,0.0,0.0,0.0,0.0,0.0,0.0,0.0,0.0,0.0,0.0,0.0,0.0,0.0,0.0,0.0,0.0,0.0,0.0,0.0,0.0,0.0,0.0,0.0,0.0,0.0,0.0,0.0,0.0,0.0,0.0,0.0,0.0,0.0,0.0,0.0,0.0,0.0,0.0,0.0,0.0,0.0,0.0,0.0,0.0,0.0,0.0,0.0,0.0,0.0,0.0,0.0,0.0,0.0,0.0,0.0,0.0,0.0,0.0,0.0,0.0,0.0,0.0,0.0,0.0,0.0,0.0,0.0,0.0,0.0,0.0,0.0,0.0,0.0,0.0,0.0,0.0,0.0,0.0,0.0,0.0,0.0,-3.0956,-3.155,-3.1948,-3.2126,-3.2161,-3.2161,-3.2161,-3.2161,-3.183,-3.1062,0.0,0.0,0.0,0.0,0.0,0.0,0.0,0.0,0.0,0.0,0.0,0.0,0.0,0.0,0.0,0.0,0.0,0.0,0.0,0.0,0.0,0.0,0.0,0.0,0.0,0.0,0.0,0.0,0.0,0.0,0.0,0.0,0.0,0.0,0.0,0.0,0.0,0.0,0.0,0.0,0.0,0.0,0.0,0.0,0.0,0.0,0.0,0.0,0.0,0.0,0.0,0.0,0.0,0.0,0.0,0.0,0.0,0.0,0.0,0.0,0.0,0.0,0.0,0.0,0.0,0.0,0.0,0.0,0.0,0.0,0.0,0.0,0.0,0.0,0.0,0.0,0.0,0.0,0.0,0.0,0.0,0.0,0.0,0.0,0.0,0.0,0.0,0.0,0.0,0.0,0.0,0.0,0.0,0.0,0.0,0.0,0.0,0.0,0.0,0.0,0.0,0.0,-3.0439,-3.075,-3.104,-3.1484,-3.1502,-3.1502,-3.1502,-3.1539,-3.1247,-3.0506,0.0,0.0,0.0,0.0,0.0,0.0,0.0,0.0,0.0,0.0,0.0,0.0,0.0,0.0,0.0,0.0,0.0,0.0,0.0,0.0,0.0,0.0,0.0,0.0,0.0,0.0,0.0,0.0,0.0,0.0,0.0,0.0,0.0,0.0,0.0,0.0,0.0,0.0,0.0,0.0,0.0,0.0,0.0,0.0,0.0,0.0,0.0,0.0,0.0,0.0,0.0,0.0,0.0,0.0,0.0,0.0,0.0,0.0,0.0,0.0,-3.5837,-3.5625,0.0,0.0,0.0,0.0,0.0,0.0,0.0,0.0,0.0,0.0,0.0,0.0,0.0,0.0,0.0,0.0,0.0,0.0,0.0,0.0,0.0,0.0,0.0,0.0,0.0,0.0,0.0,0.0,0.0,0.0,0.0,0.0,0.0,0.0,0.0,0.0,0.0,0.0,0.0,0.0,-2.8094,-2.88,-2.9252,-2.9345,-2.9362,-2.9362,-2.9362,-2.9547,-2.9348,-2.8613,-2.88,0.0,0.0,0.0,0.0,0.0,0.0,0.0,0.0,0.0,0.0,0.0,0.0,0.0,0.0,0.0,0.0,0.0,0.0,0.0,0.0,0.0,0.0,0.0,0.0,0.0,0.0,0.0,0.0,0.0,0.0,0.0,0.0,0.0,0.0,0.0,0.0,0.0,0.0,0.0,0.0,0.0,0.0,0.0,0.0,0.0,0.0,0.0,0.0,0.0,0.0,0.0,0.0,0.0,0.0,0.0,0.0,0.0,0.0,0.0,-3.6263,-3.5967,0.0,0.0,0.0,0.0,0.0,0.0,0.0,0.0,0.0,0.0,0.0,0.0,0.0,0.0,0.0,0.0,0.0,0.0,0.0,0.0,0.0,0.0,0.0,0.0,0.0,0.0,0.0,0.0,0.0,0.0,0.0,0.0,0.0,0.0,0.0,0.0,0.0,0.0,0.0,0.0,-2.7228,-2.7789,-2.8154,-2.8384,-2.8403,-2.8403,-2.8403,-2.8536,-2.8312,-2.7575,-2.772,0.0,0.0,0.0,0.0,0.0,0.0,0.0,0.0,0.0,0.0,0.0,0.0,0.0,0.0,0.0,0.0,0.0,0.0,0.0,0.0,0.0,0.0,0.0,0.0,0.0,0.0,0.0,0.0,0.0,0.0,0.0,0.0,0.0,0.0,0.0,0.0,0.0,0.0,0.0,0.0,0.0,0.0,0.0,0.0,0.0,0.0,0.0,0.0,0.0,0.0,0.0,0.0,0.0,-3.715,-3.7241,-3.7241,-3.7316,-3.7378,-3.7362,-3.7635,-3.7157,-3.6088,-3.4575,0.0,0.0,0.0,0.0,0.0,0.0,0.0,0.0,0.0,0.0,0.0,0.0,0.0,0.0,0.0,0.0,0.0,0.0,0.0,0.0,0.0,0.0,-2.9098,-2.9098,-2.9098,-2.9249,-2.9737,0.0,0.0,0.0,0.0,0.0,0.0,0.0,0.0,0.0,0.0,0.0,-2.6852,-2.7082,-2.7258,-2.7528,-2.7552,-2.7552,-2.7552,-2.7591,-2.7368,-2.6763,-2.6883,-2.6341,0.0,0.0,0.0,0.0,0.0,0.0,0.0,0.0,0.0,0.0,0.0,0.0,0.0,0.0,0.0,0.0,0.0,0.0,0.0,0.0,0.0,0.0,0.0,0.0,0.0,0.0,0.0,0.0,0.0,0.0,0.0,0.0,-3.4595,-3.3281,0.0,0.0,0.0,0.0,0.0,0.0,0.0,0.0,0.0,0.0,0.0,0.0,0.0,-3.7148,-3.7914,-3.8637,-3.9008,-3.9023,-4.0067,-4.0562,-4.0578,-4.0999,-4.1185,-4.1185,-4.1222,0.0,-3.6367,-3.4218,0.0,0.0,0.0,0.0,0.0,0.0,0.0,0.0,0.0,0.0,0.0,0.0,0.0,0.0,0.0,0.0,0.0,0.0,0.0,0.0,0.0,0.0,-2.9098,-2.9098,-2.9098,-2.913,-2.9201,-2.9138,-2.8816,-2.7947,-2.7328,-2.6704,0.0,0.0,0.0,0.0,0.0,0.0,-2.612,-2.6175,-2.5996,-2.5457,-2.5413,-2.5413,-2.5413,-2.5628,-2.5715,-2.5618,-2.5901,-2.5967,-2.575,-2.5194,0.0,0.0,0.0,0.0,0.0,0.0,0.0,0.0,0.0,0.0,0.0,0.0,0.0,0.0,0.0,0.0,0.0,0.0,0.0,0.0,0.0,0.0,0.0,0.0,0.0,0.0,0.0,0.0,0.0,-3.2634,-3.2954,-3.1757,-3.2475,-3.2439,0.0,0.0,0.0,0.0,0.0,0.0,0.0,0.0,0.0,-3.5647,-3.6495,-3.7281,-3.7958,-3.86,-3.8958,-3.8973,-3.9503,-3.9741,-3.9741,-3.994,-4.007,-4.007,-4.0173,-3.9311,-3.7796,-3.6495,-3.5594,-3.4898,0.0,0.0,0.0,0.0,-3.2421,-3.23,-3.2379,-3.2405,-3.2405,-3.2405,0.0,0.0,0.0,0.0,0.0,0.0,0.0,-3.0013,-2.9296,-2.9635,-2.9997,-2.9264,-2.9098,-2.9098,-2.9098,-2.9098,-2.887,-2.8147,-2.7813,-2.7304,-2.6198,-2.6062,0.0,0.0,0.0,-2.6546,-2.6604,-2.6625,-2.634,-2.5629,-2.555,-2.5412,-2.5017,-2.5103,-2.5182,-2.5182,-2.5317,-2.5394,-2.5394,-2.5053,-2.4665,0.0,0.0,0.0,0.0,0.0,0.0,0.0,0.0,0.0,0.0,0.0,0.0,0.0,0.0,0.0,0.0,0.0,0.0,0.0,0.0,0.0,0.0,0.0,0.0,0.0,0.0,0.0,0.0,-3.157,-3.194,-3.0523,-3.1933,-3.2408,0.0,0.0,0.0,0.0,0.0,0.0,-3.3037,-3.4413,-3.5537,-3.6227,-3.7035,-3.7774,-3.8416,-3.8878,-3.9102,-3.9102,-3.9102,-3.9102,-3.9102,-3.9102,-3.9102,-3.9102,-3.9254,-3.9322,-3.9288,-3.8394,-3.7597,-3.6729,-3.5442,-3.4895,-3.488,-3.4885,-3.4794,-3.4692,-3.4721,-3.4721,-3.4721,-3.4721,-3.4692,-3.4632,-3.4446,0.0,0.0,0.0,0.0,-3.1534,-3.0242,-3.0555,-3.0898,-2.954,-2.9183,-2.9097,-2.8923,-2.8869,-2.8735,-2.8426,-2.8363,-2.7968,-2.6751,-2.6988,0.0,-2.6625,-2.7004,-2.7367,-2.7367,-2.7367,-2.7083,-2.6356,-2.6119,-2.5803,-2.5302,-2.5096,-2.5005,-2.5005,-2.5005,-2.5005,-2.5005,-2.5005,-2.4748,-2.4191,0.0,0.0,0.0,0.0,0.0,0.0,0.0,0.0,0.0,0.0,0.0,0.0,0.0,0.0,0.0,0.0,0.0,0.0,0.0,0.0,0.0,0.0,0.0,0.0,0.0,0.0,0.0,0.0,0.0,-3.0309,-3.2331,0.0,0.0,0.0,0.0,-3.44,-3.4529,-3.4646,-3.4766,-3.5945,-3.6962,-3.7777,-3.8876,-3.9789,-4.0449,-4.0491,-4.0505,-4.0505,-4.0505,-4.0505,-4.0505,-4.0505,-4.0505,-4.0505,-4.0505,-4.0505,-4.0393,-3.8631,-3.786,-3.7689,-3.6135,-3.5473,-3.5306,-3.472,-3.4431,-3.4327,-3.446,-3.4534,-3.4534,-3.4534,-3.4431,-3.4204,-3.3502,-3.3715,0.0,0.0,-3.369,-3.3812,-3.2421,-3.1934,-3.1454,-2.9876,-2.9389,-2.913,-2.8472,-2.8247,-2.8331,-2.8925,-2.9051,-2.8814,-2.811,0.0,-2.8031,-2.8,-2.8015,-2.8047,-2.8047,-2.8047,-2.7778,-2.713,-2.6419,-2.5993,-2.5945,-2.5365,-2.5005,-2.5005,-2.5005,-2.5005,-2.5005,-2.5005,-2.497,-2.4938,-2.497,0.0,0.0,0.0,0.0,0.0,0.0,0.0,0.0,0.0,0.0,0.0,0.0,0.0,0.0,0.0,0.0,0.0,0.0,0.0,0.0,0.0,0.0,0.0,0.0,0.0,0.0,0.0,0.0,-3.2182,-3.3474,0.0,-3.274,-3.2995,-3.3368,-3.3725,-3.4646,-3.5251,-3.5265,-3.667,-3.7591,-3.7893,-3.8295,-3.8617,-3.8877,-3.8877,-3.8877,-3.8877,-3.8877,-3.8877,-3.8877,-3.8877,-3.8877,-3.8877,-3.8877,-3.8877,-3.8872,-3.8767,-3.8841,-3.8932,-3.804,-3.8062,-3.8415,-3.7342,-3.7299,-3.7655,-3.6722,-3.6763,-3.7308,-3.7874,-3.8022,-3.7699,-3.6178,-3.5904,-3.5705,-3.3713,-3.3921,-3.4244,-3.2435,-3.1738,-3.1142,-2.9645,-2.8349,-2.7426,-2.7367,-2.6929,-2.6734,-2.7259,-2.7604,-2.7747,-2.7494,-2.7462,-2.7304,-2.6814,-2.7146,-2.7462,-2.7462,-2.7826,-2.7841,-2.7178,-2.7257,-2.6972,-2.6088,-2.5772,-2.546,-2.5037,-2.5005,-2.4926,-2.4751,-2.4731,-2.467,-2.4549,-2.4549,-2.4569,0.0,0.0,0.0,0.0,0.0,0.0,0.0,0.0,0.0,0.0,0.0,0.0,0.0,0.0,0.0,0.0,0.0,0.0,0.0,0.0,0.0,0.0,0.0,0.0,0.0,-3.2715,-3.3821,-3.325,-3.4427,-3.4912,-3.4072,-3.4165,-3.4415,-3.4784,-3.5752,-3.631,-3.631,-3.7305,-3.79,-3.79,-3.79,-3.79,-3.79,-3.79,-3.79,-3.79,-3.79,-3.79,-3.79,-3.79,-3.79,-3.79,-3.79,-3.79,-3.7946,-3.8517,-3.8874,-3.902,-3.9131,-3.9508,-3.992,-3.8808,-3.8778,-3.9151,-3.8014,-3.7811,-3.819,-3.8752,-3.895,-3.8699,-3.7436,-3.702,-3.6685,-3.4917,-3.4976,-3.5157,-3.3288,-3.2206,-3.1211,-2.9754,-2.8032,-2.6678,-2.6604,-2.6174,-2.5884,-2.6155,-2.6442,-2.6632,-2.6632,-2.6632,-2.6582,-2.6485,-2.6882,-2.7296,-2.7532,-2.7653,-2.7576,-2.717,-2.7076,-2.6692,-2.5827,-2.5705,-2.5354,-2.4564,-2.4594,-2.4533,-2.4266,-2.4266,-2.4307,-2.4405,-2.4177,-2.4143,-2.4298,0.0,0.0,0.0,0.0,0.0,0.0,0.0,0.0,0.0,0.0,0.0,0.0,0.0,0.0,0.0,0.0,0.0,0.0,0.0,0.0,0.0,0.0,0.0,-3.1038,-3.3635,-3.4993,-3.3502,-3.5207,-3.6226,-3.5634,-3.6108,-3.6849,-3.7821,-3.79,-3.79,-3.79,-3.79,-3.79,-3.79,-3.79,-3.79,-3.79,-3.79,-3.79,-3.79,-3.79,-3.79,-3.79,-3.79,-3.79,-3.7874,-3.79,-3.79,-3.7874,-3.79,-3.79,-3.8018,-3.9119,-3.9536,-3.9508,-3.881,-3.8531,-3.8433,-3.794,-3.7363,-3.6908,-3.6894,-3.6866,-3.6891,-3.6891,-3.6838,-3.6863,-3.707,-3.694,-3.6479,-3.5132,-3.3422,-3.1702,-3.0148,-2.8451,-2.6999,-2.6283,-2.6012,-2.5873,-2.5733,-2.5627,-2.5618,-2.5678,-2.5701,-2.6022,-2.7134,-2.7311,0.0,-2.8293,-2.7524,-2.7015,-2.7138,-2.5864,-2.5063,-2.5302,-2.5128,-2.46,-2.3638,-2.3764,-2.3785,-2.3573,-2.3573,-2.3873,-2.4513,-2.3894,-2.3592,-2.3652,0.0,0.0,0.0,0.0,0.0,0.0,0.0,0.0,0.0,0.0,0.0,0.0,0.0,0.0,0.0,0.0,0.0,0.0,0.0,0.0,0.0,-3.1912,-3.3938,-3.3762,-3.4995,-3.6031,-3.6264,-3.7024,-3.7441,-3.7284,-3.737,-3.7592,-3.7874,-3.79,-3.79,-3.79,-3.79,-3.79,-3.79,-3.79,-3.79,-3.79,-3.79,-3.79,-3.79,-3.79,-3.79,-3.79,-3.79,-3.7665,-3.7273,-3.7717,-3.7652,-3.7286,-3.773,-3.79,-3.7933,-3.8235,-3.8741,-3.9147,-3.7893,-3.715,-3.6813,-3.6837,-3.6757,-3.6659,-3.6839,-3.6638,-3.6338,-3.6338,-3.6,-3.5559,-3.4979,-3.475,-3.4596,-3.4065,-3.1884,-2.9759,-2.9611,-2.7299,-2.5029,-2.4622,-2.4054,-2.36,-2.355,-2.3253,-2.3612,-2.5458,-2.5369,-2.5091,-2.5265,-2.541,-2.5471,-2.5383,-2.5821,-2.6214,-2.6449,-2.6666,-2.6447,-2.5591,-2.5462,-2.4836,-2.34,-2.337,-2.326,-2.2965,-2.2957,-2.2897,-2.2801,-2.2793,-2.2721,0.0,0.0,0.0,0.0,0.0,0.0,0.0,0.0,0.0,0.0,0.0,0.0,0.0,0.0,0.0,0.0,0.0,0.0,0.0,0.0,0.0,0.0,-3.1785,-3.3848,-3.4682,-3.5781,-3.6709,-3.7276,-3.7459,-3.7611,-3.7703,-3.7703,-3.7762,-3.79,-3.79,-3.8004,-3.8227,-3.824,-3.8357,-3.8606,-3.8619,-3.8501,-3.824,-3.824,-3.8122,-3.79,-3.79,-3.79,-3.79,-3.79,-3.7717,-3.7377,-3.7482,-3.7325,-3.7037,-3.7377,-3.7521,-3.7547,0.0,0.0,0.0,0.0,-3.6998,-3.6524,-3.6648,-3.6527,-3.6333,-3.6266,-3.6006,-3.5691,-3.5186,-3.4815,-3.4358,-3.3599,-3.3416,-3.3354,-3.3237,-3.0869,-2.8578,-2.882,-2.6287,-2.381,-2.3649,-2.3443,-2.3216,-2.2944,-2.2883,0.0,-2.4581,-2.4159,-2.3769,-2.4195,-2.4294,-2.435,-2.447,-2.4626,-2.4669,-2.4602,-2.4756,-2.4608,-2.3966,-2.4097,0.0,0.0,0.0,-2.2612,-2.2328,-2.2618,0.0,0.0,0.0,-2.2137,-2.1934,-2.2104,0.0,0.0,-2.3392,-2.3178,0.0,0.0,0.0,0.0,0.0,0.0,0.0,0.0,0.0,0.0,0.0,0.0,0.0,0.0,0.0,0.0,-3.089,-3.2468,-3.4581,-3.6088,-3.6939,-3.7074,-3.7062,-3.724,-3.7503,-3.7562,-3.7681,-3.8037,-3.805,-3.8259,-3.8789,-3.8815,0.0,0.0,0.0,-3.9351,-3.8815,-3.8815,-3.8566,-3.8096,-3.8031,-3.7991,-3.7991,-3.7926,-3.7861,-3.7782,-3.7312,-3.7024,-3.6907,-3.6972,-3.6998,-3.7063,-3.7665,-3.79,-3.79,-3.79,-3.756,-3.709,-3.7024,0.0,0.0,-3.5574,-3.5299,-3.4999,-3.3914,-3.3496,-3.3273,-3.2672,-3.2502,-3.2515,-3.2581,-3.025,-2.7901,-2.7967,-2.5537,-2.3188,-2.312,-2.3527,-2.3716,-2.312,-2.3458,-2.3702,-2.3301,-2.2649,-2.2536,-2.3634,-2.3684,-2.3841,-2.4583,-2.383,-2.3044,-2.2578,-2.186,0.0,-2.1709,-2.1997,-2.2004,-2.1679,-2.1741,-2.1736,-2.1553,-2.2152,-2.2175,-2.1529,-2.1641,-2.1642,-2.1534,-2.1574,-2.1614,-2.1626,-2.1938,-2.1882,0.0,0.0,0.0,0.0,0.0,0.0,0.0,0.0,0.0,0.0,0.0,0.0,0.0,0.0,0.0,-2.9757,-3.1541,-3.3456,-3.518,-3.5708,-3.6099,-3.6725,-3.6968,-3.7288,-3.7796,-3.7835,-3.8135,-3.8886,-3.8973,-3.9073,-3.9429,-3.9442,-3.9494,-3.9612,-3.9612,-3.9547,-3.9442,-3.9442,-3.9377,-3.9272,-3.8789,0.0,-3.854,-3.8109,-3.7639,-3.7194,-3.7573,-3.7168,-3.6319,-3.6802,-3.6998,-3.7063,-3.7665,-3.79,-3.79,-3.79,-3.7835,-3.7665,-3.7168,-3.6933,-3.6737,-3.6136,-3.5325,-3.445,-3.3796,-3.2934,0.0,-3.1483,-3.1313,-3.1418,-3.185,-2.9645,-2.7415,-2.7874,-2.5537,-2.3079,-2.2564,-2.2576,-2.2507,-2.2008,-2.2078,-2.2242,-2.2276,-2.2738,-2.316,-2.3231,-2.3348,-2.3402,-2.3301,-2.3331,-2.3358,-2.3372,-2.2954,-2.2616,-2.2582,-2.1764,-2.1119,-2.076,-2.0279,-1.9985,-1.9953,-1.9985,-1.994,-1.9794,-2.0274,-2.0523,-2.0489,-2.093,-2.1131,-2.1145,-2.1691,-2.1697,0.0,0.0,0.0,0.0,0.0,0.0,0.0,0.0,0.0,0.0,0.0,-2.5763,-2.6092,0.0,-2.9484,-2.9823,-3.1246,-3.2771,-3.4062,-3.4251,-3.5027,-3.7089,-3.7463,-3.7721,-3.811,-3.8135,-3.8408,-3.8946,-3.902,-3.9184,-3.9553,-3.9615,-3.9757,-4.0055,-4.0068,-3.9925,-3.9615,-3.9615,-3.9485,-3.9165,-3.8041,-3.7855,-3.8462,-3.7386,-3.7081,-3.741,-3.7078,-3.6787,-3.6554,-3.6554,-3.6737,-3.7037,-3.7338,-3.7639,-3.79,-3.79,-3.79,-3.7861,-3.756,-3.7456,-3.7351,-3.675,-3.6175,-3.5482,-3.4345,-3.3404,-3.2542,-3.1653,-3.1209,-3.1052,-3.1339,-2.9626,-2.7723,-2.7205,-2.5263,-2.3191,-2.2079,-2.2101,-2.2154,-2.1701,-2.2133,-2.2476,-2.207,-2.263,-2.3045,-2.2712,-2.2623,-2.2548,-2.2367,-2.244,-2.2371,-2.2081,-2.1619,-2.1336,-2.1252,-2.0722,-2.0465,-2.0583,-2.0075,-1.9712,-1.9646,-1.9579,-1.9548,-1.9548,-1.9741,-2.0013,-2.0355,-2.0593,-2.0839,-2.112,-2.1488,-2.1486,0.0,0.0,0.0,0.0,0.0,0.0,0.0,-2.6135,-2.5926,-2.6392,-2.6947,-2.7379,-2.7477,-2.8754,-2.9809,-2.9906,-3.0748,-3.1818,-3.2933,-3.3094,-3.4223,-3.7313,-3.7455,-3.7431,-3.778,-3.7805,-3.7942,-3.8366,-3.8366,-3.8604,-3.907,-3.931,-3.9689,-4.016,-4.0389,-4.0172,-3.9473,-3.9423,-3.9094,-3.8403,-3.6936,-3.6825,-3.7851,-3.6351,-3.6243,-3.7177,-3.6025,-3.5872,-3.6335,-3.5889,-3.5928,-3.6277,-3.6483,-3.6819,-3.7212,-3.771,-3.79,-3.79,-3.79,-3.7808,-3.7625,-3.7293,-3.7013,-3.6532,-3.5152,-3.4188,-3.3365,-3.2267,-3.1394,-3.0798,-3.0798,-2.9621,-2.8001,-2.6406,-2.4874,-2.3366,-2.1743,-2.1765,-2.2018,-2.1626,-2.231,-2.269,-2.1935,-2.2173,-2.2411,-2.2231,-2.202,-2.1864,-2.1864,-2.1746,-2.1448,-2.0852,-2.0248,-1.979,-1.9559,-1.9584,-1.9787,-2.0142,-1.985,-1.961,-1.9502,-1.9502,-1.9502,-1.9502,-1.9415,-1.9714,-2.0365,-2.0398,-2.0701,-2.1229,-2.135,-2.135,-2.3085,-2.3528,-2.4567,-2.5031,-2.5839,-2.6598,0.0,-2.6756,-2.6434,-2.647,-2.6899,-2.7349,-2.7774,-2.8796,-2.9761,-3.0181,-3.0912,-3.1934,-3.3508,-3.3726,-3.4358,-3.6183,-3.5497,-3.5126,-3.5683,-3.5718,-3.6009,-3.6784,-3.6819,-3.7003,-3.7293,-3.8319,-3.8901,-3.9015,-3.9955,-3.9981,-3.8916,-3.8864,-3.8294,-3.7198,-3.6466,-3.623,-3.6386,-3.5265,-3.4854,-3.4956,-3.4378,-3.4194,-3.424,-3.4179,-3.3949,-3.3713,-3.4644,-3.4831,-3.4801,-3.7081,-3.79,-3.79,-3.79,-3.7413,-3.6956,-3.7579,-3.6974,-3.6031,-3.5947,-3.4829,-3.3456,-3.279,-3.141,-3.0114,-3.0114,-2.8977,-2.7396,-2.5788,-2.458,-2.3366,-2.1743,-2.144,-2.148,-2.1423,-2.1347,-2.1251,-2.1142,-2.0985,-2.116,-2.2067,-2.2184,-2.2161,-2.2161,-2.2044,-2.1908,-2.1852,-2.1102,-2.0125,-1.901,-1.8965,-1.8802,-1.833,-1.8363,-1.8396,-1.8376,-1.8376,-1.8376,-1.8376,-1.8768,-1.9265,-1.9874,-2.0283,-2.0793,-2.1375,-2.1399,-2.1399,-2.5413,-2.5292,-2.5396,-2.6522,-2.7159,-2.7626,-2.8088,-2.8046,-2.8177,-2.9178,-2.9493,-2.9681,-2.988,-3.0494,-3.1065,-3.1262,-3.1788,-3.2388,-3.3061,-3.3148,-3.3436,-3.4056,-3.3732,-3.4109,-3.5691,-3.5875,-3.601,-3.6337,-3.6125,-3.6005,-3.6089,-3.6338,-3.6486,-3.6486,-3.7224,-3.738,-3.6896,-3.7151,-3.7037,-3.6541,-3.5347,-3.515,-3.5847,-3.4194,-3.3486,-3.3565,-3.3805,-3.3441,-3.2762,-3.2959,-3.292,-3.2768,-3.2929,-3.3217,-3.3803,-3.5824,-3.6546,-3.6546,-3.6546,-3.6345,-3.6096,-3.6439,-3.6182,-3.5647,-3.5374,-3.4539,-3.3481,-3.2327,-3.1217,-3.0201,-2.9646,-2.9011,-2.7912,-2.5509,-2.4631,-2.3677,-2.1224,-2.0698,-2.0698,-2.0698,-2.0884,-2.0976,-2.0687,-2.0859,-2.1065,-2.1242,-2.1275,-2.1348,-2.1592,-2.1492,-2.1125,-2.034,-1.9461,-1.8804,-1.8427,-1.8278,-1.8337,-1.8618,-1.8227,-1.7955,-1.7915,-1.7659,-1.7503,-1.7503,-1.7665,-1.8089,-1.8812,-1.9091,-1.9588,-2.0237,-2.0416,-2.0485,-2.5821,-2.6028,-2.6145,-2.7835,-2.8549,-2.9005,-2.9474,-2.9578,-2.9912,-3.1156,-3.1474,-3.1557,-3.1557,-3.193,-3.2173,-3.2173,-3.2452,-3.2669,-3.2669,-3.2669,-3.2669,-3.2669,-3.2669,-3.3378,-3.5057,-3.5212,-3.5212,-3.5212,-3.4808,-3.4529,-3.4529,-3.4419,-3.4357,-3.4357,-3.4973,-3.5157,-3.485,-3.5296,-3.5393,-3.5011,-3.3999,-3.3989,-3.4782,-3.3078,-3.223,-3.2243,-3.2812,-3.249,-3.1606,-3.1883,-3.1836,-3.1569,-3.1343,-3.1642,-3.2333,-3.3764,-3.4752,-3.5367,-3.5367,-3.5319,-3.5319,-3.5523,-3.5463,-3.5258,-3.501,-3.4397,-3.3493,-3.2123,-3.1046,-3.0141,-2.9099,-2.8858,-2.8079,-2.5126,-2.4556,-2.3866,-2.0858,-2.0169,-2.0144,-2.0144,-2.0398,-2.0575,-2.0373,-2.0526,-2.0602,-2.0399,-2.0246,-2.0384,-2.097,-2.0957,-2.0437,-1.9237,-1.8406,-1.7926,-1.7974,-1.766,-1.7751,-1.8424,-1.7942,-1.7618,-1.7557,-1.7235,-1.7068,-1.7068,-1.6955,-1.7295,-1.8026,-1.8116,-1.8552,-1.9338,-1.9535,-1.9673,-2.2633,-2.4159,-2.5823,-2.7807,-2.9456,-3.0772,-3.1239,-3.1343,-3.1363,-3.136,-3.1723,-3.1967,-3.1967,-3.2339,-3.2659,-3.2659,-3.2669,-3.2669,-3.2669,-3.2669,-3.2669,-3.2669,-3.2669,-3.2727,-3.2784,-3.2784,-3.2784,-3.2784,-3.2348,-3.2089,-3.2089,-3.276,-3.3123,-3.3123,-3.4211,-3.4275,-3.3198,-3.3638,-3.3288,-3.211,-3.2556,-3.2763,-3.2789,-3.1875,-3.121,-3.0796,-3.0841,-3.0877,-3.0824,-3.091,-3.0355,-2.9561,-3.0041,-2.9954,-2.9635,-3.0695,-3.2617,-3.4739,-3.4739,-3.4617,-3.4581,-3.5367,-3.5078,-3.4581,-3.5355,-3.4738,-3.3612,-3.2541,-3.107,-2.9499,-2.8493,-2.8219,-2.746,-2.446,-2.423,-2.3866,-2.0858,-2.0105,-2.0016,-2.0016,-1.9694,-1.9605,-2.0109,-1.9563,-1.9233,-1.9755,-1.9365,-1.9422,-2.0485,-2.061,-2.03,-1.9484,-1.8847,-1.8236,-1.7654,-1.7136,-1.685,-1.6863,-1.7094,-1.722,-1.722,-1.7199,-1.7199,-1.7199,-1.7068,-1.7312,-1.7908,-1.7784,-1.8226,-1.9215,-1.9203,-1.9434,-2.4138,-2.562,-2.7242,-2.9491,-3.0286,-3.0744,-3.1601,-3.1639,-3.1676,-3.2153,-3.1781,-3.136,-3.136,-3.1485,-3.1589,-3.1589,-3.2193,-3.2669,-3.2669,-3.2669,-3.2669,-3.2669,-3.2669,-3.2669,-3.2669,-3.2669,-3.2669,-3.2669,-3.2246,-3.1988,-3.1988,-3.169,-3.1529,-3.1529,-3.1881,-3.2041,-3.1993,-3.2393,-3.257,-3.2442,-3.2597,-3.2514,-3.2194,-3.165,-3.1122,-3.0657,-3.0401,-3.0297,-3.0255,-2.9949,-2.9665,-2.9314,-2.8845,-2.8733,-2.8938,-2.9234,-3.0352,-3.1728,-3.2425,-3.2851,-3.3101,-3.34,-3.3572,-3.3706,-3.3991,-3.3805,-3.3251,-3.2265,-3.1038,-2.9778,-2.88,-2.8045,-2.7062,-2.515,-2.414,-2.3095,-2.1048,-1.994,-1.9317,-1.9225,-1.9105,-1.9059,-1.9239,-1.9051,-1.8952,-1.9227,-1.9413,-1.963,-1.9914,-1.9711,-1.923,-1.8419,-1.767,-1.7092,-1.6694,-1.6622,-1.6591,-1.6549,-1.6421,-1.6327,-1.6327,-1.6052,-1.5998,-1.6284,-1.6241,-1.6249,-1.6355,-1.6505,-1.6715,-1.7015,-1.7519,-1.7815,-2.5548,-2.6923,-2.8209,-3.0413,-3.0802,-3.0923,-3.1886,-3.1989,-3.2014,-3.255,-3.1805,-3.105,-3.1207,-3.0758,-3.0527,-3.0853,-3.1354,-3.1892,-3.227,-3.2342,-3.241,-3.2696,-3.2669,-3.2669,-3.2669,-3.2669,-3.2669,-3.2669,-3.2246,-3.1988,-3.1988,-3.134,-3.0936,-3.0936,-3.0936,-3.1071,-3.1381,-3.1816,-3.2215,-3.2669,-3.2669,-3.2514,-3.2215,-3.1816,-3.136,-3.0905,-3.0439,-3.0149,-2.9973,-2.9673,-2.9456,-2.9249,-2.8649,-2.8493,-2.8618,-2.8618,-2.9099,-2.9954,-3.0995,-3.1669,-3.2117,-3.2117,-3.2482,-3.2958,-3.2958,-3.3119,-3.3074,-3.2101,-3.1157,-3.0227,-2.901,-2.8103,-2.7111,-2.5561,-2.4258,-2.2961,-2.1467,-2.0091,-1.9137,-1.9029,-1.8821,-1.8723,-1.8912,-1.9017,-1.9039,-1.8943,-1.9265,-1.9474,-1.9408,-1.9152,-1.8672,-1.7751,-1.7135,-1.6606,-1.6064,-1.6144,-1.6113,-1.5914,-1.5754,-1.5572,-1.5412,-1.511,-1.5076,-1.5323,-1.5344,-1.5259,-1.5055,-1.5233,-1.5312,-1.5314,-1.5992,-1.6458,-2.6725,-2.7815,-2.8694,-3.061,-3.1097,-3.1321,-3.2089,-3.2248,-3.2295,-3.2519,-3.1626,-3.0977,-3.1397,-3.0242,-2.9589,-3.048,-3.0374,-3.0535,-3.1596,-3.173,-3.2009,-3.2623,-3.2669,-3.2669,-3.2669,-3.2669,-3.2669,-3.2669,-3.2266,-3.2019,-3.2019,-3.165,-3.1412,-3.1412,-3.1391,-3.1391,-3.1412,-3.1857,-3.2246,-3.2669,-3.2669,-3.2669,-3.2659,-3.2194,-3.1795,-3.135,-3.0884,-3.0419,-2.9994,-2.9994,-2.9735,-2.9332,-2.9311,-2.9021,-2.8618,-2.8618,-2.8887,-2.9383,-3.0387,-3.1084,-3.1578,-3.1578,-3.1924,-3.2359,-3.2359,-3.2745,-3.3025,-3.2062,-3.1408,-3.0617,-2.9152,-2.8394,-2.7541,-2.5766,-2.4596,-2.3545,-2.2182,-2.0612,-1.9446,-1.9446,-1.8928,-1.8608,-1.909,-1.9396,-1.9396,-1.8908,-1.8895,-1.8963,-1.8987,-1.8987,-1.859,-1.7495,-1.7278,-1.68,-1.5776,-1.5715,-1.5511,-1.5037,-1.5111,-1.4959,-1.4506,-1.4457,-1.4457,-1.4462,-1.4455,-1.4324,-1.4066,-1.4066,-1.409,-1.4154,-1.4676,-1.5401,-2.7712,-2.8839,-2.9895,-3.0958,-3.1118,-3.1148,-3.1767,-3.173,-3.1401,-3.0751,-2.9683,-2.871,-2.8223,-2.8501,-2.8947,-2.9589,-3.0967,-3.2083,-3.2379,-3.2431,-3.2514,-3.2706,-3.2669,-3.2669,-3.2669,-3.2669,-3.2669,-3.2669,-3.2566,-3.2494,-3.2494,-3.206,-3.1868,-3.1868,-3.1557,-3.1536,-3.1868,-3.2323,-3.2556,-3.2669,-3.2669,-3.2669,-3.2659,-3.2194,-3.1795,-3.135,-3.0884,-3.0419,-2.9994,-2.9994,-2.9922,-2.9787,-2.9435,-2.9021,-2.8618,-2.8618,-2.869,-2.8856,-2.9464,-3.0252,-3.0991,-3.0991,-3.1351,-3.1823,-3.1823,-3.1924,-3.1982,-3.1739,-3.1003,-3.0252,-2.9829,-2.8845,-2.779,-2.7338,-2.5505,-2.3781,-2.3326,-2.1686,-2.0263,-2.0165,-1.9681,-1.9187,-1.8807,-1.888,-1.9006,-1.8958,-1.8636,-1.8554,-1.8939,-1.8987,-1.859,-1.7495,-1.7363,-1.6908,-1.5866,-1.577,-1.5586,-1.5172,-1.4862,-1.4529,-1.4217,-1.386,-1.3751,-1.3888,-1.39,-1.3767,-1.3499,-1.3499,-1.3403,-1.3244,-1.3784,-1.4347,-2.8848,-2.9805,-3.0624,-3.1043,-3.1005,-3.0848,-3.0771,-3.0575,-3.0197,-2.9212,-2.8064,-2.7183,-2.6967,-2.74,-2.8079,-2.8743,-3.0359,-3.1696,-3.2201,-3.2284,-3.2384,-3.2685,-3.2669,-3.2669,-3.2669,-3.2669,-3.2669,-3.2669,-3.2669,-3.2669,-3.2669,-3.2432,-3.2287,-3.2287,-3.2106,-3.2085,-3.2287,-3.2545,-3.2669,-3.2669,-3.2669,-3.2669,-3.2669,-3.2401,-3.2095,-3.164,-3.1184,-3.0729,-3.0284,-3.0077,-2.9994,-2.9973,-2.9704,-2.9321,-2.8887,-2.869,-2.8618,-2.8649,-2.8907,-2.9495,-3.017,-3.0369,-3.0795,-3.1259,-3.1259,-3.1414,-3.1618,-3.1618,-3.1033,-3.04,-3.0144,-2.9168,-2.8209,-2.7944,-2.6017,-2.4241,-2.4145,-2.2397,-2.0758,-2.0386,-1.9814,-1.9214,-1.8728,-1.8686,-1.8706,-1.8629,-1.8565,-1.865,-1.8951,-1.8782,-1.8422,-1.782,-1.7458,-1.6919,-1.6086,-1.5812,-1.5455,-1.4931,-1.4526,-1.4129,-1.3686,-1.3203,-1.3016,-1.3143,-1.3124,-1.2977,-1.2701,-1.2701,-1.2555,-1.2311,-1.2811,-1.3412,-2.9971,-3.0586,-3.0889,-3.0889,-3.0889,-3.0605,-2.9549,-2.9352,-2.8989,-2.7794,-2.6759,-2.6119,-2.6451,-2.6656,-2.716,-2.8181,-2.9329,-3.0537,-3.1657,-3.1845,-3.2038,-3.2633,-3.2669,-3.2669,-3.2669,-3.2669,-3.2669,-3.2669,-3.2669,-3.2669,-3.2669,-3.2669,-3.2669,-3.2669,-3.2669,-3.2669,-3.2669,-3.2669,-3.2669,-3.2669,-3.2669,-3.2669,-3.2669,-3.2669,-3.2421,-3.1957,-3.1567,-3.1112,-3.0646,-3.018,-2.9994,-2.9994,-2.9994,-2.9715,-2.9249,-2.8783,-2.8618,-2.8607,-2.8545,-2.8866,-2.9384,-2.9849,-3.0287,-3.0692,-3.0692,-3.1002,-3.1373,-3.1373,-3.107,-3.0647,-3.0186,-2.9434,-2.8647,-2.8137,-2.634,-2.4778,-2.471,-2.2878,-2.1055,-2.0329,-1.9692,-1.9171,-1.8845,-1.8702,-1.8519,-1.8262,-1.8509,-1.877,-1.8869,-1.8512,-1.8226,-1.8154,-1.7474,-1.6832,-1.6291,-1.574,-1.5192,-1.4608,-1.4305,-1.3851,-1.3221,-1.2714,-1.2417,-1.2344,-1.2293,-1.2131,-1.1847,-1.1847,-1.173,-1.1515,-1.1918,-1.2647,-3.0605,-3.083,-3.0889,-3.0889,-3.0889,-3.0547,-2.9274,-2.8971,-2.8359,-2.6084,-2.5391,-2.5012,-2.4458,-2.5412,-2.6814,-2.8336,-2.9849,-3.123,-3.2344,-3.2545,-3.2551,-3.2716,-3.2669,-3.2669,-3.2669,-3.2669,-3.2669,-3.2669,-3.2669,-3.2669,-3.2669,-3.2669,-3.2669,-3.2669,-3.2669,-3.2669,-3.2669,-3.2669,-3.2669,-3.2669,-3.2669,-3.2669,-3.2669,-3.2669,-3.2421,-3.1957,-3.1567,-3.1112,-3.0646,-3.018,-2.9994,-2.9994,-2.9994,-2.9715,-2.9249,-2.8783,-2.8618,-2.8556,-2.8173,-2.8597,-2.9384,-2.9849,-3.0047,-3.0151,-3.0151,-3.0193,-3.0308,-3.0308,-3.0245,-3.0109,-3.0036,-2.9629,-2.9062,-2.8583,-2.6801,-2.5072,-2.4703,-2.3003,-2.1259,-2.0304,-2.0144,-1.998,-1.9372,-1.8902,-1.8646,-1.8747,-1.8008,-1.763,-1.819,-1.8436,-1.8372,-1.792,-1.7161,-1.6477,-1.5935,-1.5453,-1.5119,-1.5016,-1.4641,-1.4199,-1.3692,-1.3023,-1.2478,-1.2088,-1.1803,-1.1634,-1.1567,-1.1567,-1.1549,-1.1504,-1.158,-1.2097,-3.083,-3.0889,-3.0889,-3.0889,-3.0889,-3.0371,-2.8379,-2.793,-2.7197,-2.46,-2.4022,-2.389,-2.3519,-2.4756,-2.6091,-2.6871,-2.9022,-3.0826,-3.1377,-3.2169,-3.2669,-3.2669,-3.2669,-3.2669,-3.2669,-3.2669,-3.2669,-3.2669,-3.2669,-3.2669,-3.2669,-3.2669,-3.2669,-3.2669,-3.2669,-3.2669,-3.2669,-3.2669,-3.2669,-3.2669,-3.2669,-3.2669,-3.2669,-3.2669,-3.2556,-3.2308,-3.1681,-3.1247,-3.0998,-3.0284,-2.9994,-2.9994,-2.9994,-2.986,-2.958,-2.8866,-2.8618,-2.8545,-2.803,-2.8214,-2.87,-2.9404,-2.9798,-2.9994,-2.9994,-2.9994,-2.9994,-2.9994,-2.9994,-2.9994,-2.9994,-2.9641,-2.9168,-2.8697,-2.6811,-2.4869,-2.4117,-2.2918,-2.1744,-2.1009,-2.069,-2.0209,-1.9242,-1.8764,-1.8356,-1.7968,-1.7688,-1.7637,-1.7957,-1.8084,-1.8101,-1.7954,-1.7271,-1.6616,-1.6105,-1.5606,-1.5128,-1.4765,-1.4417,-1.408,-1.3751,-1.3142,-1.2694,-1.248,-1.2084,-1.1853,-1.1853,-1.1624,-1.1624,-1.1853,-1.1853,-1.2367,-3.0947,-3.0947,-3.0889,-3.0889,-3.0889,-3.0215,-2.7607,-2.7012,-2.6279,-2.3627,-2.3091,-2.3091,-2.3091,-2.4234,-2.5201,-2.5473,-2.7794,-2.9746,-3.023,-3.147,-3.2452,-3.2649,-3.2669,-3.2669,-3.2669,-3.2669,-3.2669,-3.2669,-3.2669,-3.2669,-3.2669,-3.2669,-3.2669,-3.2669,-3.2669,-3.2669,-3.2669,-3.2669,-3.2669,-3.2669,-3.2669,-3.2669,-3.2669,-3.2669,-3.2669,-3.2628,-3.1774,-3.1381,-3.1309,-3.0377,-2.9994,-2.9994,-2.9994,-2.9994,-2.988,-2.8959,-2.8618,-2.8535,-2.7976,-2.7841,-2.8038,-2.8773,-2.9384,-2.986,-2.9963,-2.9994,-2.9994,-2.9994,-2.9994,-2.9994,-2.9994,-2.9725,-2.9259,-2.8504,-2.662,-2.4738,-2.3595,-2.2739,-2.2045,-2.161,-2.1019,-2.0289,-1.9339,-1.8835,-1.8335,-1.7615,-1.7688,-1.7846,-1.7901,-1.7712,-1.7645,-1.7904,-1.7317,-1.674,-1.6375,-1.578,-1.5171,-1.4582,-1.426,-1.3994,-1.3815,-1.3336,-1.3053,-1.3032,-1.2574,-1.2323,-1.2323,-1.1925,-1.1936,-1.2323,-1.2323,-1.2802,-3.1218,-3.1112,-3.0889,-3.0889,-3.0889,-3.0215,-2.7607,-2.7012,-2.6279,-2.3627,-2.3091,-2.3091,-2.3091,-2.3555,-2.4307,-2.5327,-2.6426,-2.7863,-3.0003,-3.0806,-3.1517,-3.2576,-3.2669,-3.2669,-3.2669,-3.2669,-3.2669,-3.2669,-3.2669,-3.2669,-3.2669,-3.2669,-3.2669,-3.2669,-3.2669,-3.2669,-3.2669,-3.2669,-3.2669,-3.2669,-3.2669,-3.2669,-3.2669,-3.2669,-3.2669,-3.2628,-3.1774,-3.1381,-3.1309,-3.0377,-2.9994,-2.9994,-2.9994,-2.9994,-2.988,-2.8959,-2.8618,-2.8493,-2.7624,-2.7583,-2.7886,-2.8028,-2.8649,-2.9446,-2.987,-2.9994,-2.9994,-2.9994,-2.9994,-2.9994,-2.9994,-2.9963,-2.9508,-2.7838,-2.6399,-2.503,-2.3445,-2.2408,-2.1668,-2.1369,-2.0917,-2.056,-2.044,-1.9727,-1.913,-1.916,-1.8248,-1.7658,-1.7962,-1.7444,-1.7134,-1.7351,-1.6874,-1.6529,-1.6486,-1.5654,-1.5107,-1.5039,-1.4604,-1.4307,-1.4168,-1.3815,-1.3575,-1.3454,-1.2979,-1.2731,-1.2731,-1.2583,-1.2583,-1.2731,-1.2731,-1.3022,-3.1001,-3.1112,-3.0889,-3.0889,-3.0293,-2.9228,-2.7422,-2.6406,-2.5332,-2.3471,-2.3091,-2.3091,-2.3091,-2.3237,-2.3506,-2.3992,-2.5135,-2.6316,-2.7261,-2.8643,-2.997,-3.1096,-3.1511,-3.1948,-3.2618,-3.2669,-3.2669,-3.2669,-3.2669,-3.2669,-3.2669,-3.2669,-3.2669,-3.2669,-3.2669,-3.2669,-3.2669,-3.2669,-3.2669,-3.2669,-3.2669,-3.2669,-3.2669,-3.2669,-3.2669,-3.2628,-3.1774,-3.1381,-3.1309,-3.0377,-2.9994,-2.9994,-2.9994,-2.9994,-2.988,-2.8959,-2.8618,-2.8483,-2.762,-2.7423,-2.7572,-2.7841,-2.8359,-2.898,-2.9435,-2.9777,-2.9994,-2.9994,-2.9994,-2.9994,-2.9994,-2.9787,-2.9321,-2.8317,-2.6749,-2.5204,-2.4148,-2.2995,-2.1988,-2.1447,-2.1311,-2.0976,-2.0131,-1.9671,-1.9233,-1.8635,-1.8189,-1.7944,-1.7924,-1.7873,-1.7736,-1.7449,-1.706,-1.6721,-1.652,-1.6081,-1.5625,-1.5124,-1.4919,-1.4679,-1.4337,-1.4198,-1.41,-1.4031,-1.3575,-1.3336,-1.3336,-1.2925,-1.2883,-1.3216,-1.314,-1.3353,-3.0396,-3.0817,-3.0889,-3.0889,-2.9902,-2.8555,-2.7148,-2.5918,-2.4715,-2.3198,-2.3013,-2.3091,-2.3091,-2.3091,-2.3091,-2.3091,-2.415,-2.5112,-2.5464,-2.6872,-2.8369,-2.9664,-3.0061,-3.0727,-3.1938,-3.2401,-3.2612,-3.2669,-3.2669,-3.2669,-3.2669,-3.2669,-3.2669,-3.2669,-3.2669,-3.2669,-3.2669,-3.2669,-3.2669,-3.2669,-3.2669,-3.2669,-3.2669,-3.2669,-3.2669,-3.2685,-3.1909,-3.1495,-3.1319,-3.0522,-3.0118,-2.9994,-2.9994,-2.9994,-2.988,-2.8959,-2.8618,-2.8483,-2.762,-2.7309,-2.7361,-2.7624,-2.8038,-2.8493,-2.8959,-2.9518,-2.9994,-2.9994,-2.9827,-2.9617,-2.9617,-2.9162,-2.8663,-2.8289,-2.6736,-2.5179,-2.4541,-2.3213,-2.1945,-2.1508,-2.1438,-2.1179,-2.0201,-2.0014,-1.9607,-1.8459,-1.8208,-1.8051,-1.7728,-1.774,-1.7697,-1.7545,-1.7286,-1.6985,-1.6623,-1.6369,-1.5988,-1.5423,-1.5159,-1.4903,-1.4555,-1.4449,-1.4396,-1.4396,-1.4034,-1.3847,-1.3847,-1.3389,-1.3312,-1.3644,-1.3543,-1.3678,-2.9199,-3.0118,-3.0889,-3.0889,-2.9902,-2.8476,-2.6777,-2.5703,-2.4636,-2.2871,-2.2808,-2.3091,-2.3091,-2.3091,-2.3091,-2.3091,-2.3516,-2.4193,-2.5337,-2.5901,-2.6813,-2.843,-2.8643,-2.9116,-3.0414,-3.1614,-3.243,-3.2669,-3.2669,-3.2669,-3.2669,-3.2669,-3.2669,-3.2669,-3.2669,-3.2669,-3.2669,-3.2669,-3.2669,-3.2669,-3.2669,-3.2669,-3.2669,-3.2669,-3.2669,-3.2649,-3.2184,-3.1785,-3.134,-3.0874,-3.0408,-2.9994,-2.9994,-2.9994,-2.988,-2.8959,-2.8618,-2.8483,-2.762,-2.7309,-2.7309,-2.7309,-2.7572,-2.7968,-2.8483,-2.927,-2.9994,-2.9994,-2.9396,-2.8688,-2.8688,-2.8092,-2.738,-2.7312,-2.6089,-2.4786,-2.4294,-2.273,-2.1408,-2.1408,-2.1195,-2.0995,-2.0984,-2.0926,-2.044,-1.9173,-1.8498,-1.7878,-1.7285,-1.6709,-1.6648,-1.7513,-1.7471,-1.7225,-1.6825,-1.6371,-1.6094,-1.6094,-1.5339,-1.4898,-1.4887,-1.4577,-1.4396,-1.4396,-1.4269,-1.4188,-1.4188,-1.4069,-1.3986,-1.3986,-1.3986,-1.3986,-2.7667,-2.8183,-2.8242,-2.8242,-2.7031,-2.5703,-2.5166,-2.415,-2.3174,-2.2627,-2.2808,-2.3091,-2.3091,-2.3091,-2.2872,-2.2236,-2.226,-2.2342,-2.2222,-2.296,-2.4125,-2.5676,-2.8009,-2.9971,-3.1268,-3.197,-3.2373,-3.243,-3.2612,-3.2669,-3.2669,-3.2669,-3.2669,-3.2669,-3.2669,-3.2669,-3.2669,-3.2669,-3.2669,-3.2669,-3.2669,-3.2669,-3.2669,-3.2669,-3.2669,-3.2649,-3.2184,-3.1785,-3.134,-3.0874,-3.0419,-2.9994,-2.9994,-2.9994,-2.988,-2.8959,-2.8618,-2.8483,-2.762,-2.7309,-2.7309,-2.7309,-2.7562,-2.7945,-2.81,-2.8794,-2.9591,-2.9911,-2.9396,-2.8688,-2.8688,-2.8038,-2.7466,-2.7747,-2.6666,-2.5541,-2.5176,-2.4008,-2.2801,-2.2044,-2.1914,-2.1581,-2.0437,-2.0236,-1.9735,-1.8325,-1.7962,-1.7706,-1.7369,-1.7288,-1.7196,-1.7057,-1.7106,-1.7219,-1.7458,-1.7223,-1.6652,-1.5691,-1.538,-1.4885,-1.4106,-1.3983,-1.38,-1.3511,-1.3647,-1.3746,-1.38,-1.3799,-1.3872,-1.3997,-1.3621,-1.3491,-2.5561,-2.6428,-2.6738,-2.6572,-2.5469,-2.4336,-2.4014,-2.3203,-2.2333,-2.182,-2.2155,-2.2467,-2.2094,-2.2006,-2.1819,-2.1239,-2.1141,-2.111,-2.1092,-2.1637,-2.28,-2.4765,-2.7416,-2.941,-3.0284,-3.0866,-3.1169,-3.1053,-3.1421,-3.1777,-3.2123,-3.243,-3.2612,-3.2669,-3.2669,-3.2669,-3.2669,-3.2669,-3.2669,-3.2669,-3.2669,-3.2669,-3.2669,-3.2669,-3.2669,-3.2659,-3.237,-3.195,0.0,-3.106,-3.0574,-2.9994,-2.9994,-2.9994,-2.988,-2.8959,-2.8618,-2.8483,-2.762,-2.7309,-2.7262,-2.6976,-2.7128,-2.7533,-2.7827,-2.8566,-2.9312,-2.9279,-2.8727,-2.8145,-2.7814,-2.707,-2.6534,-2.6926,-2.6015,-2.4996,-2.4787,-2.365,-2.2546,-2.1947,-2.1555,-2.0995,-2.0052,-1.9635,-1.8992,-1.7596,-1.7389,-1.726,-1.6864,-1.6899,-1.6961,-1.6846,-1.691,-1.7054,-1.7296,-1.7138,-1.6679,-1.5896,-1.5513,-1.4924,-1.4046,-1.382,-1.3584,-1.3328,-1.3443,-1.3506,-1.3571,-1.3645,-1.3735,-1.3763,-1.3386,-1.3146,0.0,-2.4785,-2.5977,-2.5566,-2.4777,-2.3994,-2.3286,-2.2754,0.0,-2.0739,-2.111,-2.1373,-2.0367,-2.0187,-2.0187,-2.0096,-2.0121,-2.0445,-2.1376,-2.1678,-2.2707,-2.5335,-2.6715,-2.7573,-2.7963,-2.8762,-2.9148,-2.8801,-2.9462,-3.0295,-3.1169,-3.1883,-3.243,-3.2669,-3.2669,-3.2669,-3.2669,-3.2669,-3.2669,-3.2669,-3.2669,-3.2669,-3.2669,-3.2669,-3.2669,-3.2669,-3.2669,-3.2153,-3.1316,-3.1316,-3.0768,-2.9889,-2.9889,-2.9942,-2.988,-2.8959,-2.8618,-2.8483,-2.7524,-2.7214,-2.7109,-2.6342,-2.6368,-2.6903,-2.7629,-2.8524,-2.9044,-2.8191,-2.7641,-2.7147,-2.6254,-2.5415,-2.4858,-2.5326,-2.451,-2.3581,-2.3598,-2.2213,-2.1059,-2.13,-2.0349,-1.9509,-1.969,-1.91,-1.8187,-1.6996,-1.6837,-1.6568,-1.5903,-1.5805,-1.607,-1.6733,-1.6837,-1.6739,-1.6558,-1.6348,-1.6276,-1.6407,-1.5628,-1.4918,-1.444,-1.393,-1.3649,-1.3621,-1.3503,-1.3449,-1.3449,-1.3578,-1.3551,-1.3338,-1.3194,-1.289,-2.1251,0.0,-2.292,-2.2822,-2.2383,-2.2021,0.0,0.0,0.0,0.0,0.0,0.0,-2.0367,-2.0187,-1.996,-1.9247,-1.9336,-1.9606,-1.9827,-2.1143,-2.2871,-2.4995,-2.5509,-2.6079,-2.7165,-2.7672,-2.7889,-2.7838,-2.9098,-3.0001,-3.0236,-3.1536,-3.2315,-3.2373,-3.2612,-3.2669,-3.2669,-3.2669,-3.2669,-3.2669,-3.2669,-3.2669,-3.2669,-3.2669,-3.2669,-3.2669,-3.2669,-3.1815,-3.0414,-3.0414,-2.9828,-2.9016,-2.9016,-2.9396,-2.988,-2.8959,-2.8618,-2.8384,-2.6885,-2.639,-2.6332,-2.6139,-2.617,-2.6395,-2.7225,-2.8048,-2.8572,-2.7752,-2.7053,-2.6375,-2.5782,-2.501,-2.4628,-2.5684,-2.5226,-2.4623,-2.4679,-2.3245,-2.1714,-2.1065,-1.9987,-1.8915,-1.8057,-1.7766,-1.7277,-1.6228,-1.607,-1.6008,-1.5841,-1.5805,-1.5867,-1.6035,-1.607,-1.6262,-1.6767,-1.6577,-1.5952,-1.4842,-1.4569,-1.4173,-1.3609,-1.3462,-1.3205,-1.2789,-1.2852,-1.2895,-1.2895,-1.3126,-1.3132,-1.2943,-1.255,-1.2289,-2.0605,-2.1251,-2.1836,-2.1641,-2.1562,-2.1592,-2.1836,0.0,0.0,0.0,0.0,0.0,-1.9055,-1.9007,-1.8933,-1.8434,-1.889,-1.9469,-1.9852,-2.0976,-2.2438,-2.4387,-2.4647,-2.5016,-2.6009,-2.6277,-2.6277,-2.5973,-2.7056,-2.8137,-2.9148,-3.0344,-3.1353,-3.2248,-3.172,-3.1845,-3.2669,-3.2669,-3.2612,-3.2487,-3.2487,-3.243,-3.2258,-3.2258,-3.2373,-3.2477,-3.1872,-3.1047,-3.0052,-2.9456,-2.8758,-2.8145,-2.8528,-2.9016,-2.9347,-2.8797,-2.8618,-2.8384,-2.6691,-2.5606,-2.5109,-2.5849,-2.5839,-2.5693,-2.6524,-2.7061,-2.7339,-2.6681,-2.6378,-2.5961,-2.4915,-2.4339,-2.4167,-2.5026,-2.465,-2.4177,-2.4442,-2.284,-2.124,-2.0864,-1.9316,-1.7934,-1.7387,-1.692,-1.6412,-1.5866,-1.5805,-1.5805,-1.5805,-1.5805,-1.5805,-1.5805,-1.5805,-1.5895,-1.6101,-1.5993,-1.5615,-1.4932,-1.4641,-1.4166,-1.3415,-1.3333,-1.3119,-1.2723,-1.281,-1.2903,-1.306,-1.3205,-1.3077,-1.2717,-1.245,-1.2115,-2.0683,-2.1406,-2.2031,-2.1356,-2.144,-2.1687,-2.1755,0.0,0.0,0.0,0.0,0.0,-1.7525,-1.7625,-1.783,-1.7882,-1.8789,-1.9835,-2.0808,-2.1262,-2.2095,-2.3755,-2.3937,-2.4173,-2.4709,-2.4764,-2.4587,-2.3984,-2.4649,-2.5912,-2.782,-2.8664,-2.9855,-3.1536,-3.0285,-3.0344,-3.194,-3.195,-3.195,-3.195,-3.195,-3.1893,-3.1787,-3.1614,-3.1662,-3.1872,-3.0631,-2.9906,-2.9466,-2.8431,-2.761,-2.7168,-2.7868,-2.8252,-2.8357,-2.8167,-2.8146,-2.7974,-2.6349,-2.4716,-2.3628,-2.5109,-2.5246,-2.4943,-2.5742,-2.6042,-2.5976,-2.5538,-2.5597,-2.5479,-2.3983,-2.3632,-2.3674,-2.4059,-2.3614,-2.322,-2.363,-2.1949,-2.0419,-2.0533,-1.8638,-1.7025,-1.7054,-1.6359,-1.5805,-1.5805,-1.5805,-1.5805,-1.5805,-1.5805,-1.5805,-1.5805,-1.5805,-1.5668,-1.5334,-1.53,-1.5399,-1.5609,-1.5038,-1.4338,-1.3519,-1.3385,-1.3211,-1.305,-1.3019,-1.313,-1.3396,-1.3396,-1.3099,-1.2579,-1.2525,-1.2085,-2.1025,-2.2285,-2.3135,-2.157,-2.092,-2.0721,-2.1114,0.0,0.0,0.0,0.0,-1.8559,-1.7875,-1.7786,-1.7904,-1.8182,-1.9506,-2.0845,-2.1825,-2.2454,-2.2911,-2.3192,-2.3261,-2.3306,-2.341,-2.3417,-2.3355,-2.323,-2.4402,-2.5248,-2.5615,-2.6996,-2.7958,-2.8256,-2.823,-2.834,-2.8637,-2.8637,-2.9189,-3.0295,-3.0295,-3.083,-3.1787,-3.0655,-3.0236,-3.0236,-2.9456,-2.829,-2.6968,-2.7323,-2.6693,-2.5562,-2.5672,-2.6164,-2.6768,-2.6063,-2.6144,-2.6356,-2.4659,-2.317,-2.2173,-2.307,-2.3759,-2.4384,-2.5158,-2.5722,-2.5965,-2.5224,-2.4551,-2.3939,-2.3367,-2.3203,-2.3297,-2.3665,-2.3425,-2.31,-2.3186,-2.195,-2.0536,-1.9617,-1.8348,-1.7107,-1.618,-1.591,-1.5805,-1.5805,-1.5805,-1.5805,-1.5805,-1.5805,-1.5805,-1.5805,-1.5805,-1.578,-1.572,-1.5711,-1.5575,-1.5315,-1.4599,-1.3984,-1.3528,-1.3385,-1.3302,-1.3241,-1.308,-1.295,-1.2818,-1.2818,-1.2675,-1.2432,-1.2085,-1.186,-2.1142,-2.163,-2.2202,-2.279,-2.3275,-2.3756,-2.4174,-2.2817,0.0,0.0,-1.9646,-1.8524,-1.7666,-1.813,-1.9001,-2.0201,-2.0728,-2.1269,-2.2067,-2.2125,-2.2213,-2.2564,-2.2608,-2.274,-2.3076,-2.3106,-2.3106,-2.3106,-2.3658,-2.4332,-2.5071,-2.5798,-2.6572,-2.7478,-2.6806,-2.6434,-2.6599,-2.5757,-2.6434,-2.8614,-2.9275,-2.9865,-3.0236,-2.9639,-2.9453,-2.9561,-2.7795,-2.6615,-2.5857,-2.5447,-2.4765,-2.4047,-2.4522,-2.4948,-2.5292,-2.5276,-2.4939,-2.4325,-2.3554,-2.2375,-2.142,-2.2207,-2.3094,-2.389,-2.3989,-2.4599,-2.5011,-2.3967,-2.3678,-2.3573,-2.2961,-2.2809,-2.2903,-2.328,-2.3083,-2.286,-2.3074,-2.1936,-2.054,-1.9445,-1.8295,-1.7154,-1.5994,-1.5805,-1.5805,-1.5805,-1.5805,-1.5805,-1.5805,-1.5805,-1.5805,-1.5805,-1.5805,-1.5805,-1.5805,-1.5805,-1.5557,-1.4966,-1.4401,-1.3922,-1.3528,-1.3428,-1.3407,-1.3407,-1.3307,-1.3223,-1.3135,-1.3135,-1.2978,-1.2734,-1.2535,-1.2338,-2.1105,-2.107,-2.1497,-2.3322,-2.4127,-2.4784,-2.5935,-2.4021,-2.1941,-2.1761,-2.0335,-1.8855,-1.7947,-1.8664,-1.9923,-2.1569,-2.1613,-2.1664,-2.2308,-2.1972,-2.184,-2.2337,-2.2403,-2.2586,-2.3062,-2.3106,-2.3106,-2.3106,-2.3106,-2.3542,-2.4587,-2.4641,-2.5186,-2.6443,-2.524,-2.4756,-2.4917,-2.3713,-2.4386,-2.6935,-2.7949,-2.8426,-2.8444,-2.8137,-2.8128,-2.8289,-2.6097,-2.5125,-2.4977,-2.4017,-2.3336,-2.2955,-2.3568,-2.3692,-2.3635,-2.4315,-2.3625,-2.2426,-2.2426,-2.1666,-2.0806,-2.1438,-2.2282,-2.3044,-2.266,-2.317,-2.3719,-2.2778,-2.2728,-2.2979,-2.2695,-2.2594,-2.2671,-2.2912,-2.2808,-2.268,-2.292,-2.2081,-2.0981,-1.9839,-1.869,-1.7548,-1.6388,-1.5977,-1.5805,-1.5805,-1.5805,-1.5805,-1.5805,-1.5805,-1.5805,-1.5805,-1.5805,-1.5841,-1.5867,-1.5755,-1.542,-1.4784,-1.4253,-1.3819,-1.3519,-1.3511,-1.3511,-1.3511,-1.3511,-1.3511,-1.3511,-1.3511,-1.3365,-1.3129,-1.3043,-1.2817,-2.074,-2.1509,-2.2282,-2.1978,-2.0365,-1.9734,-2.3092,-2.1406,-1.9354,-2.0167,-2.0182,-1.993,-1.9257,-1.9514,-1.9967,-2.0706,-2.1547,-2.233,-2.2959,-2.3003,-2.2988,-2.304,-2.304,-2.3062,-2.3106,-2.3106,-2.3106,-2.3106,-2.3106,-2.3168,-2.323,-2.323,-2.3293,-2.341,-2.3293,-2.323,-2.3285,-2.3168,-2.3845,-2.5248,-2.537,-2.6042,-2.7073,-2.592,-2.5378,-2.537,-2.4564,-2.3994,-2.3641,-2.3905,-2.3458,-2.2609,-2.2345,-2.1886,-2.1372,-2.2027,-2.1723,-2.1019,-2.1019,-2.0652,-2.0181,-2.0233,-2.0783,-2.1489,-2.1438,-2.1844,-2.224,-2.2139,-2.1658,-2.1326,-2.2342,-2.2594,-2.2603,-2.2628,-2.262,-2.2603,-2.2628,-2.2551,-2.2148,-2.1024,-1.9874,-1.8732,-1.7583,-1.649,-1.5805,-1.5805,-1.5805,-1.5805,-1.5805,-1.5805,-1.5805,-1.5805,-1.5805,-1.5867,-1.6061,-1.5558,-1.5145,-1.4904,-1.4049,-1.3536,-1.3511,-1.3511,-1.3511,-1.3511,-1.3511,-1.3511,-1.3511,-1.3511,-1.3494,-1.3459,-1.3134,-1.2992,-2.0866,-2.1699,-2.2666,-2.1877,-2.0582,-2.0418,-2.4022,-2.3247,-2.1875,-2.227,-2.1692,-2.0881,-2.0033,-2.0472,-2.1042,-2.1284,-2.2132,-2.2842,-2.3076,-2.3106,-2.3106,-2.3106,-2.3106,-2.3106,-2.3106,-2.3106,-2.3106,-2.3106,-2.3106,-2.3106,-2.3106,-2.3106,-2.3106,-2.3106,-2.3106,-2.3106,-2.3106,-2.3106,-2.3355,-2.3845,-2.4702,-2.5378,-2.5798,-2.5317,-2.5071,-2.501,-2.3976,-2.3293,-2.2959,-2.2894,-2.2571,-2.2015,-2.168,-2.1361,-2.1155,-2.1372,-2.0984,-2.0395,-2.0395,-2.0042,-1.9576,-1.9576,-2.0285,-2.0987,-2.0629,-2.1132,-2.1794,-2.1454,-2.1113,-2.1019,-2.1428,-2.1776,-2.203,-2.203,-2.2342,-2.2594,-2.2594,-2.2594,-2.2268,-2.1144,-1.9958,-1.8853,-1.7703,-1.6542,-1.5805,-1.5805,-1.5805,-1.5805,-1.5805,-1.5805,-1.5805,-1.5805,-1.5805,-1.5832,-1.5903,-1.5584,-1.5204,-1.4791,-1.4202,-1.3759,-1.3519,-1.3511,-1.3511,-1.3511,-1.3511,-1.3511,-1.3511,-1.3511,-1.3511,-1.3502,-1.3365,-1.3305,-2.1146,-2.1496,-2.2064,-2.1271,-2.0329,-2.0438,-2.3615,-2.3415,-2.2684,-2.3329,-2.2532,-2.1496,-2.0823,-2.1247,-2.1693,-2.1693,-2.2491,-2.3106,-2.3106,-2.3106,-2.3106,-2.3106,-2.3106,-2.3106,-2.3106,-2.3106,-2.3106,-2.3106,-2.3106,-2.3106,-2.3106,-2.3106,-2.3106,-2.3106,-2.3106,-2.3106,-2.3106,-2.3106,-2.3106,-2.3113,-2.4031,-2.4456,-2.4456,-2.4456,-2.4456,-2.4402,-2.3479,-2.2981,-2.2747,-2.2345,-2.1935,-2.1525,-2.1298,-2.1033,-2.083,-2.083,-2.0408,-1.9835,-1.9835,-1.9628,-1.9279,-1.9279,-1.9776,-2.0336,-1.9983,-2.038,-2.0893,-2.0506,-2.0403,-2.0403,-2.0403,-2.0917,-2.1471,-2.1674,-2.203,-2.2392,-2.2544,-2.2594,-2.2371,-2.1607,-2.0534,-1.935,-1.8243,-1.7072,-1.6208,-1.5857,-1.5805,-1.5805,-1.5805,-1.5805,-1.5805,-1.5805,-1.5805,-1.5832,-1.5903,-1.5584,-1.5237,-1.4791,-1.4339,-1.3922,-1.3528,-1.3511,-1.3511,-1.3511,-1.3511,-1.345,-1.3329,-1.3329,-1.3329,-1.3329,-1.3329,-1.339,-2.1556,-2.081,-2.0354,-1.991,-1.9045,-1.8921,-2.1181,-2.0947,-2.0737,-2.271,-2.2359,-2.1708,-2.1693,-2.1708,-2.1708,-2.1693,-2.2491,-2.3106,-2.3106,-2.3106,-2.3106,-2.3106,-2.3106,-2.3106,-2.3106,-2.3106,-2.3106,-2.3106,-2.3106,-2.3106,-2.3106,-2.3106,-2.3106,-2.3106,-2.3106,-2.3106,-2.3106,-2.3106,-2.3106,-2.3106,-2.3106,-2.3106,-2.3106,-2.3106,-2.3106,-2.3106,-2.3106,-2.3106,-2.3062,-2.244,-2.1796,-2.1211,-2.1211,-2.0808,-2.0183,-2.0183,-1.9828,-1.9279,-1.9279,-1.9279,-1.9279,-1.9279,-1.9279,-1.9279,-1.9279,-1.9279,-1.9279,-1.9279,-1.9279,-1.9279,-1.9279,-2.0101,-2.1019,-2.1573,-2.1674,-2.1878,-2.2443,-2.2594,-2.2594,-2.2594,-2.1645,-2.0514,-1.9376,-1.8269,-1.7128,-1.5968,-1.5805,-1.5805,-1.5805,-1.5805,-1.5805,-1.5805,-1.5797,-1.5894,-1.6061,-1.5532,-1.5111,-1.4896,-1.4394,-1.3922,-1.3528,-1.3511,-1.3511,-1.3511,-1.3511,-1.3338,-1.2989,-1.2989,-1.2989,-1.2989,-1.2989,-1.3164,-2.0579,-2.1397,-2.2005,-1.9402,-2.0419,-2.1942,-2.1765,-2.1474,-2.1613,-2.2857,-2.2886,-2.2484,-2.1818,-2.2242,-2.2469,-2.1803,-2.2491,-2.3106,-2.3106,-2.3106,-2.3106,-2.3106,-2.3106,-2.3106,-2.3106,-2.3106,-2.3106,-2.3106,-2.3106,-2.3106,-2.3106,-2.3106,-2.3106,-2.3106,-2.3106,-2.3106,-2.3106,-2.3106,-2.3106,-2.3106,-2.3106,-2.3106,-2.3106,-2.3106,-2.3106,-2.3106,-2.3106,-2.3106,-2.3062,-2.244,-2.1796,-2.1211,-2.1211,-2.0808,-2.0183,-2.0183,-1.9828,-1.9279,-1.9279,-1.9279,-1.9279,-1.9279,-1.9279,-1.9279,-1.9279,-1.9279,-1.9279,-1.9279,-1.9279,-1.9279,-1.9279,-1.9532,-1.9887,-2.0447,-2.0858,-2.1173,-2.1377,-2.1377,-2.1377,-2.1377,-2.0459,-1.9475,-1.8706,-1.7655,-1.6668,-1.5897,-1.5805,-1.5805,-1.5805,-1.5805,-1.5805,-1.5805,-1.5661,-1.5566,-1.5455,-1.5102,-1.4584,-1.4017,-1.3763,-1.357,-1.3498,-1.3511,-1.339,-1.3164,-1.3164,-1.2981,-1.2644,-1.2644,-1.2644,-1.2644,-1.2644,-1.2697,-2.1577,-2.2207,-2.2607,-2.0716,-2.1544,-2.2754,-2.2348,-2.2257,-2.2418,-2.2988,-2.3106,-2.2937,-2.2359,-2.2725,-2.2923,-2.2352,-2.274,-2.3106,-2.3106,-2.3106,-2.3106,-2.3106,-2.3106,-2.3106,-2.3106,-2.3106,-2.3106,-2.3106,-2.3106,-2.3106,-2.3106,-2.3106,-2.3106,-2.3106,-2.3106,-2.3106,-2.3106,-2.3106,-2.3106,-2.3106,-2.3106,-2.3106,-2.3106,-2.3106,-2.3106,-2.3106,-2.3106,-2.3032,-2.2879,-2.2381,-2.1876,-2.1386,-2.1262,-2.0808,-2.0183,-2.0183,-1.9828,-1.9279,-1.9279,-1.9279,-1.9279,-1.9279,-1.9279,-1.9279,-1.9279,-1.9279,-1.9279,-1.9279,-1.9279,-1.9279,-1.9279,-1.9279,-1.9428,-1.9983,-2.0344,-2.066,-2.0865,-2.0925,-2.0925,-2.0925,-2.0358,-1.9638,-1.8808,-1.7825,-1.6919,-1.6263,-1.5944,-1.5726,-1.5576,-1.5576,-1.5505,-1.5328,-1.5198,-1.5099,-1.4987,-1.4779,-1.4363,-1.3623,-1.3526,-1.3371,-1.3111,-1.3246,-1.3224,-1.2989,-1.2989,-1.2767,-1.2336,-1.2336,-1.2336,-1.2336,-1.2336,-1.2398,-2.3593,-2.2948,-2.2388,-2.2834,-2.2389,-2.2052,-2.2915,-2.3106,-2.3106,-2.3106,-2.3106,-2.3106,-2.3106,-2.3106,-2.3106,-2.3106,-2.3106,-2.3106,-2.3106,-2.3106,-2.3106,-2.3106,-2.3106,-2.3106,-2.3106,-2.3106,-2.3106,-2.3106,-2.3106,-2.3106,-2.3106,-2.3106,-2.3106,-2.3106,-2.3106,-2.3106,-2.3106,-2.3106,-2.3106,-2.3106,-2.3106,-2.3106,-2.3106,-2.3106,-2.3106,-2.3106,-2.3106,-2.2923,-2.2601,-2.2301,-2.1993,-2.1664,-2.1335,-2.083,-2.0219,-2.019,-1.985,-1.9316,-1.9286,-1.9279,-1.9279,-1.9279,-1.9279,-1.9279,-1.9279,-1.9279,-1.9279,-1.9279,-1.9279,-1.9279,-1.9279,-1.9279,-1.9428,-1.9931,-2.0034,-2.0138,-2.066,-2.0763,-2.0763,-2.0763,-2.0763,-2.0432,-1.9335,-1.8334,-1.7475,-1.6643,-1.605,-1.5541,-1.5204,-1.5133,-1.4991,-1.4641,-1.4573,-1.4557,-1.4557,-1.4526,-1.419,-1.3543,-1.347,-1.3178,-1.2483,-1.2767,-1.295,-1.2928,-1.2928,-1.2644,-1.2058,-1.2058,-1.2058,-1.2058,-1.2058,-1.2182,-2.2057,-2.1998,-2.1869,-2.1948,-2.237,-2.2857,-2.3062,-2.3106,-2.3106,-2.3106,-2.3106,-2.3106,-2.3106,-2.3106,-2.3106,-2.3106,-2.3106,-2.3106,-2.3106,-2.3106,-2.3106,-2.3106,-2.3106,-2.3106,-2.3106,-2.3106,-2.3106,-2.3106,-2.3106,-2.3106,-2.3106,-2.3106,-2.3106,-2.3106,-2.3106,-2.3106,-2.3106,-2.3106,-2.3106,-2.3106,-2.3106,-2.3106,-2.3106,-2.3106,-2.3106,-2.3106,-2.3106,-2.2923,-2.2601,-2.2301,-2.1993,-2.1664,-2.1335,-2.0969,-2.0533,-2.0278,-1.9989,-1.9676,-1.9367,-1.9279,-1.9279,-1.9279,-1.9279,-1.9279,-1.9279,-1.9279,-1.9279,-1.9279,-1.9279,-1.9279,-1.9279,-1.9279,-1.9331,-1.9428,-1.948,-1.948,-1.9635,-1.9635,-1.9635,-1.9635,-1.9635,-1.9424,-1.8725,-1.7796,-1.668,-1.5261,-1.4929,-1.482,-1.4748,-1.4748,-1.4713,-1.4605,-1.4457,-1.4324,-1.4228,-1.381,-1.3346,-1.2781,-1.2498,-1.2285,-1.2197,-1.2459,-1.2521,-1.2305,-1.2274,-1.2089,-1.1716,-1.1716,-1.1716,-1.1716,-1.1716,-1.1747,-2.2468,-2.2207,-2.1831,-2.2259,-2.2747,-2.3106,-2.3106,-2.3106,-2.3106,-2.3106,-2.3106,-2.3043,-2.2918,-2.2981,-2.3043,-2.2863,-2.2981,-2.3106,-2.3106,-2.3106,-2.3106,-2.3106,-2.3106,-2.3106,-2.3106,-2.3106,-2.3106,-2.3106,-2.3106,-2.3106,-2.3106,-2.3106,-2.3106,-2.3106,-2.3106,-2.3106,-2.3106,-2.3106,-2.3106,-2.3106,-2.3106,-2.3106,-2.3106,-2.3106,-2.3106,-2.3106,-2.3106,-2.301,-2.2828,-2.252,-2.2213,-2.1898,-2.1569,-2.1152,-2.0684,-2.03,-2.0033,-1.9764,-1.9441,-1.9279,-1.9279,-1.9279,-1.9279,-1.9279,-1.9279,-1.9279,-1.9279,-1.9279,-1.9279,-1.9279,-1.9279,-1.9279,-1.9279,-1.9279,-1.9279,-1.9279,-1.9279,-1.9279,-1.9279,-1.9279,-1.9279,-1.9221,-1.8914,-1.78,-1.6568,-1.5242,-1.4775,-1.4533,-1.4389,-1.4353,-1.4281,-1.4101,-1.3976,-1.3876,-1.3805,-1.354,-1.3194,-1.2755,-1.2417,-1.2189,-1.2056,-1.2048,-1.2089,-1.2096,-1.2096,-1.1941,-1.1591,-1.1591,-1.1591,-1.1591,-1.1591,-1.1591,-2.3006,-2.2541,-2.1907,-2.285,-2.3106,-2.3106,-2.3106,-2.3106,-2.3106,-2.3106,-2.3106,-2.3043,-2.2738,-2.2918,-2.2988,-2.2738,-2.2918,-2.3106,-2.3106,-2.3106,-2.3106,-2.3106,-2.3106,-2.3106,-2.3106,-2.3106,-2.3106,-2.3106,-2.3106,-2.3106,-2.3106,-2.3106,-2.3106,-2.3106,-2.3106,-2.3106,-2.3106,-2.3106,-2.3106,-2.3106,-2.3106,-2.3106,-2.3106,-2.3106,-2.3106,-2.3106,-2.3106,-2.3106,-2.3084,-2.2754,-2.2447,-2.2154,-2.1825,-2.1335,-2.0772,-2.0387,-2.012,-1.9798,-1.9477,-1.9323,-1.9279,-1.9279,-1.9279,-1.9279,-1.9279,-1.9279,-1.9279,-1.9279,-1.9279,-1.9279,-1.9279,-1.9279,-1.9279,-1.9279,-1.9279,-1.9279,-1.9279,-1.9279,-1.9279,-1.9279,-1.9279,-1.922,-1.9052,-1.7978,-1.6724,-1.5589,-1.4973,-1.4483,-1.4044,-1.3985,-1.3884,-1.3528,-1.3492,-1.3492,-1.3492,-1.3492,-1.336,-1.3031,-1.276,-1.2397,-1.2018,-1.178,-1.1775,-1.2003,-1.1996,-1.1872,-1.1591,-1.1591,-1.1591,-1.1591,-1.1591,-1.1591,-2.1301,-2.1506,-2.1935,-2.2842,-2.3106,-2.3106,-2.3106,-2.3106,-2.3106,-2.3106,-2.3106,-2.3113,-2.3043,-2.3043,-2.3113,-2.3043,-2.3043,-2.3106,-2.3106,-2.3106,-2.3106,-2.3106,-2.3106,-2.3106,-2.3106,-2.3106,-2.3106,-2.3106,-2.3106,-2.3106,-2.3106,-2.3106,-2.3106,-2.3106,-2.3106,-2.3106,-2.3106,-2.3106,-2.3106,-2.3106,-2.3106,-2.3106,-2.3106,-2.3106,-2.3106,-2.3106,-2.3106,-2.3106,-2.3084,-2.2754,-2.2447,-2.2154,-2.1825,-2.1467,-2.1101,-2.0779,-2.045,-2.0128,-1.9806,-1.9566,-1.9279,-1.9279,-1.9279,-1.9279,-1.9279,-1.9279,-1.9279,-1.9279,-1.9279,-1.9279,-1.9279,-1.9279,-1.9279,-1.9279,-1.9279,-1.9279,-1.9279,-1.9279,-1.9279,-1.9279,-1.9279,-1.9008,-1.8152,-1.7842,-1.7057,-1.5252,-1.4911,-1.456,-1.3675,-1.3564,-1.3564,-1.3499,-1.3492,-1.3492,-1.3492,-1.3492,-1.336,-1.3031,-1.2965,-1.2638,-1.2025,-1.1959,-1.187,-1.1661,-1.1654,-1.1654,-1.1591,-1.1591,-1.1591,-1.1591,-1.1591,-1.1591,-2.1379,-2.154,-2.192,-2.2871,-2.3106,-2.3106,-2.3106,-2.3106,-2.3106,-2.3106,-2.3106,-2.3043,-2.2856,-2.2981,-2.3043,-2.2856,-2.2988,-2.3106,-2.3106,-2.3106,-2.3106,-2.3106,-2.3106,-2.3106,-2.3106,-2.3106,-2.3106,-2.3106,-2.3106,-2.3106,-2.3106,-2.3106,-2.3106,-2.3106,-2.3106,-2.3106,-2.3106,-2.3106,-2.3106,-2.3106,-2.3106,-2.3106,-2.3106,-2.3106,-2.3106,-2.3106,-2.3106,-2.3106,-2.3098,-2.2952,-2.271,-2.2396,-2.2089,-2.1774,-2.1423,-2.0911,-2.0516,-2.0132,-1.9872,-1.9603,-1.9279,-1.9279,-1.9279,-1.9279,-1.9279,-1.9279,-1.9279,-1.9279,-1.9279,-1.9279,-1.9279,-1.9279,-1.9279,-1.9279,-1.9279,-1.9279,-1.9279,-1.9279,-1.9279,-1.9279,-1.9279,-1.914,-1.8708,-1.8182,-1.734,-1.595,-1.5243,-1.455,-1.3623,-1.3492,-1.3492,-1.3492,-1.3492,-1.3492,-1.3492,-1.3492,-1.3433,-1.3287,-1.3111,-1.2877,-1.2558,-1.2193,-1.1937,-1.1831,-1.1687,-1.1591,-1.1591,-1.1591,-1.1591,-1.1591,-1.1591,-1.1591,-2.1415,-2.1247,-2.1316,-2.2425,-2.2747,-2.2813,-2.3054,-2.3106,-2.3106,-2.3106,-2.3106,-2.3043,-2.2793,-2.2926,-2.3043,-2.2793,-2.2926,-2.3106,-2.3106,-2.3106,-2.3106,-2.3106,-2.3106,-2.3106,-2.3106,-2.3106,-2.3106,-2.3106,-2.3106,-2.3106,-2.3106,-2.3106,-2.3106,-2.3106,-2.3106,-2.3106,-2.3106,-2.3106,-2.3106,-2.3106,-2.3106,-2.3106,-2.3106,-2.3106,-2.3106,-2.3106,-2.3106,-2.3106,-2.3106,-2.3106,-2.2915,-2.2593,-2.2301,-2.1986,-2.1628,-2.1057,-2.0584,-2.0318,-1.9996,-1.9674,-1.9389,-1.9301,-1.9279,-1.9279,-1.9279,-1.9279,-1.9279,-1.9279,-1.9279,-1.9279,-1.9279,-1.9279,-1.9279,-1.9279,-1.9279,-1.9279,-1.9279,-1.9279,-1.9279,-1.9279,-1.9279,-1.9279,-1.9279,-1.8672,-1.7772,-1.6595,-1.576,-1.4867,-1.3653,-1.3492,-1.3492,-1.3492,-1.3492,-1.3492,-1.3492,-1.3492,-1.3492,-1.3492,-1.3265,-1.3097,-1.3009,-1.2507,-1.2171,-1.2003,-1.1802,-1.1672,-1.1591,-1.1591,-1.1591,-1.1591,-1.1591,-1.1591,-2.0747,-2.0035,-1.9564,-2.1332,-2.1767,-2.2001,-2.2901,-2.3106,-2.3106,-2.3106,-2.3106,-2.3106,-2.3113,-2.3106,-2.3106,-2.3113,-2.3106,-2.3106,-2.3106,-2.3106,-2.3106,-2.3106,-2.3106,-2.3106,-2.3106,-2.3106,-2.3106,-2.3106,-2.3106,-2.3106,-2.3106,-2.3106,-2.3106,-2.3106,-2.3106,-2.3106,-2.3106,-2.3106,-2.3106,-2.3106,-2.3106,-2.3106,-2.3106,-2.3106,-2.3106,-2.3106,-2.3106,-2.3106,-2.3106,-2.3106,-2.2915,-2.2593,-2.2301,-2.1986,-2.1657,-2.1313,-2.0976,-2.0647,-2.027,-2.0003,-1.9742,-1.9374,-1.9279,-1.9279,-1.9279,-1.9279,-1.9279,-1.9279,-1.9279,-1.9279,-1.9279,-1.9279,-1.9279,-1.9279,-1.9279,-1.9279,-1.9279,-1.9279,-1.9279,-1.9279,-1.9279,-1.9279,-1.9279,-1.9235,-1.8555,-1.6697,-1.6375,-1.5656,-1.374,-1.3492,-1.3492,-1.3492,-1.3492,-1.3492,-1.3492,-1.3492,-1.3492,-1.3492,-1.3477,-1.3331,-1.3023,-1.298,-1.2631,-1.201,-1.1989,-1.186,-1.1591,-1.1591,-1.1591,-1.1591,-1.1591,-1.1591,-2.1822,-2.1102,-2.0337,-2.0778,-2.1306,-2.1789,-2.2125,-2.2674,-2.3106,-2.3106,-2.3106,-2.3106,-2.3106,-2.3106,-2.3106,-2.3106,-2.3106,-2.3106,-2.3106,-2.3106,-2.3106,-2.3106,-2.3106,-2.3106,-2.3106,-2.3106,-2.3106,-2.3106,-2.3106,-2.3106,-2.3106,-2.3106,-2.3106,-2.3106,-2.3106,-2.3106,-2.3106,-2.3106,-2.3106,-2.3106,-2.3106,-2.3106,-2.3106,-2.3106,-2.3106,-2.3106,-2.3106,-2.3106,-2.3106,-2.3106,-2.304,-2.2901,-2.2586,-2.2279,-2.1972,-2.1642,-2.1181,-2.0676,-2.0292,-2.0025,-1.9764,-1.9434,-1.9279,-1.9279,-1.9279,-1.9279,-1.9279,-1.9279,-1.9279,-1.9279,-1.9279,-1.9279,-1.9279,-1.9279,-1.9279,-1.9279,-1.9279,-1.9279,-1.9279,-1.9279,-1.9279,-1.9279,-1.9279,-1.9279,-1.8825,-1.7494,-1.6815,-1.5942,-1.455,-1.3879,-1.3492,-1.3492,-1.3492,-1.3492,-1.3492,-1.3492,-1.3492,-1.3492,-1.3492,-1.344,-1.3323,-1.3119,-1.2899,-1.2665,-1.2215,-1.1875,-1.1591,-1.1591,-1.1591,-1.1591,-1.1685,-1.1716,-2.291,-2.1906,-2.0732,-2.0617,-2.0764,-2.1114,-2.1605,-2.2184,-2.2725,-2.3047,-2.3106,-2.3106,-2.3106,-2.3106,-2.3106,-2.3106,-2.3106,-2.3106,-2.3106,-2.3106,-2.3106,-2.3106,-2.3106,-2.3106,-2.3106,-2.3106,-2.3106,-2.3106,-2.3106,-2.3106,-2.3106,-2.3106,-2.3106,-2.3106,-2.3106,-2.3106,-2.3106,-2.3106,-2.3106,-2.3106,-2.3106,-2.3106,-2.3106,-2.3106,-2.3106,-2.3106,-2.3106,-2.3106,-2.3106,-2.3106,-2.3106,-2.3076,-2.2747,-2.2506,-2.2279,-2.1854,-2.1423,-2.0984,-2.0497,-2.0194,-1.9864,-1.9595,-1.9367,-1.9279,-1.9279,-1.9279,-1.9279,-1.9279,-1.9279,-1.9279,-1.9279,-1.9279,-1.9279,-1.9279,-1.9279,-1.9279,-1.9279,-1.9279,-1.9279,-1.9279,-1.9279,-1.9279,-1.9279,-1.9279,-1.8942,-1.7962,-1.7267,-1.6389,-1.5068,-1.4338,-1.3857,-1.3528,-1.3492,-1.3492,-1.3492,-1.3492,-1.3492,-1.3492,-1.3492,-1.3492,-1.3492,-1.3287,-1.3119,-1.3009,-1.255,-1.2186,-1.1816,-1.1705,-1.1654,-1.1685,-1.184,-1.1926,0.0,0.0,0.0,-2.0807,-2.0229,-1.9902,-2.1296,-2.1635,-2.192,-2.2871,-2.3069,-2.3076,-2.3106,-2.3106,-2.3106,-2.3106,-2.3106,-2.3106,-2.3106,-2.3106,-2.3106,-2.3106,-2.3106,-2.3106,-2.3106,-2.3106,-2.3106,-2.3106,-2.3106,-2.3106,-2.3106,-2.3106,-2.3106,-2.3106,-2.3106,-2.3106,-2.3106,-2.3106,-2.3106,-2.3106,-2.3106,-2.3106,-2.3106,-2.3106,-2.3106,-2.3106,-2.3106,-2.3106,-2.3106,-2.3106,-2.3106,-2.3076,-2.2762,-2.263,-2.255,-2.1935,-2.1708,-2.1606,-2.0947,-2.0516,-2.0194,-1.9872,-1.9603,-1.9286,-1.9279,-1.9279,-1.9279,-1.9279,-1.9279,-1.9279,-1.9279,-1.9279,-1.9279,-1.9279,-1.9279,-1.9279,-1.9279,-1.9279,-1.9279,-1.9279,-1.9279,-1.9279,-1.9279,-1.9279,-1.895,-1.7999,-1.7838,-1.7128,-1.5192,-1.4922,-1.4535,-1.3601,-1.3492,-1.3492,-1.3492,-1.3492,-1.3492,-1.3492,-1.3492,-1.3492,-1.3492,-1.3492,-1.3345,-1.3031,-1.3016,-1.277,-1.2333,-1.1989,-1.1809,-1.1809,-1.1996,-1.2182,-2.3992,0.0,0.0,0.0,0.0,0.0,-2.0195,-2.0352,-2.0918,-2.1884,-2.2089,-2.2293,-2.2981,-2.3106,-2.3106,-2.3106,-2.3106,-2.3106,-2.3106,-2.3106,-2.3106,-2.3106,-2.3106,-2.3106,-2.3106,-2.3106,-2.3106,-2.3106,-2.3106,-2.3106,-2.3106,-2.3106,-2.3106,-2.3106,-2.3106,-2.3106,-2.3106,-2.3106,-2.3106,-2.3106,-2.3106,-2.3106,-2.3106,-2.3106,-2.3106,-2.3106,-2.3106,-2.3106,-2.3106,-2.3106,-2.3106,-2.3098,-2.301,-2.2828,-2.2571,-2.2191,-2.1898,-2.1606,-2.0947,-2.0662,-2.0501,-1.9945,-1.9757,-1.9639,-1.9345,-1.9279,-1.9279,-1.9279,-1.9279,-1.9279,-1.9279,-1.9279,-1.9279,-1.9279,-1.9279,-1.9279,-1.9279,-1.9279,-1.9279,-1.9279,-1.9279,-1.9279,-1.9279,-1.9279,-1.9236,-1.8913,-1.8269,-1.7369,-1.6133,-1.5372,-1.4535,-1.3601,-1.3492,-1.3492,-1.3492,-1.3492,-1.3492,-1.3492,-1.3492,-1.3492,-1.3492,-1.3492,-1.3455,-1.336,-1.3126,-1.2956,-1.2814,-1.2379,-1.2104,-1.2027,-1.2182,-1.2336,-2.4858,-2.4408,-2.3753,-2.2193,0.0,0.0,-2.0805,-2.081,-2.1214,-2.212,-2.2286,-2.2454,-2.301,-2.3106,-2.3106,-2.3106,-2.3106,-2.3106,-2.3106,-2.3106,-2.3106,-2.3106,-2.3106,-2.3106,-2.3106,-2.3106,-2.3106,-2.3106,-2.3106,-2.3106,-2.3106,-2.3106,-2.3106,-2.3106,-2.3106,-2.3106,-2.3106,-2.3106,-2.3106,-2.3106,-2.3106,-2.3106,-2.3106,-2.3106,-2.3106,-2.3106,-2.3106,-2.3106,-2.3106,-2.3106,-2.3106,-2.3106,-2.3106,-2.2988,-2.2776,-2.2345,-2.2059,-2.1803,-2.1152,-2.0837,-2.064,-2.0128,-1.9872,-1.9757,-1.9426,-1.9279,-1.9279,-1.9279,-1.9279,-1.9279,-1.9279,-1.9279,-1.9279,-1.9279,-1.9279,-1.9279,-1.9279,-1.9279,-1.9279,-1.9279,-1.9279,-1.9279,-1.9279,-1.9279,-1.9279,-1.9279,-1.8789,-1.7981,-1.6684,-1.5927,-1.5054,-1.3756,-1.3564,-1.3492,-1.3492,-1.3572,-1.3645,-1.3645,-1.3645,-1.3645,-1.3645,-1.3535,-1.3492,-1.3492,-1.3309,-1.3183,-1.3114,-1.2624,-1.2354,-1.2313,-1.2406,-1.2498,-2.5839,-2.5135,-2.4396,-2.3937,-2.2935,0.0,-2.2367,-2.2176,-2.2186,-2.2894,-2.3042,-2.3018,-2.2946,-2.2968,-2.2914,-2.2852,-2.2879,-2.2988,-2.3091,-2.3106,-2.3106,-2.3106,-2.3106,-2.3106,-2.3106,-2.3106,-2.3106,-2.3106,-2.3106,-2.3106,-2.3106,-2.3106,-2.3106,-2.3106,-2.3106,-2.3106,-2.3106,-2.3106,-2.3106,-2.3106,-2.3106,-2.3106,-2.3106,-2.3106,-2.3106,-2.3106,-2.3106,-2.3106,-2.3106,-2.3106,-2.3106,-2.3106,-2.3106,-2.3091,-2.2981,-2.2403,-2.2162,-2.2045,-2.1423,-2.102,-2.072,-2.0336,-2.0077,-1.9808,-1.9425,-1.9301,-1.9279,-1.9279,-1.9279,-1.9279,-1.9279,-1.9279,-1.9279,-1.9279,-1.9279,-1.9279,-1.9279,-1.9279,-1.9279,-1.9279,-1.9279,-1.9279,-1.9279,-1.9279,-1.9279,-1.9279,-1.9279,-1.8714,-1.7048,-1.6573,-1.5799,-1.4119,-1.3711,-1.3528,-1.3564,-1.3717,-1.379,-1.3826,-1.3826,-1.3826,-1.3826,-1.3645,-1.3535,-1.3535,-1.3499,-1.3446,-1.3297,-1.2795,-1.2567,-1.2615,-1.2615,-1.2599,-2.5378,-2.4639,-2.4392,-2.393,-2.3321,0.0,-2.2471,-2.2015,-2.1866,-2.2418,-2.2544,-2.2405,-2.2065,-2.1944,-2.1785,-2.1178,-2.1568,-2.2235,-2.3003,-2.3106,-2.3106,-2.3106,-2.3106,-2.3106,-2.3106,-2.3106,-2.3106,-2.3106,-2.3106,-2.3106,-2.3106,-2.3106,-2.3106,-2.3106,-2.3106,-2.3106,-2.3106,-2.3106,-2.3106,-2.3106,-2.3106,-2.3106,-2.3106,-2.3106,-2.3106,-2.3106,-2.3106,-2.3106,-2.3106,-2.3106,-2.3106,-2.3106,-2.3106,-2.2945,-2.2674,-2.2315,-2.2015,-2.1737,-2.1342,-2.1167,-2.1057,-2.0735,-2.0406,-2.0084,-1.9762,-1.9536,-1.9279,-1.9279,-1.9279,-1.9279,-1.9279,-1.9279,-1.9279,-1.9279,-1.9279,-1.9279,-1.9279,-1.9279,-1.9279,-1.9279,-1.9279,-1.9279,-1.9279,-1.9279,-1.9279,-1.9279,-1.9279,-1.8906,-1.7732,-1.7039,-1.6186,-1.5043,-1.4223,-1.3826,-1.3956,-1.3863,-1.3863,-1.4029,-1.4029,-1.4029,-1.4029,-1.3863,-1.3754,-1.3754,-1.3572,-1.3446,-1.3297,-1.3029,-1.2856,-1.2758,-1.2758,-1.2704,-2.5569,-2.4701,-2.4422,-2.4226,-2.3852,0.0,0.0,-2.3052,-2.2825,-2.3358,-2.3391,-2.3168,-2.2808,-2.2757,-2.2392,-2.1295,-2.1828,-2.2255,-2.1905,-2.2559,-2.3106,-2.3106,-2.3106,-2.3106,-2.3106,-2.3106,-2.3106,-2.3106,-2.3106,-2.3106,-2.3106,-2.3106,-2.3106,-2.3106,-2.3106,-2.3106,-2.3106,-2.3106,-2.3106,-2.3106,-2.3106,-2.3106,-2.3106,-2.3106,-2.3106,-2.3106,-2.3106,-2.3106,-2.3106,-2.3106,-2.3106,-2.3106,-2.3106,-2.2908,-2.2586,-2.2293,-2.1979,-2.165,-2.132,-2.1211,-2.1159,-2.083,-2.0446,-2.0179,-1.9857,-1.9588,-1.9279,-1.9279,-1.9279,-1.9279,-1.9279,-1.9279,-1.9279,-1.9279,-1.9279,-1.9279,-1.9279,-1.9279,-1.9279,-1.9279,-1.9279,-1.9279,-1.9279,-1.9279,-1.9279,-1.9279,-1.9279,-1.8972,-1.8085,-1.7532,-1.6758,-1.5478,-1.4846,-1.4389,-1.4139,-1.3992,-1.4036,-1.4245,-1.4165,-1.4093,-1.4093,-1.3891,-1.3761,-1.3645,-1.3564,-1.3484,-1.3401,-1.3301,-1.3138,-1.2912,-1.2832,-1.2765,-2.5802,-2.4714,-2.4381,-2.4362,-2.4176,-2.4124,0.0,0.0,0.0,-2.443,-2.4368,-2.4094,-2.3618,-2.3533,-2.3065,-2.1598,-2.2172,-2.2308,-2.0773,-2.1927,-2.2854,-2.2739,-2.2948,-2.3032,-2.2911,-2.2896,-2.2977,-2.3091,-2.2999,-2.2977,-2.3098,-2.3106,-2.3106,-2.3106,-2.3106,-2.3106,-2.3106,-2.3106,-2.3106,-2.3106,-2.3106,-2.3106,-2.3106,-2.3106,-2.3106,-2.3106,-2.3106,-2.3106,-2.3106,-2.3106,-2.3106,-2.3098,-2.304,-2.282,-2.2506,-2.2206,-2.1884,-2.1569,-2.1306,-2.1211,-2.1167,-2.0903,-2.0552,-2.0179,-1.9857,-1.9588,-1.9279,-1.9279,-1.9279,-1.9279,-1.9279,-1.9279,-1.9279,-1.9279,-1.9279,-1.9279,-1.9279,-1.9279,-1.9279,-1.9279,-1.9279,-1.9279,-1.9279,-1.9279,-1.9279,-1.9279,-1.9279,-1.9045,-1.84,-1.803,-1.7328,-1.5933,-1.544,-1.4915,-1.4214,-1.4101,-1.4137,-1.4397,-1.4201,-1.4129,-1.4165,-1.3928,-1.3717,-1.3492,-1.3492,-1.3492,-1.3492,-1.3492,-1.3334,-1.3055,-1.2981,-1.2887,-2.5459,-2.3994,-2.3958,-2.3826,-2.3782,-2.3868,-2.44,0.0,-2.4429,-2.4472,0.0,-2.4061,-2.278,0.0,0.0,-2.0451,-2.1123,-2.152,-2.0499,-2.1414,-2.1971,-2.1342,-2.2372,-2.2838,-2.2282,-2.2201,-2.2438,-2.3047,-2.2564,-2.2453,-2.3062,-2.3106,-2.3106,-2.3106,-2.3106,-2.3106,-2.3106,-2.3106,-2.3106,-2.3106,-2.3106,-2.3106,-2.3106,-2.3106,-2.3106,-2.3106,-2.3106,-2.3106,-2.3106,-2.3106,-2.3106,-2.3084,-2.2791,-2.2498,-2.2198,-2.1869,-2.1547,-2.1262,-2.1218,-2.1211,-2.1203,-2.1167,-2.0742,-2.0179,-1.9857,-1.9588,-1.9279,-1.9279,-1.9279,-1.9279,-1.9279,-1.9279,-1.9279,-1.9279,-1.9279,-1.9279,-1.9279,-1.9279,-1.9279,-1.9279,-1.9279,-1.9279,-1.9279,-1.9279,-1.9279,-1.9279,-1.9279,-1.9287,-1.9177,-1.8506,-1.7734,-1.691,-1.5854,-1.4954,-1.4403,-1.4036,-1.4008,-1.4397,-1.4201,-1.4165,-1.4353,-1.4008,-1.3717,-1.3492,-1.3492,-1.3492,-1.3492,-1.3492,-1.3416,-1.3272,-1.3373,-1.3201,-2.6804,-2.5785,-2.5537,-2.4529,-2.4473,-2.4573,-2.4152,-2.3933,-2.3946,-2.428,0.0,0.0,0.0,0.0,0.0,0.0,-2.131,-2.1471,-1.9918,-2.1121,-2.1857,-2.1063,-2.1519,-2.1916,-2.208,-2.2095,-2.2379,-2.3032,-2.246,-2.2394,-2.3062,-2.3106,-2.3106,-2.3106,-2.3106,-2.3106,-2.3106,-2.3106,-2.3106,-2.3106,-2.3106,-2.3106,-2.3106,-2.3106,-2.3106,-2.3106,-2.3106,-2.3106,-2.3106,-2.3106,-2.2996,-2.2798,-2.2484,-2.2293,-2.214,-2.1818,-2.1489,-2.1211,-2.1211,-2.1211,-2.1181,-2.0991,-2.0742,-2.042,-1.9916,-1.972,-1.9573,-1.933,-1.9279,-1.9279,-1.9279,-1.9279,-1.9279,-1.9279,-1.9279,-1.9279,-1.9279,-1.9279,-1.9279,-1.9279,-1.9279,-1.9279,-1.9279,-1.9279,-1.9279,-1.9279,-1.9279,-1.9279,-1.9279,-1.9023,-1.8496,-1.7738,-1.6698,-1.5786,-1.5104,-1.4267,-1.3935,-1.4209,-1.4036,-1.3964,-1.4044,-1.379,-1.3608,-1.3492,-1.3492,-1.3492,-1.3492,-1.3492,-1.3462,-1.343,-1.3485,-1.3382,-2.8653,-2.7865,-2.7378,-2.5601,-2.5307,-2.5202,-2.4194,-2.3738,-2.3629,-2.3913,-2.3863,0.0,0.0,0.0,-2.2798,-2.1414,0.0,-2.1641,-1.9943,-2.0928,-2.1448,-2.0503,-2.0494,-2.0894,-2.1702,-2.156,-2.1805,-2.2745,-2.2119,-2.2112,-2.304,-2.3025,-2.2974,-2.2974,-2.2974,-2.2974,-2.2974,-2.3062,-2.3106,-2.3106,-2.3106,-2.3106,-2.3106,-2.3106,-2.3106,-2.3106,-2.3106,-2.3106,-2.3098,-2.301,-2.2835,-2.2579,-2.2198,-2.2052,-2.2008,-2.1686,-2.1415,-2.1211,-2.1211,-2.1211,-2.1167,-2.0933,-2.0794,-2.0633,-2.0164,-1.9955,-1.9764,-1.9529,-1.9345,-1.9279,-1.9279,-1.9279,-1.9279,-1.9279,-1.9279,-1.9279,-1.9279,-1.9279,-1.9279,-1.9279,-1.9279,-1.9279,-1.9279,-1.9279,-1.9279,-1.9279,-1.9279,-1.9279,-1.9279,-1.9279,-1.9008,-1.8175,-1.7354,-1.6464,-1.5499,-1.4509,-1.3953,-1.4,-1.3928,-1.3863,-1.3797,-1.3645,-1.3572,-1.3492,-1.3492,-1.3492,-1.3492,-1.3492,-1.3492,-1.3492,-1.3579,-1.3555,-3.0822,-2.9626,-2.9072,-2.6889,-2.5967,-2.5429,-2.4796,-2.426,-2.3809,-2.3492,-2.3551,-2.3664,-2.3503,-2.3507,-2.3229,-2.2484,-2.2271,0.0,0.0,-2.0818,-2.0334,-1.8953,-1.9168,-1.9856,-2.0924,-2.0165,-2.0302,-2.1991,-2.1216,-2.1385,-2.3003,-2.2806,-2.2637,-2.2637,-2.2637,-2.2637,-2.2637,-2.2952,-2.3106,-2.3106,-2.3106,-2.3106,-2.3106,-2.3106,-2.3106,-2.3106,-2.3106,-2.3106,-2.3084,-2.2769,-2.263,-2.2564,-2.195,-2.1715,-2.1672,-2.135,-2.1218,-2.1211,-2.1211,-2.1211,-2.1211,-2.1196,-2.0976,-2.072,-2.0698,-2.0259,-1.9815,-1.9808,-1.9573,-1.9279,-1.9279,-1.9279,-1.9279,-1.9279,-1.9279,-1.9279,-1.9279,-1.9279,-1.9279,-1.9279,-1.9279,-1.9279,-1.9279,-1.9279,-1.9279,-1.9279,-1.9279,-1.9279,-1.9279,-1.9279,-1.9008,-1.8175,-1.7563,-1.6631,-1.5312,-1.4627,-1.4149,-1.3812,-1.4,-1.3992,-1.379,-1.379,-1.3717,-1.3492,-1.3492,-1.3492,-1.3492,-1.3492,-1.3492,-1.3492,-1.371,-1.3675,-3.3408,-3.3293,-3.2822,-2.9915,-2.9267,-2.8671,-2.5914,-2.5168,-2.4871,-2.4356,-2.3939,-2.3623,-2.353,-2.309,-2.2636,-2.2248,-2.2159,-2.19,0.0,-2.0453,-1.9959,-1.9847,-1.9861,-2.0071,-2.0688,-2.0372,-2.0703,-2.1976,-2.1775,-2.1949,-2.2732,-2.2681,-2.2535,-2.2337,-2.233,-2.2425,-2.2623,-2.2732,-2.2893,-2.3106,-2.3106,-2.3106,-2.3106,-2.3106,-2.3106,-2.3106,-2.3106,-2.2988,-2.2776,-2.2667,-2.2381,-2.1986,-2.1774,-2.1562,-2.1364,-2.1247,-2.1211,-2.1211,-2.1211,-2.1211,-2.1211,-2.1211,-2.1137,-2.1006,-2.0786,-2.0574,-2.0311,-1.9933,-1.9735,-1.9603,-1.9382,-1.9279,-1.9279,-1.9279,-1.9279,-1.9279,-1.9279,-1.9279,-1.9279,-1.9279,-1.9279,-1.9279,-1.9279,-1.9279,-1.9279,-1.9279,-1.9279,-1.9279,-1.9279,-1.9279,-1.9199,-1.892,-1.8103,-1.7239,-1.6273,-1.4931,-1.4106,-1.4,-1.3928,-1.3863,-1.3797,-1.3681,-1.3572,-1.3492,-1.3492,-1.3492,-1.3492,-1.3492,-1.3492,-1.3492,-1.3572,-1.3658,-3.5479,-3.5699,-3.5465,-3.2746,-3.2127,-3.1376,-2.8112,-2.7203,-2.6609,-2.492,-2.4466,-2.4141,-2.3361,-2.3032,-2.2793,-2.2478,-2.2101,-2.1693,0.0,-2.045,-2.0194,-2.0531,-2.0116,-1.9916,-2.0307,-2.0232,-2.0499,-2.1271,-2.1544,-2.1764,-2.2017,-2.2162,-2.2206,-2.2015,-2.2008,-2.2103,-2.2293,-2.2513,-2.2725,-2.2937,-2.3054,-2.3106,-2.3106,-2.3106,-2.3106,-2.3098,-2.2988,-2.282,-2.2608,-2.2381,-2.2059,-2.1686,-2.1569,-2.1393,-2.1211,-2.1211,-2.1211,-2.1211,-2.1211,-2.1211,-2.1211,-2.1211,-2.1211,-2.1167,-2.0955,-2.0815,-2.0662,-2.0362,-2.0113,-1.9908,-1.9813,-1.9703,-1.9616,-1.9616,-1.9616,-1.9586,-1.9477,-1.95,-1.9463,-1.9301,-1.9279,-1.9279,-1.9279,-1.9279,-1.9279,-1.9279,-1.9279,-1.9279,-1.9279,-1.9279,-1.9279,-1.9279,-1.8553,-1.7697,-1.6755,-1.5078,-1.4183,-1.4379,-1.4141,-1.4008,-1.4008,-1.3819,-1.3702,-1.3702,-1.3682,-1.3645,-1.3608,-1.3653,-1.3609,-1.3492,-1.3492,-1.3572]},{"header":{"parameterUnit":"m.s-1","parameterCategory":1,"la1":30.6,"la2":29.2853,"lo1":-89.7004,"lo2":-87.6739,"dy":0.0162,"dx":0.0183,"nx":112,"ny":82,"refTime":"2023-05-06T12:00:00:Z","depth":0,"parameterNumber":3,"parameterNumberName":"V-component_of_WINDS"},"data":[0.0,0.0,0.0,0.0,0.0,0.0,0.0,0.0,0.0,0.0,0.0,0.0,0.0,0.0,0.0,0.0,0.0,0.0,0.0,0.0,0.0,0.0,0.0,0.0,0.0,0.0,0.0,0.0,0.0,0.0,0.0,0.0,0.0,0.0,0.0,0.0,0.0,0.0,0.0,0.0,0.0,0.0,0.0,0.0,0.0,0.0,0.0,0.0,0.0,0.0,0.0,0.0,0.0,0.0,0.0,0.0,0.0,0.0,0.0,0.0,0.0,0.0,0.0,0.0,0.0,0.0,0.0,0.0,0.0,0.0,0.0,0.0,0.0,0.0,0.0,0.0,0.0,0.0,0.0,0.0,0.0,0.0,0.0,0.0,0.0,0.0,0.0,0.0,0.0,0.0,1.5591,1.5625,1.6172,1.6647,1.683,1.681,1.6385,1.5541,0.0,0.0,0.0,0.0,0.0,0.0,0.0,0.0,0.0,0.0,0.0,0.0,0.0,0.0,0.0,0.0,0.0,0.0,0.0,0.0,0.0,0.0,0.0,0.0,0.0,0.0,0.0,0.0,0.0,0.0,0.0,0.0,0.0,0.0,0.0,0.0,0.0,0.0,0.0,0.0,0.0,0.0,0.0,0.0,0.0,0.0,0.0,0.0,0.0,0.0,0.0,0.0,0.0,0.0,0.0,0.0,0.0,0.0,0.0,0.0,0.0,0.0,0.0,0.0,0.0,0.0,0.0,0.0,0.0,0.0,0.0,0.0,0.0,0.0,0.0,0.0,0.0,0.0,0.0,0.0,0.0,0.0,0.0,0.0,0.0,0.0,0.0,0.0,0.0,0.0,0.0,0.0,0.0,0.0,0.0,0.0,0.0,0.0,0.0,0.0,0.0,0.0,0.0,0.0,1.6044,1.6184,1.6271,1.6447,1.6647,1.634,1.5951,1.5522,0.0,0.0,0.0,0.0,0.0,0.0,0.0,0.0,0.0,0.0,0.0,0.0,0.0,0.0,0.0,0.0,0.0,0.0,0.0,0.0,0.0,0.0,0.0,0.0,0.0,0.0,0.0,0.0,0.0,0.0,0.0,0.0,0.0,0.0,0.0,0.0,0.0,0.0,0.0,0.0,0.0,0.0,0.0,0.0,0.0,0.0,0.0,0.0,0.0,0.0,0.0,0.0,0.0,0.0,0.0,0.0,0.0,0.0,0.0,0.0,0.0,0.0,0.0,0.0,0.0,0.0,0.0,0.0,0.0,0.0,0.0,0.0,0.0,0.0,0.0,0.0,0.0,0.0,0.0,0.0,0.0,0.0,0.0,0.0,0.0,0.0,0.0,0.0,0.0,0.0,0.0,0.0,0.0,0.0,0.0,0.0,0.0,0.0,0.0,0.0,0.0,0.0,0.0,1.5867,1.6,1.6167,1.6202,1.6272,1.6403,1.6115,1.5688,1.5222,1.5008,0.0,0.0,0.0,0.0,0.0,0.0,0.0,0.0,0.0,0.0,0.0,0.0,0.0,0.0,0.0,0.0,0.0,0.0,0.0,0.0,0.0,0.0,0.0,0.0,0.0,0.0,0.0,0.0,0.0,0.0,0.0,0.0,0.0,0.0,0.0,0.0,0.0,0.0,0.0,0.0,0.0,0.0,0.0,0.0,0.0,0.0,0.0,0.0,0.0,0.0,0.0,0.0,0.0,0.0,0.0,0.0,0.0,0.0,0.0,0.0,0.0,0.0,0.0,0.0,0.0,0.0,0.0,0.0,0.0,0.0,0.0,0.0,0.0,0.0,0.0,0.0,0.0,0.0,0.0,0.0,0.0,0.0,0.0,0.0,0.0,0.0,0.0,0.0,0.0,0.0,0.0,0.0,0.0,0.0,0.0,0.0,0.0,0.0,0.0,0.0,0.0,0.0,1.5805,1.5867,1.6,1.6035,1.6096,1.6237,1.5919,1.5532,1.5068,1.4702,0.0,0.0,0.0,0.0,0.0,0.0,0.0,0.0,0.0,0.0,0.0,0.0,0.0,0.0,0.0,0.0,0.0,0.0,0.0,0.0,0.0,0.0,0.0,0.0,0.0,0.0,0.0,0.0,0.0,0.0,0.0,0.0,0.0,0.0,0.0,0.0,0.0,0.0,0.0,0.0,0.0,0.0,0.0,0.0,0.0,0.0,0.0,0.0,0.0,0.0,0.0,0.0,0.0,0.0,0.0,0.0,0.0,0.0,0.0,0.0,0.0,0.0,0.0,0.0,0.0,0.0,0.0,0.0,0.0,0.0,0.0,0.0,0.0,0.0,0.0,0.0,0.0,0.0,0.0,0.0,0.0,0.0,0.0,0.0,0.0,0.0,0.0,0.0,0.0,0.0,0.0,0.0,0.0,0.0,0.0,0.0,0.0,0.0,0.0,0.0,0.0,0.0,1.5805,1.5805,1.5841,1.5841,1.5903,1.6096,1.5756,1.5495,1.5469,1.5085,0.0,0.0,0.0,0.0,0.0,0.0,0.0,0.0,0.0,0.0,0.0,0.0,0.0,0.0,0.0,0.0,0.0,0.0,0.0,0.0,0.0,0.0,0.0,0.0,0.0,0.0,0.0,0.0,0.0,0.0,0.0,0.0,0.0,0.0,0.0,0.0,0.0,0.0,0.0,0.0,0.0,0.0,0.0,0.0,0.0,0.0,0.0,0.0,0.0,0.0,0.0,0.0,0.0,0.0,0.0,0.0,0.0,0.0,0.0,0.0,0.0,0.0,0.0,0.0,0.0,0.0,0.0,0.0,0.0,0.0,0.0,0.0,0.0,0.0,0.0,0.0,0.0,0.0,0.0,0.0,0.0,0.0,0.0,0.0,0.0,0.0,0.0,0.0,0.0,0.0,0.0,0.0,0.0,0.0,0.0,0.0,0.0,0.0,0.0,0.0,0.0,0.0,1.5805,1.5805,1.5805,1.5805,1.5832,1.5903,1.5541,1.5325,1.5325,0.0,0.0,0.0,0.0,0.0,0.0,0.0,0.0,0.0,0.0,0.0,0.0,0.0,0.0,0.0,0.0,0.0,0.0,0.0,0.0,0.0,0.0,0.0,0.0,0.0,0.0,0.0,0.0,0.0,0.0,0.0,0.0,0.0,0.0,0.0,0.0,0.0,0.0,0.0,0.0,0.0,0.0,0.0,0.0,0.0,0.0,0.0,0.0,0.0,0.0,0.0,0.0,0.0,0.0,0.0,0.0,0.0,0.0,0.0,0.0,0.0,0.0,0.0,0.0,0.0,0.0,0.0,0.0,0.0,0.0,0.0,0.0,0.0,0.0,0.0,0.0,0.0,0.0,0.0,0.0,0.0,0.0,0.0,0.0,0.0,0.0,0.0,0.0,0.0,0.0,0.0,0.0,0.0,0.0,0.0,0.0,0.0,0.0,0.0,0.0,0.0,0.0,1.5805,1.5805,1.5805,1.5805,1.5805,1.5805,1.5805,1.5557,1.5403,1.5403,0.0,0.0,0.0,0.0,0.0,0.0,0.0,0.0,0.0,0.0,0.0,0.0,0.0,0.0,0.0,0.0,0.0,0.0,0.0,0.0,0.0,0.0,0.0,0.0,0.0,0.0,0.0,0.0,0.0,0.0,0.0,0.0,0.0,0.0,0.0,0.0,0.0,0.0,0.0,0.0,0.0,0.0,0.0,0.0,0.0,0.0,0.0,0.0,0.0,0.0,0.0,0.0,0.0,0.0,0.0,0.0,0.0,0.0,0.0,0.0,0.0,0.0,0.0,0.0,0.0,0.0,0.0,0.0,0.0,0.0,0.0,0.0,0.0,0.0,0.0,0.0,0.0,0.0,0.0,0.0,0.0,0.0,0.0,0.0,0.0,0.0,0.0,0.0,0.0,0.0,0.0,0.0,0.0,0.0,0.0,0.0,0.0,0.0,0.0,0.0,0.0,0.0,1.5797,1.5797,1.5805,1.5805,1.5805,1.5805,1.5805,1.5805,1.5805,0.0,0.0,0.0,0.0,0.0,0.0,0.0,0.0,0.0,0.0,0.0,0.0,0.0,0.0,0.0,0.0,0.0,0.0,0.0,0.0,0.0,0.0,0.0,0.0,0.0,0.0,0.0,0.0,0.0,0.0,0.0,0.0,0.0,0.0,0.0,0.0,0.0,0.0,0.0,0.0,0.0,0.0,0.0,0.0,0.0,0.0,0.0,0.0,0.0,0.0,0.0,0.0,0.0,0.0,0.0,0.0,0.0,0.0,0.0,0.0,0.0,0.0,0.0,0.0,0.0,0.0,0.0,0.0,0.0,0.0,0.0,0.0,0.0,0.0,0.0,0.0,0.0,0.0,0.0,0.0,0.0,0.0,0.0,0.0,0.0,0.0,0.0,0.0,0.0,0.0,0.0,0.0,0.0,0.0,0.0,0.0,0.0,0.0,0.0,0.0,0.0,0.0,0.0,1.536,1.5625,1.5805,1.5805,1.5805,1.5805,1.5805,1.5805,1.5685,1.5403,0.0,0.0,0.0,0.0,0.0,0.0,0.0,0.0,0.0,0.0,0.0,0.0,0.0,0.0,0.0,0.0,0.0,0.0,0.0,0.0,0.0,0.0,0.0,0.0,0.0,0.0,0.0,0.0,0.0,0.0,0.0,0.0,0.0,0.0,0.0,0.0,0.0,0.0,0.0,0.0,0.0,0.0,0.0,0.0,0.0,0.0,0.0,0.0,0.0,0.0,0.0,0.0,0.0,0.0,0.0,0.0,0.0,0.0,0.0,0.0,0.0,0.0,0.0,0.0,0.0,0.0,0.0,0.0,0.0,0.0,0.0,0.0,0.0,0.0,0.0,0.0,0.0,0.0,0.0,0.0,0.0,0.0,0.0,0.0,0.0,0.0,0.0,0.0,0.0,0.0,0.0,0.0,0.0,0.0,0.0,0.0,0.0,0.0,0.0,0.0,0.0,0.0,1.5434,1.6119,1.6542,1.6281,1.6254,1.6254,1.6254,1.6254,1.6087,1.5657,0.0,0.0,0.0,0.0,0.0,0.0,0.0,0.0,0.0,0.0,0.0,0.0,0.0,0.0,0.0,0.0,0.0,0.0,0.0,0.0,0.0,0.0,0.0,0.0,0.0,0.0,0.0,0.0,0.0,0.0,0.0,0.0,0.0,0.0,0.0,0.0,0.0,0.0,0.0,0.0,0.0,0.0,0.0,0.0,0.0,0.0,0.0,0.0,0.0,0.0,0.0,0.0,0.0,0.0,0.0,0.0,0.0,0.0,0.0,0.0,0.0,0.0,0.0,0.0,0.0,0.0,0.0,0.0,0.0,0.0,0.0,0.0,0.0,0.0,0.0,0.0,0.0,0.0,0.0,0.0,0.0,0.0,0.0,0.0,0.0,0.0,0.0,0.0,0.0,0.0,0.0,0.0,0.0,0.0,0.0,0.0,0.0,0.0,0.0,0.0,0.0,0.0,1.5888,1.7001,1.7562,1.6961,1.6927,1.6927,1.6927,1.6858,1.6658,1.6263,0.0,0.0,0.0,0.0,0.0,0.0,0.0,0.0,0.0,0.0,0.0,0.0,0.0,0.0,0.0,0.0,0.0,0.0,0.0,0.0,0.0,0.0,0.0,0.0,0.0,0.0,0.0,0.0,0.0,0.0,0.0,0.0,0.0,0.0,0.0,0.0,0.0,0.0,0.0,0.0,0.0,0.0,0.0,0.0,0.0,0.0,0.0,0.0,0.0,0.0,0.0,0.0,0.0,0.0,0.0,0.0,0.0,0.0,0.0,0.0,2.6037,2.5529,0.0,0.0,0.0,0.0,0.0,0.0,0.0,0.0,0.0,0.0,0.0,0.0,0.0,0.0,0.0,0.0,0.0,0.0,0.0,0.0,0.0,0.0,0.0,0.0,0.0,0.0,0.0,0.0,0.0,0.0,0.0,0.0,0.0,0.0,0.0,0.0,0.0,0.0,0.0,0.0,1.6261,1.6796,1.7145,1.6985,1.6995,1.6995,1.6995,1.6632,1.6268,1.586,1.5394,0.0,0.0,0.0,0.0,0.0,0.0,0.0,0.0,0.0,0.0,0.0,0.0,0.0,0.0,0.0,0.0,0.0,0.0,0.0,0.0,0.0,0.0,0.0,0.0,0.0,0.0,0.0,0.0,0.0,0.0,0.0,0.0,0.0,0.0,0.0,0.0,0.0,0.0,0.0,0.0,0.0,0.0,0.0,0.0,0.0,0.0,0.0,0.0,0.0,0.0,0.0,0.0,0.0,0.0,0.0,0.0,0.0,0.0,0.0,2.7202,2.6553,0.0,0.0,0.0,0.0,0.0,0.0,0.0,0.0,0.0,0.0,0.0,0.0,0.0,0.0,0.0,0.0,0.0,0.0,0.0,0.0,0.0,0.0,0.0,0.0,0.0,0.0,0.0,0.0,0.0,0.0,0.0,0.0,0.0,0.0,0.0,0.0,0.0,0.0,0.0,0.0,1.6685,1.7449,1.7893,1.7564,1.7533,1.7533,1.7533,1.7316,1.6969,1.6528,1.6166,0.0,0.0,0.0,0.0,0.0,0.0,0.0,0.0,0.0,0.0,0.0,0.0,0.0,0.0,0.0,0.0,0.0,0.0,0.0,0.0,0.0,0.0,0.0,0.0,0.0,0.0,0.0,0.0,0.0,0.0,0.0,0.0,0.0,0.0,0.0,0.0,0.0,0.0,0.0,0.0,0.0,0.0,0.0,0.0,0.0,0.0,0.0,0.0,0.0,0.0,0.0,0.0,0.0,2.9221,2.9359,2.9359,2.9484,2.9532,2.952,2.914,2.8255,2.6948,2.5643,0.0,0.0,0.0,0.0,0.0,0.0,0.0,0.0,0.0,0.0,0.0,0.0,0.0,0.0,0.0,0.0,0.0,0.0,0.0,0.0,0.0,0.0,2.119,2.119,2.119,2.1348,2.1904,0.0,0.0,0.0,0.0,0.0,0.0,0.0,0.0,0.0,0.0,0.0,1.7355,1.8353,1.8822,1.8177,1.8107,1.8107,1.8107,1.8046,1.7816,1.7421,1.7126,1.6741,0.0,0.0,0.0,0.0,0.0,0.0,0.0,0.0,0.0,0.0,0.0,0.0,0.0,0.0,0.0,0.0,0.0,0.0,0.0,0.0,0.0,0.0,0.0,0.0,0.0,0.0,0.0,0.0,0.0,0.0,0.0,0.0,3.212,3.023,0.0,0.0,0.0,0.0,0.0,0.0,0.0,0.0,0.0,0.0,0.0,0.0,0.0,2.9351,2.9956,3.0459,3.0682,3.0694,3.1799,3.2337,3.2349,3.2979,3.3277,3.3277,3.3232,0.0,2.7905,2.5436,0.0,0.0,0.0,0.0,0.0,0.0,0.0,0.0,0.0,0.0,0.0,0.0,0.0,0.0,0.0,0.0,0.0,0.0,0.0,0.0,0.0,0.0,2.119,2.119,2.119,2.1213,2.1314,2.1267,2.108,2.0679,2.0037,1.9401,0.0,0.0,0.0,0.0,0.0,0.0,1.8674,1.88,1.8714,1.8158,1.8085,1.8085,1.8085,1.7779,1.755,1.7484,1.7062,1.6782,1.6722,1.6322,0.0,0.0,0.0,0.0,0.0,0.0,0.0,0.0,0.0,0.0,0.0,0.0,0.0,0.0,0.0,0.0,0.0,0.0,0.0,0.0,0.0,0.0,0.0,0.0,0.0,0.0,0.0,0.0,0.0,3.0299,3.073,2.8973,2.9693,2.953,0.0,0.0,0.0,0.0,0.0,0.0,0.0,0.0,0.0,3.1747,3.2645,3.3348,3.3879,3.4451,3.4695,3.4708,3.5258,3.5548,3.5548,3.5883,3.6,3.6,3.5856,3.4856,3.3001,2.9355,2.7374,2.6417,0.0,0.0,0.0,0.0,2.399,2.412,2.4014,2.3979,2.3979,2.3979,0.0,0.0,0.0,0.0,0.0,0.0,0.0,2.2057,2.1383,2.168,2.2045,2.136,2.119,2.119,2.119,2.119,2.1072,2.0638,2.03,1.9838,1.9034,1.9022,0.0,0.0,0.0,1.942,1.9373,1.9344,1.9137,1.8621,1.8563,1.8421,1.8134,1.7947,1.7838,1.7838,1.7645,1.7534,1.7534,1.734,1.7111,0.0,0.0,0.0,0.0,0.0,0.0,0.0,0.0,0.0,0.0,0.0,0.0,0.0,0.0,0.0,0.0,0.0,0.0,0.0,0.0,0.0,0.0,0.0,0.0,0.0,0.0,0.0,0.0,3.0288,3.0777,2.8839,3.0502,3.1023,0.0,0.0,0.0,0.0,0.0,0.0,3.1834,3.367,3.4922,3.5446,3.6156,3.6797,3.7342,3.7791,3.8009,3.8009,3.8009,3.8009,3.8009,3.8009,3.8009,3.8009,3.7824,3.7725,3.7365,3.2937,3.0446,2.9281,2.7442,2.6776,2.6764,2.6467,2.6458,2.656,2.6522,2.6522,2.6522,2.6522,2.656,2.6574,2.6431,0.0,0.0,0.0,0.0,2.3709,2.2174,2.2506,2.2863,2.1413,2.1106,2.1092,2.0966,2.0974,2.0925,2.0653,2.0607,2.032,1.9436,1.9608,0.0,1.9344,1.962,1.9884,1.9884,1.9884,1.9677,1.9149,1.8977,1.8747,1.8341,1.8192,1.8084,1.8084,1.8084,1.8084,1.8084,1.8084,1.7939,1.7576,0.0,0.0,0.0,0.0,0.0,0.0,0.0,0.0,0.0,0.0,0.0,0.0,0.0,0.0,0.0,0.0,0.0,0.0,0.0,0.0,0.0,0.0,0.0,0.0,0.0,0.0,0.0,0.0,0.0,3.2009,3.348,0.0,0.0,0.0,0.0,3.3878,3.408,3.4046,3.3867,3.5092,3.6007,3.6401,3.7624,3.8507,3.9061,3.9102,3.9115,3.9115,3.9115,3.9115,3.9115,3.9115,3.9115,3.9115,3.9115,3.9115,3.8753,3.4328,3.2479,3.2048,2.8679,2.7466,2.7584,2.7066,2.6961,2.7061,2.6923,2.686,2.686,2.686,2.6961,2.6964,2.653,2.6638,0.0,0.0,2.6322,2.6357,2.399,2.363,2.3328,2.1212,2.0818,2.0778,2.0356,2.0335,2.0584,2.1063,2.1155,2.0983,2.0423,0.0,2.0366,2.0343,2.0354,2.0377,2.0377,2.0377,2.0182,1.9711,1.9195,1.8885,1.885,1.8387,1.8084,1.8084,1.8084,1.8084,1.8084,1.8084,1.81,1.8077,1.81,0.0,0.0,0.0,0.0,0.0,0.0,0.0,0.0,0.0,0.0,0.0,0.0,0.0,0.0,0.0,0.0,0.0,0.0,0.0,0.0,0.0,0.0,0.0,0.0,0.0,0.0,0.0,0.0,3.4511,3.5896,0.0,3.4576,3.4467,3.4705,3.5229,3.6509,3.7228,3.7161,3.8896,3.9961,4.0106,4.0532,4.0872,4.1057,4.1057,4.1057,4.1057,4.1057,4.1057,4.1057,4.1057,4.1057,4.1057,4.1057,4.1057,4.0873,3.8683,3.7182,3.6146,3.4402,3.3379,3.2882,3.2748,3.2352,3.1877,3.2063,3.1747,3.1167,3.0601,3.0448,3.0257,2.8907,2.8624,2.8592,2.7791,2.8275,2.8862,2.7764,2.7167,2.6481,2.4985,2.3214,2.1963,2.2409,2.1709,2.117,2.1829,2.1038,2.0159,1.9975,1.9953,1.9838,1.9482,1.9723,1.9953,1.9953,2.0217,2.0228,1.9746,1.9803,1.9597,1.8954,1.8724,1.8455,1.8107,1.8084,1.8193,1.8398,1.8425,1.8506,1.8667,1.8667,1.864,0.0,0.0,0.0,0.0,0.0,0.0,0.0,0.0,0.0,0.0,0.0,0.0,0.0,0.0,0.0,0.0,0.0,0.0,0.0,0.0,0.0,0.0,0.0,0.0,0.0,3.5082,3.6587,3.5891,3.7489,3.8183,3.694,3.704,3.7394,3.7877,3.9188,3.9975,3.9975,4.134,4.2092,4.2092,4.2092,4.2092,4.2092,4.2092,4.2092,4.2092,4.2092,4.2092,4.2092,4.2092,4.2092,4.2092,4.2092,4.2092,4.2051,4.1395,4.052,3.9534,3.8119,3.7246,3.666,3.6507,3.6082,3.5562,3.5527,3.5029,3.4236,3.3687,3.3488,3.3271,3.2044,3.1688,3.154,3.0892,3.1355,3.1795,3.0771,2.9641,2.8413,2.6909,2.4584,2.2836,2.328,2.2553,2.1961,2.2487,2.1317,2.0251,2.0251,2.0251,2.0122,1.9732,1.9983,2.0244,2.0419,2.0649,2.0686,2.0381,2.0311,1.9977,1.9242,1.8848,1.8633,1.8679,1.8575,1.8655,1.9001,1.9001,1.8948,1.8854,1.9146,1.9377,1.9589,0.0,0.0,0.0,0.0,0.0,0.0,0.0,0.0,0.0,0.0,0.0,0.0,0.0,0.0,0.0,0.0,0.0,0.0,0.0,0.0,0.0,0.0,0.0,3.3067,3.6386,3.8189,3.6243,3.8337,3.9708,3.9058,3.9578,4.0567,4.2005,4.2092,4.2092,4.2092,4.2092,4.2092,4.2092,4.2092,4.2092,4.2092,4.2092,4.2092,4.2092,4.2092,4.2092,4.2092,4.2092,4.2092,4.2063,4.2092,4.2092,4.2063,4.2092,4.2092,4.1854,3.9462,3.8515,3.8403,3.7889,3.7699,3.7604,3.6879,3.6239,3.5642,3.5628,3.5601,3.5547,3.5547,3.5574,3.552,3.5332,3.544,3.5074,3.2833,3.0828,2.886,2.6791,2.4787,2.3212,2.2697,2.2711,2.284,2.2968,2.2082,2.1306,2.1356,2.1328,2.1308,2.1199,2.1194,0.0,2.1808,2.1747,2.1633,2.1635,2.0758,2.0071,1.9768,1.8807,1.8664,1.9747,1.9503,1.9477,1.9824,1.9824,1.9462,1.8682,1.9436,2.0373,2.1484,0.0,0.0,0.0,0.0,0.0,0.0,0.0,0.0,0.0,0.0,0.0,0.0,0.0,0.0,0.0,0.0,0.0,0.0,0.0,0.0,0.0,3.6309,3.887,3.7827,3.8952,4.0017,4.0542,4.112,4.1401,4.1227,4.1413,4.1659,4.2063,4.2092,4.2092,4.2092,4.2092,4.2092,4.2092,4.2092,4.2092,4.2092,4.2092,4.2092,4.2092,4.2092,4.2092,4.2092,4.2092,4.1831,4.1395,4.1889,4.1816,4.141,4.1903,4.2092,4.2036,4.1363,4.0647,4.0011,4.0106,3.9839,3.9218,3.798,3.7404,3.7061,3.5965,3.5303,3.4939,3.4939,3.4614,3.4339,3.4903,3.5131,3.5282,3.5741,3.3233,3.0615,3.0596,2.7419,2.4382,2.4461,2.3535,2.2741,2.2792,2.2115,2.1731,2.2424,2.2199,2.1716,2.0966,2.1463,2.1754,2.1252,2.2005,2.2537,2.2292,2.2276,2.1898,2.1002,2.0665,2.0382,2.0118,2.0004,2.0131,2.0497,2.0535,2.0572,2.062,2.0658,2.0911,0.0,0.0,0.0,0.0,0.0,0.0,0.0,0.0,0.0,0.0,0.0,0.0,0.0,0.0,0.0,0.0,0.0,0.0,0.0,0.0,0.0,0.0,3.9076,4.208,4.1701,4.1435,4.1584,4.2412,4.2433,4.2325,4.2242,4.2242,4.2216,4.2092,4.2092,4.2208,4.2455,4.2469,4.26,4.2876,4.289,4.276,4.2469,4.2469,4.2339,4.2092,4.2092,4.2092,4.2092,4.2092,4.1889,4.1512,4.1628,4.1453,4.1134,4.1512,4.1671,4.17,0.0,0.0,0.0,0.0,4.1091,4.0387,3.9559,3.9085,3.8623,3.7473,3.6881,3.6479,3.5962,3.5505,3.5269,3.5484,3.5522,3.5768,3.6671,3.3835,3.0848,3.1315,2.7883,2.4549,2.4704,2.417,2.3573,2.3348,2.3134,0.0,2.3326,2.2578,2.1733,2.1079,2.1588,2.1877,2.1507,2.2125,2.2457,2.2006,2.195,2.1676,2.0926,2.0626,0.0,0.0,0.0,2.0856,2.1188,2.0908,0.0,0.0,0.0,2.1612,2.2369,2.2201,0.0,0.0,2.2393,2.1995,0.0,0.0,0.0,0.0,0.0,0.0,0.0,0.0,0.0,0.0,0.0,0.0,0.0,0.0,0.0,0.0,4.1651,4.4079,4.4562,4.3681,4.2964,4.2743,4.2729,4.2651,4.2576,4.255,4.2497,4.2337,4.2351,4.2584,4.3079,4.3108,0.0,0.0,0.0,4.3703,4.3108,4.3108,4.2832,4.231,4.2237,4.2194,4.2194,4.2121,4.2049,4.1961,4.1439,4.112,4.0989,4.1062,4.1091,4.1163,4.1831,4.2092,4.2092,4.2092,4.1715,4.1192,4.112,0.0,0.0,3.9509,3.9204,3.887,3.7665,3.7201,3.6954,3.6286,3.6098,3.6112,3.6185,3.3157,3.0117,3.0189,2.7087,2.4064,2.3994,2.4416,2.4613,2.3994,2.4292,2.4437,2.3763,2.2649,2.1762,2.1562,2.1797,2.2087,2.2232,2.2271,2.2108,2.152,2.0972,0.0,2.0422,1.9762,2.0075,2.1631,2.1458,2.1407,2.1647,2.0976,2.0952,2.167,2.1641,2.2216,2.3448,2.3544,2.3587,2.3549,2.2227,2.1787,0.0,0.0,0.0,0.0,0.0,0.0,0.0,0.0,0.0,0.0,0.0,0.0,0.0,0.0,0.0,3.9669,4.2918,4.5316,4.5334,4.5093,4.4479,4.3095,4.2809,4.2895,4.3384,4.3428,4.3581,4.3856,4.3858,4.3873,4.379,4.3805,4.3863,4.3993,4.3993,4.3921,4.3805,4.3805,4.3732,4.3616,4.3079,0.0,4.2803,4.2324,4.1802,4.1308,4.1729,4.1279,4.0336,4.0873,4.1091,4.1163,4.1831,4.2092,4.2092,4.2092,4.202,4.1831,4.1279,4.1018,4.08,4.0133,3.9233,3.826,3.7535,3.6577,0.0,3.4965,3.4777,3.4893,3.545,3.2493,2.9528,3.0088,2.7087,2.3952,2.3417,2.3378,2.3256,2.2542,2.2418,2.2339,2.2083,2.2837,2.316,2.2336,2.2944,2.325,2.26,2.3128,2.346,2.3169,2.2508,2.2128,2.2191,2.1155,2.0753,2.1358,2.0954,2.0695,2.0753,2.0695,2.0739,2.0904,2.1364,2.1721,2.202,2.2543,2.281,2.2824,2.3008,2.2814,0.0,0.0,0.0,0.0,0.0,0.0,0.0,0.0,0.0,0.0,0.0,3.6202,3.6495,0.0,4.2206,4.2493,4.557,4.7793,4.7315,4.7251,4.6483,4.4398,4.4058,4.4068,4.4326,4.4356,4.4379,4.4507,4.4494,4.4583,4.4805,4.4776,4.4937,4.5274,4.5288,4.5127,4.4776,4.4776,4.463,4.4366,4.4051,4.3643,4.3188,4.2913,4.2375,4.1639,4.1909,4.1489,4.0597,4.0597,4.08,4.1134,4.1468,4.1802,4.2092,4.2092,4.2092,4.2049,4.1715,4.1599,4.1482,4.0815,4.0176,3.9407,3.8144,3.7099,3.6141,3.5154,3.4661,3.4486,3.4806,3.2616,3.0122,2.943,2.6915,2.4332,2.2963,2.2887,2.2891,2.2132,2.2474,2.2574,2.1736,2.2531,2.2945,2.2029,2.2427,2.2696,2.2269,2.2637,2.2815,2.247,2.1856,2.1476,2.1532,2.0903,2.069,2.1176,2.0608,2.0279,2.0344,2.0408,2.0465,2.0465,2.0848,2.1182,2.1449,2.1843,2.2201,2.25,2.2743,2.2691,0.0,0.0,0.0,0.0,0.0,0.0,0.0,3.8205,3.8347,4.0639,4.0906,4.0783,4.0929,4.334,4.5359,4.5506,4.8148,4.9944,4.9287,4.9179,4.8424,4.6387,4.5945,4.5813,4.5729,4.5759,4.5721,4.5622,4.5622,4.5804,4.6254,4.6128,4.6266,4.6814,4.6668,4.6417,4.6013,4.6057,4.5875,4.5565,4.5511,4.5072,4.4317,4.4097,4.3578,4.2861,4.246,4.2,4.1523,4.0744,4.0788,4.1366,4.1418,4.1799,4.2338,4.2158,4.2092,4.2092,4.2092,4.2175,4.2155,4.1509,4.1288,4.0931,3.9126,3.797,3.7056,3.5915,3.5097,3.4582,3.4582,3.3042,3.1031,2.8944,2.685,2.4731,2.2663,2.2587,2.275,2.2151,2.2902,2.3241,2.1983,2.227,2.2363,2.1515,2.1592,2.1722,2.1722,2.1841,2.1778,2.1405,2.0876,2.0449,2.021,2.0104,2.0179,2.0542,1.998,1.9695,1.9802,1.9802,1.9802,1.9802,2.0105,2.0549,2.1088,2.1355,2.1767,2.237,2.2254,2.2254,3.6588,3.6931,3.8377,3.8728,3.9694,4.0762,0.0,4.1102,4.0705,4.1054,4.1521,4.2114,4.2769,4.4876,4.6716,4.7375,4.8993,5.0126,4.9913,4.9883,4.9759,4.9347,4.8301,4.7797,4.8333,4.838,4.8553,4.8925,4.8972,4.8882,4.8711,4.7958,4.7613,4.7646,4.6989,4.6915,4.7525,4.7568,4.7928,4.8587,4.8064,4.7753,4.7634,4.6376,4.5732,4.5556,4.4002,4.3278,4.3142,4.2114,4.1923,4.2288,4.2592,4.2917,4.3168,4.2375,4.2092,4.2092,4.2092,4.2474,4.2795,4.2196,4.1975,4.1632,4.0275,3.8681,3.7157,3.6417,3.5659,3.5103,3.5103,3.3556,3.1515,2.947,2.712,2.4731,2.2663,2.225,2.2292,2.2184,2.2446,2.2591,2.2426,2.2652,2.2543,2.1544,2.1423,2.1447,2.1447,2.1568,2.1623,2.1568,2.1241,2.0614,1.96,1.9426,1.9175,1.8653,1.8484,1.8396,1.8416,1.8416,1.8416,1.8416,1.9099,1.9733,2.0312,2.1004,2.1626,2.2231,2.2208,2.2208,4.1167,4.0575,4.0348,4.1832,4.2631,4.3259,4.3984,4.3918,4.4229,4.6022,4.6631,4.6929,4.7242,4.8448,4.9473,4.9788,5.0749,5.1456,5.1399,5.1412,5.1365,5.1331,5.0843,5.0214,4.9464,4.9378,4.945,4.9671,4.9269,4.8993,4.8883,4.8112,4.7656,4.7656,4.7752,4.7952,4.8302,4.8746,4.915,4.9496,4.9326,4.8939,4.8334,4.7389,4.6623,4.5987,4.4861,4.4377,4.4275,4.3051,4.2613,4.2705,4.2433,4.2901,4.3658,4.3265,4.317,4.317,4.317,4.3314,4.3497,4.3235,4.312,4.2956,4.2064,4.098,3.9725,3.8271,3.7368,3.6637,3.5804,3.496,3.3486,3.0199,2.8586,2.6879,2.3572,2.2836,2.2836,2.2836,2.3194,2.3348,2.2925,2.3217,2.3241,2.2385,2.2273,2.2203,2.202,2.2063,2.1875,2.1248,2.0869,2.0386,1.9804,1.9219,1.8865,1.8781,1.8508,1.8392,1.8431,1.8649,1.8769,1.8769,1.9152,1.9611,2.0085,2.0971,2.1707,2.2279,2.2774,2.3001,4.2657,4.237,4.2045,4.4329,4.5357,4.597,4.6713,4.6878,4.7522,4.9739,5.0369,5.0502,5.0502,5.1098,5.1614,5.1614,5.2061,5.2409,5.2409,5.2409,5.2409,5.2409,5.2409,5.1891,5.0653,5.0522,5.0522,5.0522,4.9827,4.9427,4.9427,4.8477,4.7945,4.7945,4.8247,4.85,4.8745,4.9483,4.9965,5.0233,5.0524,5.0272,4.9559,4.8695,4.7783,4.6805,4.6001,4.5654,4.556,4.4288,4.3718,4.3551,4.2942,4.3352,4.4299,4.4402,4.4281,4.4066,4.4066,4.4105,4.4105,4.3966,4.3989,4.4029,4.3427,4.2666,4.1638,3.9757,3.8769,3.7892,3.65,3.6117,3.5064,3.0822,2.9723,2.8442,2.4207,2.3304,2.3326,2.3326,2.3778,2.4037,2.3696,2.3874,2.3963,2.3622,2.3393,2.3091,2.2586,2.2572,2.2254,2.1365,2.085,2.0441,2.0138,1.9315,1.8911,1.9162,1.8866,1.8688,1.8745,1.9016,1.9165,1.9165,1.9291,1.9591,2.0064,2.0794,2.1578,2.2344,2.2974,2.3394,3.8328,4.0306,4.245,4.5266,4.7485,4.9127,4.9871,5.0037,5.007,5.0187,5.0767,5.1282,5.1282,5.1879,5.2393,5.2393,5.2409,5.2409,5.2409,5.2409,5.2409,5.2409,5.2409,5.2373,5.2338,5.2338,5.2338,5.2338,5.1643,5.1229,5.1229,4.973,4.8877,4.8877,4.8073,4.8052,4.8873,4.9636,5.0411,5.1262,5.1974,5.2305,5.2219,5.0764,4.9705,4.8927,4.7833,4.7321,4.7239,4.6152,4.5537,4.5195,4.4854,4.4935,4.5309,4.5614,4.5203,4.4464,4.4464,4.4608,4.4662,4.4066,4.4297,4.4662,4.4051,4.2993,4.1693,4.0274,3.9324,3.8443,3.7049,3.6693,3.5625,3.1378,2.9989,2.8442,2.4207,2.3334,2.3384,2.3384,2.3732,2.421,2.4832,2.4594,2.4506,2.5115,2.4675,2.3931,2.3001,2.2889,2.2695,2.2217,2.1633,2.1025,2.0444,1.9756,1.9384,1.9398,1.9195,1.9082,1.9082,1.9101,1.9101,1.9101,1.9165,1.9524,2.0196,2.0279,2.106,2.2399,2.2435,2.2855,4.0978,4.3278,4.5563,4.8243,4.9543,5.0293,5.0819,5.1003,5.1187,5.158,5.0615,4.9703,4.9703,4.9901,5.0066,5.0066,5.1394,5.2409,5.2409,5.2409,5.2409,5.2409,5.2409,5.2409,5.2409,5.2409,5.2409,5.2409,5.173,5.1315,5.1315,4.9864,4.9017,4.9017,4.8742,4.8987,4.9739,5.0481,5.1248,5.2045,5.2293,5.2161,5.1647,5.0651,4.9806,4.9061,4.8183,4.7787,4.7721,4.6897,4.6453,4.6236,4.5169,4.5102,4.5643,4.5778,4.5749,4.5736,4.5987,4.5949,4.5769,4.5551,4.5473,4.5447,4.521,4.4861,4.4226,4.2817,4.1565,4.0335,3.8921,3.7901,3.6489,3.3603,3.1674,2.9693,2.688,2.5068,2.4015,2.4114,2.4234,2.4394,2.4625,2.4549,2.4477,2.461,2.4189,2.376,2.3523,2.3028,2.2515,2.2049,2.1579,2.0967,2.0207,1.9809,1.9298,1.8582,1.8643,1.8699,1.8699,1.8962,1.9364,1.9887,1.9922,2.0066,2.0332,2.0937,2.1491,2.2025,2.3091,2.3748,4.3479,4.5593,4.7533,5.0242,5.1011,5.1212,5.1654,5.182,5.1988,5.2345,5.0531,4.8975,4.9222,4.8397,4.7803,4.8313,4.9453,5.0545,5.1392,5.1508,5.1742,5.2324,5.2409,5.2409,5.2409,5.2409,5.2409,5.2409,5.173,5.1315,5.1315,5.0154,4.9508,4.9508,4.9508,4.9723,5.022,5.0916,5.168,5.2409,5.2409,5.2161,5.168,5.0916,5.0187,4.9458,4.8713,4.8249,4.7968,4.7487,4.7139,4.6808,4.5847,4.5599,4.5798,4.5798,4.6118,4.6569,4.694,4.6842,4.6512,4.6512,4.6282,4.5992,4.5992,4.59,4.5523,4.4082,4.2884,4.1604,3.9929,3.8681,3.7229,3.4781,3.2709,3.0679,2.8553,2.6361,2.4828,2.4911,2.4751,2.4678,2.4927,2.4896,2.4756,2.441,2.4057,2.3888,2.3967,2.3546,2.2904,2.2117,2.1833,2.1255,2.024,2.0025,1.9547,1.8592,1.8651,1.86,1.8326,1.8576,1.8954,1.9481,1.9464,1.9531,1.9664,2.0215,2.0693,2.1127,2.242,2.3287,4.5483,4.7221,4.8471,5.1195,5.1882,5.1998,5.2492,5.2624,5.2572,5.2295,5.0367,4.8859,4.9402,4.7243,4.5782,4.716,4.6996,4.7473,4.9715,5.0047,5.061,5.2208,5.2409,5.2409,5.2409,5.2409,5.2409,5.2409,5.1763,5.1365,5.1365,5.0651,5.027,5.027,5.0237,5.0237,5.027,5.0982,5.173,5.2409,5.2409,5.2409,5.2393,5.1647,5.0883,5.0171,4.9425,4.868,4.8001,4.8001,4.7587,4.6941,4.6908,4.6444,4.5798,4.5798,4.6228,4.6909,4.7243,4.7186,4.6927,4.6927,4.6668,4.6321,4.6321,4.612,4.5559,4.4231,4.3329,4.2335,4.0309,3.917,3.7907,3.514,3.3164,3.1316,2.9237,2.7167,2.5747,2.5747,2.5233,2.5033,2.5623,2.5565,2.522,2.4586,2.4349,2.4271,2.4302,2.4302,2.3794,2.2443,2.2365,2.1845,2.0514,2.0388,2.0078,1.9333,1.9126,1.8722,1.8034,1.7973,1.7973,1.802,1.8051,1.8129,1.8331,1.8331,1.8827,1.9797,2.0528,2.1642,4.7757,4.97,5.139,5.2556,5.296,5.3011,5.287,5.2938,5.252,5.0677,4.785,4.5393,4.4408,4.4416,4.4895,4.5782,4.8726,5.1094,5.1692,5.1775,5.1907,5.234,5.2409,5.2409,5.2409,5.2409,5.2409,5.2409,5.2243,5.2127,5.2127,5.1431,5.0999,5.0999,5.0502,5.0469,5.0999,5.1728,5.2227,5.2409,5.2409,5.2409,5.2393,5.1647,5.0883,5.0171,4.9425,4.868,4.8001,4.8001,4.7885,4.7669,4.7106,4.6444,4.5798,4.5798,4.5914,4.6179,4.6811,4.7144,4.727,4.727,4.7032,4.6738,4.6738,4.6668,4.6534,4.618,4.5216,4.412,4.3605,4.158,3.9505,3.8772,3.5185,3.1774,3.1309,2.8583,2.6229,2.628,2.5765,2.5233,2.4957,2.4828,2.4658,2.4374,2.3907,2.3748,2.4241,2.4302,2.3794,2.2443,2.2324,2.1787,2.0445,2.0321,1.9994,1.9202,1.86,1.8266,1.8238,1.77,1.776,1.8514,1.853,1.8605,1.8752,1.8752,1.8965,1.936,2.0103,2.0925,4.9965,5.1623,5.2909,5.323,5.3433,5.3163,5.185,5.1648,5.1009,4.8617,4.5796,4.3608,4.3052,4.3218,4.3758,4.4794,4.7655,5.0114,5.1159,5.1291,5.1574,5.2307,5.2409,5.2409,5.2409,5.2409,5.2409,5.2409,5.2409,5.2409,5.2409,5.2028,5.1796,5.1796,5.138,5.1347,5.1796,5.221,5.2409,5.2409,5.2409,5.2409,5.2409,5.1978,5.1363,5.0634,4.9906,4.9177,4.8465,4.8133,4.8001,4.7968,4.7537,4.6924,4.6228,4.5914,4.5798,4.5847,4.6262,4.6746,4.7243,4.7556,4.7421,4.7116,4.7116,4.7014,4.6876,4.6876,4.6117,4.5177,4.4902,4.304,4.114,4.0849,3.6813,3.3061,3.3156,2.9857,2.6809,2.6627,2.6057,2.5555,2.5309,2.4853,2.4544,2.4553,2.4085,2.3871,2.4256,2.404,2.3579,2.2809,2.2547,2.2,2.0916,2.056,2.0096,1.9415,1.8592,1.8084,1.7957,1.7245,1.7117,1.7681,1.7696,1.778,1.793,1.793,1.8056,1.8294,1.8993,1.9884,5.1911,5.2976,5.3501,5.3501,5.3501,5.2875,5.0416,4.983,4.9091,4.6371,4.4098,4.2727,4.3165,4.2763,4.2838,4.4342,4.5926,4.7704,4.9931,5.0228,5.0777,5.2224,5.2409,5.2409,5.2409,5.2409,5.2409,5.2409,5.2409,5.2409,5.2409,5.2409,5.2409,5.2409,5.2409,5.2409,5.2409,5.2409,5.2409,5.2409,5.2409,5.2409,5.2409,5.2409,5.2011,5.1265,5.0518,4.979,4.9044,4.8299,4.8001,4.8001,4.8001,4.7554,4.6808,4.6063,4.5798,4.5781,4.5682,4.6195,4.7023,4.7769,4.777,4.7488,4.7488,4.7286,4.7064,4.7064,4.6609,4.5975,4.5391,4.4155,4.2873,4.2109,3.8325,3.4818,3.4722,3.113,2.7689,2.7038,2.6491,2.6146,2.6238,2.5449,2.4856,2.5021,2.4619,2.4297,2.4369,2.3855,2.3434,2.3341,2.2928,2.2337,2.1619,2.0935,2.0344,1.9877,1.8983,1.8298,1.7867,1.7027,1.6591,1.6645,1.6537,1.6583,1.6763,1.6763,1.6869,1.7111,1.7711,1.875,5.301,5.3399,5.3501,5.3501,5.3501,5.2909,5.0576,5.0052,4.8872,4.4727,4.2891,4.173,4.0605,4.1672,4.3331,4.5237,4.7884,5.0222,5.1761,5.1957,5.2092,5.2357,5.2409,5.2409,5.2409,5.2409,5.2409,5.2409,5.2409,5.2409,5.2409,5.2409,5.2409,5.2409,5.2409,5.2409,5.2409,5.2409,5.2409,5.2409,5.2409,5.2409,5.2409,5.2409,5.2011,5.1265,5.0518,4.979,4.9044,4.8299,4.8001,4.8001,4.8001,4.7554,4.6808,4.6063,4.5798,4.5698,4.5086,4.5765,4.7023,4.7769,4.7968,4.7902,4.7902,4.7853,4.7803,4.7803,4.7704,4.7605,4.749,4.6174,4.4751,4.4014,4.0206,3.6566,3.5943,3.27,2.953,2.8269,2.7854,2.7563,2.7158,2.6438,2.5901,2.5803,2.4843,2.4321,2.4808,2.4576,2.416,2.362,2.3139,2.2575,2.1883,2.1171,2.0714,2.062,1.9877,1.9499,1.9645,1.83,1.7657,1.7879,1.7294,1.7007,1.7029,1.7029,1.7041,1.7095,1.7209,1.8061,5.3399,5.3501,5.3501,5.3501,5.3501,5.2604,4.9154,4.8376,4.7107,4.2608,4.1295,4.0761,4.0027,4.1611,4.3315,4.4282,4.7476,5.0059,5.0705,5.1732,5.2409,5.2409,5.2409,5.2409,5.2409,5.2409,5.2409,5.2409,5.2409,5.2409,5.2409,5.2409,5.2409,5.2409,5.2409,5.2409,5.2409,5.2409,5.2409,5.2409,5.2409,5.2409,5.2409,5.2409,5.2227,5.1829,5.0701,5.0005,4.9607,4.8465,4.8001,4.8001,4.8001,4.7785,4.7338,4.6195,4.5798,4.5682,4.4967,4.5152,4.593,4.7057,4.7686,4.8001,4.8001,4.8001,4.8001,4.8001,4.8001,4.8001,4.8001,4.7092,4.6005,4.5263,4.1089,3.6869,3.5255,3.2807,3.0624,2.9589,2.9073,2.8528,2.7608,2.6798,2.6154,2.5901,2.5144,2.4726,2.5001,2.5005,2.48,2.4375,2.3882,2.3294,2.2579,2.1879,2.1357,2.1087,2.0305,1.9969,2.0197,1.9122,1.8601,1.8722,1.8,1.7614,1.7614,1.7273,1.7273,1.7614,1.7614,1.8421,5.3467,5.3467,5.3501,5.3501,5.3501,5.2334,4.7817,4.6786,4.5517,4.1027,4.0096,4.0096,4.0096,4.1555,4.289,4.3138,4.6143,4.8659,4.921,5.0855,5.2061,5.2376,5.2409,5.2409,5.2409,5.2409,5.2409,5.2409,5.2409,5.2409,5.2409,5.2409,5.2409,5.2409,5.2409,5.2409,5.2409,5.2409,5.2409,5.2409,5.2409,5.2409,5.2409,5.2409,5.2409,5.2343,5.085,5.022,5.0104,4.8614,4.8001,4.8001,4.8001,4.8001,4.7819,4.6344,4.5798,4.5665,4.4771,4.4556,4.487,4.6046,4.7023,4.7785,4.7951,4.8001,4.8001,4.8001,4.8001,4.8001,4.8001,4.757,4.6825,4.5616,4.1584,3.7286,3.4736,3.2932,3.163,3.0934,3.0298,2.952,2.8537,2.7533,2.674,2.6425,2.5857,2.5486,2.5447,2.5413,2.5317,2.5158,2.4617,2.4019,2.344,2.2641,2.197,2.1568,2.0748,2.0362,2.053,1.9818,1.9443,1.9457,1.8729,1.8356,1.8356,1.7847,1.7864,1.8356,1.8356,1.907,5.3264,5.3348,5.3501,5.3501,5.3501,5.2334,4.7817,4.6786,4.5517,4.1027,4.0096,4.0096,4.0096,4.0798,4.1784,4.2997,4.4639,4.6602,4.896,5.0025,5.1055,5.226,5.2409,5.2409,5.2409,5.2409,5.2409,5.2409,5.2409,5.2409,5.2409,5.2409,5.2409,5.2409,5.2409,5.2409,5.2409,5.2409,5.2409,5.2409,5.2409,5.2409,5.2409,5.2409,5.2409,5.2343,5.085,5.022,5.0104,4.8614,4.8001,4.8001,4.8001,4.8001,4.7819,4.6344,4.5798,4.5599,4.4208,4.4141,4.4735,4.4854,4.5847,4.7123,4.7802,4.8001,4.8001,4.8001,4.8001,4.8001,4.8001,4.7951,4.7222,4.4442,4.184,3.9101,3.6102,3.426,3.297,3.2208,3.1453,3.0916,3.0809,2.9594,2.863,2.854,2.7505,2.6678,2.6568,2.6046,2.5642,2.5543,2.4899,2.4448,2.4384,2.3154,2.2345,2.2297,2.1601,2.1212,2.1305,2.0578,2.0221,2.0279,1.9563,1.9188,1.9188,1.9192,1.9192,1.9188,1.9188,1.9628,5.2893,5.3348,5.3501,5.3501,5.2469,5.0625,4.7496,4.5737,4.3876,4.0756,4.0096,4.0096,4.0096,4.035,4.0713,4.1244,4.2884,4.4454,4.5483,4.7318,4.9026,5.0374,5.0921,5.1501,5.2326,5.2409,5.2409,5.2409,5.2409,5.2409,5.2409,5.2409,5.2409,5.2409,5.2409,5.2409,5.2409,5.2409,5.2409,5.2409,5.2409,5.2409,5.2409,5.2409,5.2409,5.2343,5.085,5.022,5.0104,4.8614,4.8001,4.8001,4.8001,4.8001,4.7819,4.6344,4.5798,4.5582,4.4095,4.378,4.4125,4.4556,4.5384,4.6378,4.7106,4.7653,4.8001,4.8001,4.8001,4.8001,4.8001,4.7669,4.6924,4.5317,4.2497,3.9754,3.818,3.5835,3.3858,3.3184,3.2737,3.207,3.0778,3.0075,2.9405,2.8559,2.7941,2.7565,2.7601,2.7261,2.686,2.6488,2.5715,2.5025,2.4549,2.4067,2.3385,2.2475,2.2118,2.1762,2.1356,2.105,2.0904,2.095,2.0268,1.9911,1.9911,1.9528,1.9556,1.9968,1.9994,2.0415,5.1731,5.2842,5.3501,5.3501,5.1792,4.9458,4.7022,4.4891,4.2699,4.0282,3.996,4.0096,4.0096,4.0096,4.0096,4.0096,4.1514,4.2739,4.3121,4.5056,4.6982,4.8526,4.9176,5.0142,5.1737,5.2231,5.2445,5.2409,5.2409,5.2409,5.2409,5.2409,5.2409,5.2409,5.2409,5.2409,5.2409,5.2409,5.2409,5.2409,5.2409,5.2409,5.2409,5.2409,5.2409,5.2307,5.1065,5.0402,5.0121,4.8845,4.8199,4.8001,4.8001,4.8001,4.7819,4.6344,4.5798,4.5582,4.4095,4.3598,4.3681,4.4208,4.487,4.5599,4.6344,4.7239,4.8001,4.8001,4.8082,4.8212,4.8212,4.794,4.7352,4.6277,4.3311,4.0393,3.9179,3.6437,3.4118,3.3679,3.3329,3.2613,3.1106,3.0598,3.0048,2.9045,2.8649,2.854,2.8719,2.8459,2.8048,2.7473,2.6874,2.6092,2.4997,2.479,2.427,2.3191,2.2687,2.22,2.1681,2.1422,2.1293,2.1293,2.0855,2.0627,2.0627,2.0181,2.0256,2.0762,2.0805,2.1113,4.9693,5.1644,5.3501,5.3501,5.1792,4.9323,4.638,4.4519,4.2564,3.9614,3.9605,4.0096,4.0096,4.0096,4.0096,4.0096,4.073,4.1692,4.3014,4.3861,4.5068,4.7082,4.7318,4.8219,5.0493,5.1844,5.2535,5.2409,5.2409,5.2409,5.2409,5.2409,5.2409,5.2409,5.2409,5.2409,5.2409,5.2409,5.2409,5.2409,5.2409,5.2409,5.2409,5.2409,5.2409,5.2376,5.163,5.0866,5.0154,4.9409,4.8663,4.8001,4.8001,4.8001,4.7819,4.6344,4.5798,4.5582,4.4095,4.3598,4.3598,4.3598,4.4125,4.4868,4.5582,4.6841,4.8001,4.8001,4.8324,4.8702,4.8702,4.9026,4.889,4.695,4.418,4.1251,3.8596,3.5679,3.3604,3.3604,3.2952,3.2407,3.239,3.1541,3.0809,3.0534,2.9965,2.968,2.9939,2.9458,2.8908,2.8439,2.8441,2.7767,2.6032,2.5209,2.4783,2.4783,2.334,2.2508,2.2492,2.1713,2.1293,2.1293,2.1355,2.1385,2.1385,2.151,2.1588,2.1588,2.1588,2.1588,4.6969,4.8206,4.8917,4.8917,4.6819,4.4519,4.3589,4.183,4.0138,3.9191,3.9605,4.0096,4.0096,4.0096,4.0221,4.0531,4.0786,4.1363,4.2687,4.446,4.6343,4.8418,5.053,5.1911,5.2167,5.2427,5.257,5.2535,5.2445,5.2409,5.2409,5.2409,5.2409,5.2409,5.2409,5.2409,5.2409,5.2409,5.2409,5.2409,5.2409,5.2409,5.2409,5.2409,5.2409,5.2376,5.163,5.0866,5.0154,4.9409,4.868,4.8001,4.8001,4.8001,4.7819,4.6344,4.5798,4.5582,4.4095,4.3598,4.3598,4.3598,4.4108,4.4721,4.497,4.6079,4.7355,4.7868,4.8324,4.8702,4.8702,4.9057,4.9044,4.7578,4.5382,4.2825,4.0095,3.7505,3.5448,3.4519,3.4069,3.3632,3.2945,3.2542,3.2048,3.1187,3.0878,3.0823,3.1014,3.0791,3.0394,2.9844,2.9704,2.88,2.6692,2.6332,2.5888,2.511,2.4613,2.4231,2.3947,2.368,2.3311,2.2824,2.3401,2.3048,2.1661,2.2353,2.2308,2.1604,2.1797,2.1855,4.3721,4.5431,4.6312,4.6024,4.4113,4.2151,4.1593,4.0189,3.8977,3.8864,3.9661,4.0427,4.0587,4.0635,4.0713,4.1019,4.1047,4.1655,4.3365,4.4859,4.6618,4.8868,5.1563,5.3058,5.2586,5.2927,5.3179,5.3247,5.3076,5.2886,5.2677,5.2535,5.2445,5.2409,5.2409,5.2409,5.2409,5.2409,5.2409,5.2409,5.2409,5.2409,5.2409,5.2409,5.2409,5.2393,5.1928,5.1131,0.0,4.9707,4.8928,4.8001,4.8001,4.8001,4.7819,4.6344,4.5798,4.5582,4.4095,4.3598,4.3628,4.3805,4.4377,4.493,4.4749,4.5715,4.7022,4.7663,4.8406,4.8995,4.9161,4.9598,4.9642,4.845,4.6453,4.3956,4.0748,3.8032,3.5819,3.4534,3.3834,3.3356,3.3044,3.284,3.2403,3.1581,3.1451,3.1543,3.1801,3.1783,3.1484,3.0946,3.0822,2.9914,2.7815,2.7361,2.6887,2.6131,2.5564,2.521,2.5018,2.4741,2.4381,2.392,2.4504,2.4179,2.2925,2.3108,2.269,2.1708,2.1897,2.2041,0.0,4.2929,4.4993,4.4282,4.3024,4.1559,4.0231,3.9411,0.0,3.8699,3.9807,4.0949,4.1415,4.1503,4.1503,4.1547,4.16,4.2506,4.4941,4.5576,4.6685,4.9059,5.1182,5.2408,5.2178,5.339,5.4247,5.4454,5.4121,5.3682,5.3179,5.28,5.2535,5.2409,5.2409,5.2409,5.2409,5.2409,5.2409,5.2409,5.2409,5.2409,5.2409,5.2409,5.2409,5.2409,5.2409,5.158,5.0238,5.0238,4.9359,4.8066,4.8066,4.8033,4.7819,4.6344,4.5798,4.5582,4.4155,4.3658,4.37,4.4167,4.4764,4.5219,4.4757,4.5649,4.6935,4.7385,4.8361,4.9355,4.9901,5.0422,5.0546,4.9437,4.7463,4.482,4.0976,3.7805,3.531,3.4087,3.2724,3.2071,3.2852,3.2588,3.2145,3.1797,3.1749,3.1912,3.2336,3.2406,3.2232,3.1804,3.1749,3.1071,2.9342,2.8315,2.7701,2.751,2.6269,2.5644,2.585,2.5195,2.4814,2.4763,2.4805,2.4834,2.4834,2.3757,2.2778,2.1926,2.2013,2.2215,3.6715,0.0,3.9698,3.9529,3.8768,3.8142,0.0,0.0,0.0,0.0,0.0,0.0,4.1415,4.1503,4.1613,4.199,4.2551,4.3907,4.6708,5.0266,5.3075,5.4374,5.5018,5.514,5.4635,5.4752,5.4883,5.4931,5.4296,5.3847,5.3715,5.3008,5.2605,5.257,5.2445,5.2409,5.2409,5.2409,5.2409,5.2409,5.2409,5.2409,5.2409,5.2409,5.2409,5.2409,5.2409,5.179,5.0743,5.0743,4.9888,4.853,4.853,4.8324,4.7819,4.6344,4.5798,4.5645,4.4524,4.4138,4.415,4.4265,4.4428,4.4476,4.3996,4.4887,4.6171,4.6646,4.7213,4.7951,4.9003,4.962,4.9941,4.9868,4.8588,4.6677,4.418,4.0773,3.7801,3.6394,3.4445,3.3012,3.3,3.2891,3.2665,3.2283,3.2232,3.2284,3.2388,3.2406,3.2354,3.2249,3.2232,3.1916,3.1123,2.96,2.8338,2.7478,2.7115,2.7082,2.737,2.7224,2.685,2.6293,2.5499,2.5104,2.5104,2.3987,2.2977,2.2139,2.2409,2.2575,3.56,3.6715,3.7821,3.7483,3.7347,3.7398,3.7821,0.0,0.0,0.0,0.0,0.0,4.2056,4.2442,4.2775,4.3035,4.4369,4.6287,4.8981,5.1919,5.417,5.5098,5.5196,5.5373,5.5777,5.5716,5.5716,5.5858,5.532,5.4778,5.4247,5.3632,5.3094,5.2624,5.2921,5.2868,5.2409,5.2409,5.2445,5.2499,5.2499,5.2535,5.264,5.264,5.257,5.2483,5.2395,5.1799,5.0891,5.0764,5.0062,4.8995,4.8796,4.853,4.8125,4.6422,4.5798,4.5645,4.4641,4.4575,4.4835,4.4435,4.4418,4.4502,4.4035,4.4486,4.5276,4.6097,4.6742,4.7443,4.8506,4.8951,4.9276,4.9786,4.8773,4.7195,4.549,4.1848,3.8516,3.7161,3.458,3.2689,3.2961,3.2852,3.265,3.2441,3.2406,3.2406,3.2406,3.2406,3.2406,3.2406,3.2406,3.2144,3.1516,3.056,2.9523,2.8382,2.805,2.7877,2.7813,2.7874,2.7738,2.7362,2.6781,2.6237,2.57,2.5098,2.4147,2.2942,2.311,2.3089,3.5735,3.7077,3.8159,3.7083,3.7418,3.8041,3.816,0.0,0.0,0.0,0.0,0.0,4.297,4.3625,4.4132,4.4258,4.6504,4.9094,5.1502,5.2625,5.3508,5.4309,5.44,5.4936,5.6322,5.6447,5.6546,5.6847,5.6519,5.5887,5.4896,5.4482,5.3861,5.3008,5.3665,5.3632,5.2765,5.2782,5.2782,5.2782,5.2782,5.2817,5.2903,5.3007,5.2956,5.2784,5.2656,5.2061,5.1165,5.0898,5.0326,4.9521,4.9131,4.8934,4.8624,4.6762,4.6043,4.5874,4.4843,4.5052,4.5632,4.4835,4.4735,4.4882,4.4474,4.4321,4.4541,4.5601,4.6418,4.7172,4.8103,4.8319,4.8538,4.9328,4.8415,4.7086,4.6005,4.2389,3.8913,3.7523,3.4596,3.2445,3.2848,3.2633,3.2406,3.2406,3.2406,3.2406,3.2406,3.2406,3.2406,3.2406,3.2406,3.2125,3.144,3.137,3.0886,2.9747,2.8965,2.8293,2.7719,2.7827,2.7932,2.7986,2.8,2.7451,2.6362,2.6362,2.557,2.4036,2.3932,2.3654,3.6417,3.8599,4.007,3.7455,3.7644,3.8665,3.9296,0.0,0.0,0.0,0.0,4.2555,4.3692,4.4023,4.4313,4.5001,4.8279,5.1593,5.4019,5.5577,5.653,5.6689,5.6682,5.679,5.7043,5.7061,5.7087,5.7138,5.6626,5.6211,5.6045,5.5349,5.487,5.4717,5.4665,5.4585,5.443,5.443,5.4181,5.3682,5.3682,5.3399,5.2903,5.35,5.3715,5.3715,5.3969,5.3487,5.2502,5.2208,5.1413,5.0304,5.0248,4.9993,4.9428,4.7877,4.7164,4.6822,4.5772,4.5844,4.6357,4.5895,4.552,4.5144,4.4695,4.444,4.4412,4.4926,4.5453,4.6109,4.7253,4.7573,4.7766,4.8521,4.8029,4.7362,4.7146,4.4511,4.1528,3.9346,3.6901,3.4595,3.2809,3.2441,3.2406,3.2406,3.2406,3.2406,3.2406,3.2406,3.2406,3.2406,3.2406,3.2353,3.223,3.2213,3.1845,3.0971,2.9604,2.8513,2.7736,2.7827,2.7888,2.7917,2.7971,2.7536,2.6648,2.6648,2.6131,2.5141,2.4506,2.4182,3.6711,3.8231,3.9747,3.9773,4.1138,4.2637,4.3388,4.3831,0.0,0.0,4.4125,4.4311,4.3587,4.4874,4.7029,4.9999,5.1303,5.2643,5.4617,5.4762,5.4979,5.5848,5.5957,5.6283,5.7116,5.7188,5.7188,5.7188,5.6941,5.6635,5.6311,5.5961,5.5554,5.5112,5.542,5.5577,5.5454,5.5872,5.5577,5.453,5.42,5.3878,5.3715,5.4025,5.4104,5.4023,5.4405,5.397,5.3015,5.2758,5.2067,5.1131,5.084,5.0589,5.0178,4.8297,4.7151,4.648,4.5978,4.6259,4.6731,4.6297,4.5817,4.5407,4.5355,4.5072,4.4889,4.5433,4.5606,4.577,4.656,4.6765,4.6958,4.7731,4.7327,4.6871,4.7309,4.4975,4.2113,3.9757,3.7406,3.5073,3.2792,3.2406,3.2406,3.2406,3.2406,3.2406,3.2406,3.2406,3.2406,3.2406,3.2406,3.2406,3.2406,3.2406,3.1897,3.0685,2.9527,2.8544,2.7736,2.7763,2.7795,2.7795,2.7821,2.7645,2.7232,2.7232,2.6831,2.6037,2.57,2.5296,3.7114,3.8208,3.98,4.2074,4.3638,4.5059,4.6789,4.7143,4.692,4.6271,4.6766,4.6667,4.4421,4.6196,4.9311,5.3385,5.3494,5.3621,5.5214,5.4381,5.4055,5.5287,5.545,5.5903,5.708,5.7188,5.7188,5.7188,5.7188,5.701,5.6546,5.6501,5.6239,5.5594,5.6193,5.6429,5.6295,5.6897,5.659,5.5379,5.4852,5.4606,5.4641,5.4778,5.4761,5.4634,5.5023,5.4658,5.3715,5.3317,5.2723,5.2015,5.1418,5.0952,5.0397,4.8635,4.7255,4.6235,4.6235,4.6596,4.7007,4.6637,4.6196,4.5843,4.6077,4.5844,4.5563,4.6062,4.6087,4.5963,4.6147,4.6196,4.6354,4.6976,4.6635,4.6372,4.6993,4.5273,4.2898,4.0564,3.8213,3.588,3.3599,3.2757,3.2406,3.2406,3.2406,3.2406,3.2406,3.2406,3.2406,3.2406,3.2406,3.2388,3.2354,3.2213,3.1529,3.0144,2.9143,2.8333,2.7719,2.7701,2.7701,2.7701,2.7701,2.7701,2.7701,2.7701,2.7403,2.6844,2.6669,2.6279,3.8099,3.9926,4.1905,4.3252,4.2458,4.2562,4.7214,4.7381,4.716,4.9296,4.9796,4.9329,4.7663,4.8149,4.942,5.1249,5.3331,5.5269,5.6826,5.6935,5.6899,5.7025,5.7025,5.708,5.7188,5.7188,5.7188,5.7188,5.7188,5.7163,5.7138,5.7138,5.7112,5.7043,5.7112,5.7138,5.7094,5.7163,5.6863,5.6211,5.6156,5.5848,5.5355,5.5904,5.6174,5.6156,5.6492,5.6185,5.5359,5.4329,5.3629,5.3102,5.2323,5.1096,4.9744,4.9329,4.8224,4.6934,4.6934,4.7075,4.7258,4.7236,4.6954,4.6613,4.6637,4.6448,4.6238,4.6286,4.6578,4.6795,4.6319,4.6196,4.6214,4.6267,4.6249,4.6214,4.6267,4.6109,4.5284,4.2986,4.0635,3.8301,3.595,3.381,3.2406,3.2406,3.2406,3.2406,3.2406,3.2406,3.2406,3.2406,3.2406,3.2354,3.2214,3.1635,3.0881,2.9976,2.8568,2.7754,2.7701,2.7701,2.7701,2.7701,2.7701,2.7701,2.7701,2.7701,2.7666,2.7596,2.6929,2.6563,3.8431,4.049,4.2741,4.3522,4.3394,4.4418,4.939,5.0427,5.0611,5.1526,5.2047,5.1683,4.9582,5.0669,5.2082,5.2679,5.478,5.6536,5.7116,5.7188,5.7188,5.7188,5.7188,5.7188,5.7188,5.7188,5.7188,5.7188,5.7188,5.7188,5.7188,5.7188,5.7188,5.7188,5.7188,5.7188,5.7188,5.7188,5.7087,5.6863,5.6474,5.6174,5.5961,5.6201,5.6311,5.6339,5.6829,5.6584,5.5772,5.4932,5.4157,5.3478,5.2665,5.1254,4.9688,4.9595,4.855,4.7187,4.7187,4.7359,4.7554,4.7554,4.7214,4.6863,4.7022,4.6776,4.6472,4.6672,4.687,4.6934,4.6749,4.6566,4.6447,4.6447,4.6319,4.6196,4.6196,4.6196,4.553,4.3231,4.092,3.8547,3.6196,3.3915,3.2406,3.2406,3.2406,3.2406,3.2406,3.2406,3.2406,3.2406,3.2406,3.2371,3.2336,3.1601,3.083,3.0075,2.9037,2.821,2.7719,2.7701,2.7701,2.7701,2.7701,2.7701,2.7701,2.7701,2.7701,2.7683,2.7403,2.728,3.8946,4.0642,4.2725,4.3734,4.4352,4.6038,5.1225,5.2131,5.2326,5.3813,5.3898,5.3204,5.1538,5.2589,5.3693,5.3693,5.5667,5.7188,5.7188,5.7188,5.7188,5.7188,5.7188,5.7188,5.7188,5.7188,5.7188,5.7188,5.7188,5.7188,5.7188,5.7188,5.7188,5.7188,5.7188,5.7188,5.7188,5.7188,5.7188,5.7206,5.6785,5.6582,5.6582,5.6582,5.6582,5.6626,5.7036,5.688,5.6301,5.5305,5.4291,5.3277,5.2715,5.1411,4.9825,4.9825,4.8816,4.7446,4.7446,4.7533,4.7717,4.7717,4.745,4.7191,4.7363,4.7151,4.6926,4.716,4.7205,4.7205,4.7205,4.698,4.6708,4.6613,4.6447,4.6295,4.6221,4.6196,4.574,4.4179,4.1986,3.9673,3.7301,3.5004,3.3231,3.2511,3.2406,3.2406,3.2406,3.2406,3.2406,3.2406,3.2406,3.2371,3.2336,3.1601,3.0813,3.0075,2.9318,2.8544,2.7736,2.7701,2.7701,2.7701,2.7701,2.773,2.7789,2.7789,2.7789,2.7789,2.7789,2.776,3.9701,4.0515,4.1965,4.407,4.5003,4.683,5.2426,5.1846,5.1488,5.621,5.5341,5.3729,5.3693,5.3729,5.3729,5.3693,5.5667,5.7188,5.7188,5.7188,5.7188,5.7188,5.7188,5.7188,5.7188,5.7188,5.7188,5.7188,5.7188,5.7188,5.7188,5.7188,5.7188,5.7188,5.7188,5.7188,5.7188,5.7188,5.7188,5.7188,5.7188,5.7188,5.7188,5.7188,5.7188,5.7188,5.7188,5.7188,5.708,5.554,5.3947,5.2498,5.2498,5.1502,5.0112,5.0112,4.9075,4.7717,4.7717,4.7717,4.7717,4.7717,4.7717,4.7717,4.7717,4.7717,4.7717,4.7717,4.7717,4.7717,4.7717,4.7356,4.6934,4.6661,4.6613,4.6518,4.627,4.6196,4.6196,4.6196,4.4378,4.2061,3.9726,3.7354,3.502,3.2739,3.2406,3.2406,3.2406,3.2406,3.2406,3.2406,3.2388,3.2319,3.2214,3.1583,3.081,2.9958,2.9269,2.8544,2.7736,2.7701,2.7701,2.7701,2.7701,2.7806,2.8014,2.8014,2.8014,2.8014,2.8014,2.7911,4.0172,4.315,4.6134,4.5297,4.7815,5.1072,5.32,5.315,5.3494,5.6573,5.6645,5.5649,5.4001,5.5051,5.5613,5.3965,5.5667,5.7188,5.7188,5.7188,5.7188,5.7188,5.7188,5.7188,5.7188,5.7188,5.7188,5.7188,5.7188,5.7188,5.7188,5.7188,5.7188,5.7188,5.7188,5.7188,5.7188,5.7188,5.7188,5.7188,5.7188,5.7188,5.7188,5.7188,5.7188,5.7188,5.7188,5.7188,5.708,5.554,5.3947,5.2498,5.2498,5.1502,5.0112,5.0112,4.9075,4.7717,4.7717,4.7717,4.7717,4.7717,4.7717,4.7717,4.7717,4.7717,4.7717,4.7717,4.7717,4.7717,4.7717,4.7593,4.7425,4.7165,4.6985,4.6865,4.6772,4.6772,4.6772,4.6772,4.4894,4.2488,4.0002,3.7648,3.5241,3.2774,3.2406,3.2406,3.2406,3.2406,3.2406,3.2406,3.1845,3.1479,3.1512,3.0793,3.0068,2.9387,2.9183,2.8691,2.7751,2.7701,2.776,2.7911,2.7911,2.7996,2.815,2.815,2.815,2.815,2.815,2.8105,4.2119,4.4907,4.7664,4.8218,5.0753,5.3443,5.4797,5.5088,5.5486,5.6899,5.7188,5.6772,5.5341,5.6247,5.6736,5.5323,5.6283,5.7188,5.7188,5.7188,5.7188,5.7188,5.7188,5.7188,5.7188,5.7188,5.7188,5.7188,5.7188,5.7188,5.7188,5.7188,5.7188,5.7188,5.7188,5.7188,5.7188,5.7188,5.7188,5.7188,5.7188,5.7188,5.7188,5.7188,5.7188,5.7188,5.7188,5.7007,5.6627,5.5395,5.4146,5.2933,5.2625,5.1502,5.0112,5.0112,4.9075,4.7717,4.7717,4.7717,4.7717,4.7717,4.7717,4.7717,4.7717,4.7717,4.7717,4.7717,4.7717,4.7717,4.7717,4.7717,4.7636,4.7363,4.7209,4.7093,4.7002,4.6998,4.6998,4.6998,4.586,4.4107,4.1632,3.9226,3.6805,3.4288,3.3055,3.2422,3.2473,3.2473,3.2507,3.2591,3.2134,3.1835,3.1867,3.1425,3.0714,2.9722,2.968,2.9171,2.7957,2.785,2.7882,2.8014,2.8014,2.8095,2.8286,2.8286,2.8286,2.8286,2.8286,2.8259,4.4725,4.6153,4.7875,5.2047,5.3555,5.4581,5.6717,5.7188,5.7188,5.7188,5.7188,5.7188,5.7188,5.7188,5.7188,5.7188,5.7188,5.7188,5.7188,5.7188,5.7188,5.7188,5.7188,5.7188,5.7188,5.7188,5.7188,5.7188,5.7188,5.7188,5.7188,5.7188,5.7188,5.7188,5.7188,5.7188,5.7188,5.7188,5.7188,5.7188,5.7188,5.7188,5.7188,5.7188,5.7188,5.7188,5.7188,5.6736,5.5939,5.5196,5.4436,5.3621,5.2806,5.1556,5.0202,5.013,4.913,4.7808,4.7735,4.7717,4.7717,4.7717,4.7717,4.7717,4.7717,4.7717,4.7717,4.7717,4.7717,4.7717,4.7717,4.7717,4.7636,4.7385,4.7341,4.7298,4.7093,4.7048,4.7048,4.7048,4.7048,4.6297,4.3942,4.1544,3.902,3.6309,3.3935,3.249,3.2606,3.2639,3.2705,3.2884,3.2829,3.2793,3.2793,3.2721,3.2059,3.0508,3.0433,2.9773,2.8286,2.8095,2.8011,2.8042,2.8042,2.815,2.8406,2.8406,2.8406,2.8406,2.8406,2.8353,4.485,4.855,5.2312,5.3315,5.5021,5.6573,5.708,5.7188,5.7188,5.7188,5.7188,5.7188,5.7188,5.7188,5.7188,5.7188,5.7188,5.7188,5.7188,5.7188,5.7188,5.7188,5.7188,5.7188,5.7188,5.7188,5.7188,5.7188,5.7188,5.7188,5.7188,5.7188,5.7188,5.7188,5.7188,5.7188,5.7188,5.7188,5.7188,5.7188,5.7188,5.7188,5.7188,5.7188,5.7188,5.7188,5.7188,5.6736,5.5939,5.5196,5.4436,5.3621,5.2806,5.19,5.0981,5.0347,4.9474,4.8547,4.7935,4.7717,4.7717,4.7717,4.7717,4.7717,4.7717,4.7717,4.7717,4.7717,4.7717,4.7717,4.7717,4.7717,4.7696,4.7636,4.7615,4.7615,4.7551,4.7551,4.7551,4.7551,4.7551,4.675,4.4248,4.1799,3.8707,3.4276,3.314,3.2804,3.2836,3.2836,3.2852,3.29,3.2282,3.1892,3.1956,3.1479,3.0786,2.9839,2.9895,2.9476,2.8389,2.8232,2.8205,2.83,2.8313,2.8393,2.8549,2.8549,2.8549,2.8549,2.8549,2.8536,4.6323,4.9441,5.2222,5.4749,5.6301,5.7188,5.7188,5.7188,5.7188,5.7188,5.7188,5.7213,5.7264,5.7239,5.7213,5.7307,5.7239,5.7188,5.7188,5.7188,5.7188,5.7188,5.7188,5.7188,5.7188,5.7188,5.7188,5.7188,5.7188,5.7188,5.7188,5.7188,5.7188,5.7188,5.7188,5.7188,5.7188,5.7188,5.7188,5.7188,5.7188,5.7188,5.7188,5.7188,5.7188,5.7188,5.7188,5.6953,5.65,5.574,5.4979,5.42,5.3385,5.2353,5.1194,5.0401,4.9582,4.8764,4.7968,4.7717,4.7717,4.7717,4.7717,4.7717,4.7717,4.7717,4.7717,4.7717,4.7717,4.7717,4.7717,4.7717,4.7717,4.7717,4.7717,4.7717,4.7717,4.7717,4.7717,4.7717,4.7717,4.7277,4.5947,4.2709,3.9031,3.5265,3.3679,3.2932,3.2995,3.3011,3.3042,3.3119,3.2727,3.2493,3.2523,3.219,3.1657,3.0888,3.0541,2.998,2.9106,2.8643,2.8393,2.8411,2.8411,2.8476,2.86,2.86,2.86,2.86,2.86,2.86,4.7169,4.9461,5.1299,5.6027,5.7188,5.7188,5.7188,5.7188,5.7188,5.7188,5.7188,5.7213,5.7356,5.7264,5.7257,5.7356,5.7264,5.7188,5.7188,5.7188,5.7188,5.7188,5.7188,5.7188,5.7188,5.7188,5.7188,5.7188,5.7188,5.7188,5.7188,5.7188,5.7188,5.7188,5.7188,5.7188,5.7188,5.7188,5.7188,5.7188,5.7188,5.7188,5.7188,5.7188,5.7188,5.7188,5.7188,5.7188,5.7134,5.6319,5.5558,5.4834,5.4019,5.2806,5.1411,5.0619,4.98,4.9003,4.8206,4.7826,4.7717,4.7717,4.7717,4.7717,4.7717,4.7717,4.7717,4.7717,4.7717,4.7717,4.7717,4.7717,4.7717,4.7717,4.7717,4.7717,4.7717,4.7717,4.7717,4.7717,4.7717,4.7572,4.7156,4.3671,4.0004,3.7176,3.4955,3.3508,3.3186,3.3147,3.3211,3.3378,3.3393,3.3393,3.3393,3.3393,3.3067,3.2252,3.1582,3.0781,2.9839,2.9156,2.8693,2.845,2.8432,2.8484,2.86,2.86,2.86,2.86,2.86,2.86,4.4284,4.8876,5.3785,5.6536,5.7188,5.7188,5.7188,5.7188,5.7188,5.7188,5.7188,5.7206,5.7213,5.7213,5.7206,5.7213,5.7213,5.7188,5.7188,5.7188,5.7188,5.7188,5.7188,5.7188,5.7188,5.7188,5.7188,5.7188,5.7188,5.7188,5.7188,5.7188,5.7188,5.7188,5.7188,5.7188,5.7188,5.7188,5.7188,5.7188,5.7188,5.7188,5.7188,5.7188,5.7188,5.7188,5.7188,5.7188,5.7134,5.6319,5.5558,5.4834,5.4019,5.3132,5.2226,5.143,5.0615,4.9818,4.9021,4.8275,4.7717,4.7717,4.7717,4.7717,4.7717,4.7717,4.7717,4.7717,4.7717,4.7717,4.7717,4.7717,4.7717,4.7717,4.7717,4.7717,4.7717,4.7717,4.7717,4.7717,4.7717,4.7047,4.4928,4.4022,4.2085,3.7632,3.6675,3.57,3.3635,3.3364,3.3364,3.3411,3.3393,3.3393,3.3393,3.3393,3.3067,3.2252,3.2089,3.1379,2.9857,2.9694,2.9287,2.8592,2.8574,2.8574,2.86,2.86,2.86,2.86,2.86,2.86,4.5717,5.0288,5.4255,5.6609,5.7188,5.7188,5.7188,5.7188,5.7188,5.7188,5.7188,5.7213,5.7289,5.7239,5.7213,5.7289,5.7257,5.7188,5.7188,5.7188,5.7188,5.7188,5.7188,5.7188,5.7188,5.7188,5.7188,5.7188,5.7188,5.7188,5.7188,5.7188,5.7188,5.7188,5.7188,5.7188,5.7188,5.7188,5.7188,5.7188,5.7188,5.7188,5.7188,5.7188,5.7188,5.7188,5.7188,5.7188,5.717,5.6808,5.621,5.5432,5.4671,5.3892,5.3023,5.1756,5.0778,4.9985,4.9184,4.8366,4.7717,4.7717,4.7717,4.7717,4.7717,4.7717,4.7717,4.7717,4.7717,4.7717,4.7717,4.7717,4.7717,4.7717,4.7717,4.7717,4.7717,4.7717,4.7717,4.7717,4.7717,4.7373,4.6305,4.5001,4.2918,3.9478,3.7846,3.6125,3.3719,3.3393,3.3393,3.3393,3.3393,3.3393,3.3393,3.3393,3.3248,3.2886,3.2451,3.1872,3.1179,3.0273,2.9639,2.9282,2.8835,2.86,2.86,2.86,2.86,2.86,2.86,2.86,4.6454,4.9903,5.2266,5.5504,5.6301,5.6464,5.7062,5.7188,5.7188,5.7188,5.7188,5.7213,5.7313,5.7282,5.7213,5.7313,5.7282,5.7188,5.7188,5.7188,5.7188,5.7188,5.7188,5.7188,5.7188,5.7188,5.7188,5.7188,5.7188,5.7188,5.7188,5.7188,5.7188,5.7188,5.7188,5.7188,5.7188,5.7188,5.7188,5.7188,5.7188,5.7188,5.7188,5.7188,5.7188,5.7188,5.7188,5.7188,5.7188,5.7188,5.6717,5.5921,5.5196,5.4418,5.353,5.2118,5.1108,5.0289,4.9492,4.8695,4.7989,4.7772,4.7717,4.7717,4.7717,4.7717,4.7717,4.7717,4.7717,4.7717,4.7717,4.7717,4.7717,4.7717,4.7717,4.7717,4.7717,4.7717,4.7717,4.7717,4.7717,4.7717,4.7717,4.6214,4.3987,4.0945,3.9007,3.6798,3.3791,3.3393,3.3393,3.3393,3.3393,3.3393,3.3393,3.3393,3.3393,3.3393,3.2832,3.2415,3.2198,3.1053,3.0219,2.9802,2.921,2.8799,2.86,2.86,2.86,2.86,2.86,2.86,4.4115,4.5533,4.6798,5.247,5.3874,5.4454,5.6681,5.7188,5.7188,5.7188,5.7188,5.7188,5.7206,5.7188,5.7188,5.7206,5.7188,5.7188,5.7188,5.7188,5.7188,5.7188,5.7188,5.7188,5.7188,5.7188,5.7188,5.7188,5.7188,5.7188,5.7188,5.7188,5.7188,5.7188,5.7188,5.7188,5.7188,5.7188,5.7188,5.7188,5.7188,5.7188,5.7188,5.7188,5.7188,5.7188,5.7188,5.7188,5.7188,5.7188,5.6717,5.5921,5.5196,5.4418,5.3603,5.2752,5.1919,5.1104,5.0329,4.951,4.871,4.7953,4.7717,4.7717,4.7717,4.7717,4.7717,4.7717,4.7717,4.7717,4.7717,4.7717,4.7717,4.7717,4.7717,4.7717,4.7717,4.7717,4.7717,4.7717,4.7717,4.7717,4.7717,4.7609,4.5924,4.1198,4.0401,3.8628,3.4009,3.3393,3.3393,3.3393,3.3393,3.3393,3.3393,3.3393,3.3393,3.3393,3.3357,3.2995,3.2234,3.2125,3.1361,2.9821,2.9766,2.9355,2.86,2.86,2.86,2.86,2.86,2.86,4.2827,4.4617,4.6083,4.955,5.208,5.3929,5.4762,5.612,5.7188,5.7188,5.7188,5.7188,5.7188,5.7188,5.7188,5.7188,5.7188,5.7188,5.7188,5.7188,5.7188,5.7188,5.7188,5.7188,5.7188,5.7188,5.7188,5.7188,5.7188,5.7188,5.7188,5.7188,5.7188,5.7188,5.7188,5.7188,5.7188,5.7188,5.7188,5.7188,5.7188,5.7188,5.7188,5.7188,5.7188,5.7188,5.7188,5.7188,5.7188,5.7188,5.7025,5.6681,5.5903,5.5142,5.4381,5.3566,5.2426,5.1176,5.0383,4.9564,4.8764,4.795,4.7717,4.7717,4.7717,4.7717,4.7717,4.7717,4.7717,4.7717,4.7717,4.7717,4.7717,4.7717,4.7717,4.7717,4.7717,4.7717,4.7717,4.7717,4.7717,4.7717,4.7717,4.7717,4.6595,4.3299,4.1488,3.9334,3.6125,3.4353,3.3393,3.3393,3.3393,3.3393,3.3393,3.3393,3.3393,3.3393,3.3393,3.3266,3.2977,3.2469,3.1926,3.1347,3.0328,2.9391,2.86,2.86,2.86,2.86,2.8562,2.8549,4.1119,4.2762,4.4208,4.6856,4.9365,5.161,5.3308,5.4907,5.6247,5.7043,5.7188,5.7188,5.7188,5.7188,5.7188,5.7188,5.7188,5.7188,5.7188,5.7188,5.7188,5.7188,5.7188,5.7188,5.7188,5.7188,5.7188,5.7188,5.7188,5.7188,5.7188,5.7188,5.7188,5.7188,5.7188,5.7188,5.7188,5.7188,5.7188,5.7188,5.7188,5.7188,5.7188,5.7188,5.7188,5.7188,5.7188,5.7188,5.7188,5.7188,5.7188,5.7116,5.6301,5.5703,5.5142,5.4092,5.3023,5.1937,5.0891,4.9981,4.9166,4.8348,4.7935,4.7717,4.7717,4.7717,4.7717,4.7717,4.7717,4.7717,4.7717,4.7717,4.7717,4.7717,4.7717,4.7717,4.7717,4.7717,4.7717,4.7717,4.7717,4.7717,4.7717,4.7717,4.6884,4.4458,4.2737,4.0564,3.7412,3.56,3.4298,3.3484,3.3393,3.3393,3.3393,3.3393,3.3393,3.3393,3.3393,3.3393,3.3393,3.2886,3.2469,3.2198,3.1161,3.0066,2.8972,2.8701,2.8574,2.8562,2.8497,2.844,0.0,0.0,0.0,4.4367,4.5704,4.7461,5.2379,5.3548,5.4255,5.6609,5.7098,5.7116,5.7188,5.7188,5.7188,5.7188,5.7188,5.7188,5.7188,5.7188,5.7188,5.7188,5.7188,5.7188,5.7188,5.7188,5.7188,5.7188,5.7188,5.7188,5.7188,5.7188,5.7188,5.7188,5.7188,5.7188,5.7188,5.7188,5.7188,5.7188,5.7188,5.7188,5.7188,5.7188,5.7188,5.7188,5.7188,5.7188,5.7188,5.7188,5.7188,5.7116,5.6337,5.6011,5.5812,5.4291,5.3729,5.3476,5.1846,5.0778,4.9981,4.9184,4.8366,4.7735,4.7717,4.7717,4.7717,4.7717,4.7717,4.7717,4.7717,4.7717,4.7717,4.7717,4.7717,4.7717,4.7717,4.7717,4.7717,4.7717,4.7717,4.7717,4.7717,4.7717,4.6902,4.4548,4.415,4.2393,3.772,3.7049,3.6089,3.3665,3.3393,3.3393,3.3393,3.3393,3.3393,3.3393,3.3393,3.3393,3.3393,3.3393,3.3031,3.2252,3.2216,3.1409,2.9773,2.8943,2.851,2.851,2.8432,2.8353,3.8209,0.0,0.0,0.0,0.0,0.0,4.7867,4.9748,5.1774,5.4164,5.4671,5.5178,5.688,5.7188,5.7188,5.7188,5.7188,5.7188,5.7188,5.7188,5.7188,5.7188,5.7188,5.7188,5.7188,5.7188,5.7188,5.7188,5.7188,5.7188,5.7188,5.7188,5.7188,5.7188,5.7188,5.7188,5.7188,5.7188,5.7188,5.7188,5.7188,5.7188,5.7188,5.7188,5.7188,5.7188,5.7188,5.7188,5.7188,5.7188,5.7188,5.717,5.6953,5.65,5.5866,5.4925,5.42,5.3476,5.1846,5.114,5.0741,4.9365,4.8746,4.8456,4.788,4.7717,4.7717,4.7717,4.7717,4.7717,4.7717,4.7717,4.7717,4.7717,4.7717,4.7717,4.7717,4.7717,4.7717,4.7717,4.7717,4.7717,4.7717,4.7717,4.7461,4.6812,4.5218,4.2991,3.993,3.8047,3.6089,3.3665,3.3393,3.3393,3.3393,3.3393,3.3393,3.3393,3.3393,3.3393,3.3393,3.3393,3.3302,3.3067,3.2488,3.1966,3.1518,3.0071,2.9043,2.8419,2.8353,2.8286,3.8095,3.8778,3.9434,3.973,0.0,0.0,4.673,4.8582,5.0744,5.4406,5.516,5.5577,5.6953,5.7188,5.7188,5.7188,5.7188,5.7188,5.7188,5.7188,5.7188,5.7188,5.7188,5.7188,5.7188,5.7188,5.7188,5.7188,5.7188,5.7188,5.7188,5.7188,5.7188,5.7188,5.7188,5.7188,5.7188,5.7188,5.7188,5.7188,5.7188,5.7188,5.7188,5.7188,5.7188,5.7188,5.7188,5.7188,5.7188,5.7188,5.7188,5.7188,5.7188,5.6899,5.6373,5.5305,5.4599,5.3965,5.2353,5.1574,5.1086,4.9818,4.9184,4.8746,4.7932,4.7717,4.7717,4.7717,4.7717,4.7717,4.7717,4.7717,4.7717,4.7717,4.7717,4.7717,4.7717,4.7717,4.7717,4.7717,4.7717,4.7717,4.7717,4.7717,4.7717,4.7717,4.6504,4.4366,4.0908,3.9297,3.7143,3.3728,3.3364,3.3393,3.3393,3.3382,3.3352,3.3352,3.3352,3.3352,3.3352,3.3396,3.3393,3.3393,3.294,3.2528,3.2155,3.0477,2.9193,2.8318,2.8277,2.8237,3.8218,3.8521,3.8947,3.9254,3.9825,0.0,4.6762,4.8103,4.9685,5.4763,5.5801,5.5916,5.6262,5.6317,5.636,5.6385,5.6627,5.6899,5.7152,5.7188,5.7188,5.7188,5.7188,5.7188,5.7188,5.7188,5.7188,5.7188,5.7188,5.7188,5.7188,5.7188,5.7188,5.7188,5.7188,5.7188,5.7188,5.7188,5.7188,5.7188,5.7188,5.7188,5.7188,5.7188,5.7188,5.7188,5.7188,5.7188,5.7188,5.7188,5.7188,5.7188,5.7188,5.7152,5.688,5.545,5.4852,5.4562,5.3023,5.2027,5.1285,5.0492,4.9691,4.8873,4.8079,4.7772,4.7717,4.7717,4.7717,4.7717,4.7717,4.7717,4.7717,4.7717,4.7717,4.7717,4.7717,4.7717,4.7717,4.7717,4.7717,4.7717,4.7717,4.7717,4.7717,4.7717,4.7717,4.6029,4.1413,4.0637,3.8738,3.4192,3.3515,3.3378,3.3364,3.3322,3.3292,3.3277,3.3277,3.3277,3.3277,3.3352,3.3396,3.3396,3.3411,3.2969,3.2101,3.0512,2.9251,2.8334,2.8334,2.8298,3.7185,3.6788,3.7116,3.811,3.8622,0.0,4.1494,4.2178,4.3265,4.6477,4.7132,4.7911,5.0444,5.0922,5.1012,5.1288,5.3049,5.5033,5.6935,5.7188,5.7188,5.7188,5.7188,5.7188,5.7188,5.7188,5.7188,5.7188,5.7188,5.7188,5.7188,5.7188,5.7188,5.7188,5.7188,5.7188,5.7188,5.7188,5.7188,5.7188,5.7188,5.7188,5.7188,5.7188,5.7188,5.7188,5.7188,5.7188,5.7188,5.7188,5.7188,5.7188,5.7188,5.679,5.612,5.5233,5.449,5.3802,5.2824,5.2389,5.2118,5.1321,5.0506,4.9709,4.8912,4.8203,4.7717,4.7717,4.7717,4.7717,4.7717,4.7717,4.7717,4.7717,4.7717,4.7717,4.7717,4.7717,4.7717,4.7717,4.7717,4.7717,4.7717,4.7717,4.7717,4.7717,4.7717,4.6646,4.375,4.1649,3.9318,3.643,3.4444,3.3277,3.318,3.3262,3.3262,3.315,3.315,3.315,3.315,3.3262,3.3307,3.3307,3.3382,3.2969,3.2101,3.107,3.0104,2.9253,2.9253,2.8872,3.6602,3.6109,3.6464,3.7039,3.735,0.0,0.0,4.1375,4.2479,4.5596,4.628,4.685,4.8498,4.8802,4.8993,4.9564,5.1736,5.3399,5.3544,5.5661,5.7188,5.7188,5.7188,5.7188,5.7188,5.7188,5.7188,5.7188,5.7188,5.7188,5.7188,5.7188,5.7188,5.7188,5.7188,5.7188,5.7188,5.7188,5.7188,5.7188,5.7188,5.7188,5.7188,5.7188,5.7188,5.7188,5.7188,5.7188,5.7188,5.7188,5.7188,5.7188,5.7188,5.6699,5.5903,5.5178,5.4399,5.3585,5.277,5.2498,5.2371,5.1556,5.0764,4.9945,4.9148,4.833,4.7717,4.7717,4.7717,4.7717,4.7717,4.7717,4.7717,4.7717,4.7717,4.7717,4.7717,4.7717,4.7717,4.7717,4.7717,4.7717,4.7717,4.7717,4.7717,4.7717,4.7717,4.6809,4.4344,4.2988,4.0836,3.7138,3.573,3.4524,3.3209,3.3165,3.3168,3.3057,3.307,3.3101,3.3101,3.3229,3.3325,3.3352,3.3364,3.3164,3.2755,3.2311,3.1427,3.0144,2.9689,2.9271,3.6006,3.546,3.5808,3.6033,3.6182,3.7059,0.0,0.0,0.0,4.523,4.595,4.6161,4.6603,4.6689,4.6901,4.753,4.9799,5.0849,4.9086,5.2774,5.5688,5.5756,5.662,5.7007,5.653,5.6493,5.6692,5.7152,5.6747,5.6692,5.717,5.7188,5.7188,5.7188,5.7188,5.7188,5.7188,5.7188,5.7188,5.7188,5.7188,5.7188,5.7188,5.7188,5.7188,5.7188,5.7188,5.7188,5.7188,5.7188,5.7188,5.717,5.7025,5.6482,5.5703,5.4961,5.4164,5.3385,5.2733,5.2498,5.2389,5.1737,5.0868,4.9945,4.9148,4.833,4.7717,4.7717,4.7717,4.7717,4.7717,4.7717,4.7717,4.7717,4.7717,4.7717,4.7717,4.7717,4.7717,4.7717,4.7717,4.7717,4.7717,4.7717,4.7717,4.7717,4.7717,4.699,4.4975,4.4346,4.2354,3.7879,3.7048,3.5786,3.3283,3.3119,3.3104,3.3013,3.3055,3.3086,3.307,3.3214,3.3322,3.3393,3.3393,3.3393,3.3393,3.3393,3.2593,3.1038,3.0306,2.9815,3.4881,3.3794,3.4058,3.5075,3.5341,3.5636,3.669,0.0,3.7349,3.8599,0.0,3.9361,4.099,0.0,0.0,4.1243,4.3914,4.5758,4.5112,4.7956,5.0229,5.0584,5.4514,5.6348,5.4128,5.3929,5.4845,5.7043,5.5153,5.4882,5.708,5.7188,5.7188,5.7188,5.7188,5.7188,5.7188,5.7188,5.7188,5.7188,5.7188,5.7188,5.7188,5.7188,5.7188,5.7188,5.7188,5.7188,5.7188,5.7188,5.7188,5.7134,5.641,5.5685,5.4943,5.4128,5.3331,5.2625,5.2516,5.2498,5.248,5.2389,5.1339,4.9945,4.9148,4.833,4.7717,4.7717,4.7717,4.7717,4.7717,4.7717,4.7717,4.7717,4.7717,4.7717,4.7717,4.7717,4.7717,4.7717,4.7717,4.7717,4.7717,4.7717,4.7717,4.7717,4.7717,4.7588,4.7316,4.5375,4.2947,4.0202,3.8039,3.577,3.3223,3.3168,3.3201,3.3013,3.3055,3.307,3.3011,3.3201,3.3322,3.3393,3.3393,3.3393,3.3393,3.3393,3.2897,3.1942,3.1794,3.0912,3.4775,3.5247,3.6386,3.5113,3.6028,3.695,3.5892,3.5734,3.6007,3.677,0.0,0.0,0.0,0.0,0.0,0.0,4.1487,4.283,4.1525,4.491,4.8099,4.9621,5.1633,5.3075,5.3472,5.3508,5.4532,5.7007,5.49,5.4568,5.708,5.7188,5.7188,5.7188,5.7188,5.7188,5.7188,5.7188,5.7188,5.7188,5.7188,5.7188,5.7188,5.7188,5.7188,5.7188,5.7188,5.7188,5.7188,5.7188,5.6917,5.6428,5.5649,5.5178,5.4798,5.4001,5.3186,5.2498,5.2498,5.2498,5.2426,5.1955,5.1339,5.0542,4.9293,4.8656,4.8294,4.7844,4.7717,4.7717,4.7717,4.7717,4.7717,4.7717,4.7717,4.7717,4.7717,4.7717,4.7717,4.7717,4.7717,4.7717,4.7717,4.7717,4.7717,4.7717,4.7717,4.7717,4.7717,4.6789,4.521,4.2692,4.0311,3.7877,3.5367,3.4024,3.3232,3.3073,3.3168,3.3198,3.3186,3.3292,3.3367,3.3393,3.3393,3.3393,3.3393,3.3393,3.3215,3.2828,3.2256,3.1621,3.5781,3.6644,3.7856,3.5236,3.5975,3.6927,3.5368,3.4946,3.5114,3.5958,3.6225,0.0,0.0,0.0,3.7203,3.7657,0.0,4.0277,3.8721,4.1747,4.4841,4.6735,4.7846,4.9523,5.2233,5.189,5.2804,5.5944,5.3899,5.3881,5.7025,5.6989,5.6862,5.6862,5.6862,5.6862,5.6862,5.708,5.7188,5.7188,5.7188,5.7188,5.7188,5.7188,5.7188,5.7188,5.7188,5.7188,5.717,5.6953,5.6518,5.5884,5.4943,5.4581,5.4472,5.3675,5.3005,5.2498,5.2498,5.2498,5.2389,5.181,5.1466,5.1067,4.9908,4.9235,4.8764,4.8185,4.788,4.7717,4.7717,4.7717,4.7717,4.7717,4.7717,4.7717,4.7717,4.7717,4.7717,4.7717,4.7717,4.7717,4.7717,4.7717,4.7717,4.7717,4.7717,4.7717,4.7717,4.7717,4.6752,4.4287,4.2027,3.9626,3.696,3.4812,3.3478,3.3183,3.3214,3.3262,3.331,3.3352,3.3382,3.3393,3.3393,3.3393,3.3393,3.3393,3.3393,3.3393,3.2682,3.2226,3.8147,3.7079,3.6795,3.5202,3.4382,3.4053,3.4444,3.4012,3.3924,3.5159,3.5331,3.5584,3.6715,3.6898,3.6727,3.6157,3.7066,0.0,0.0,3.7946,3.8958,3.9735,4.2926,4.6356,4.9595,4.7795,4.8415,5.3255,5.1378,5.2111,5.6935,5.6446,5.6029,5.6029,5.6029,5.6029,5.6029,5.6808,5.7188,5.7188,5.7188,5.7188,5.7188,5.7188,5.7188,5.7188,5.7188,5.7188,5.7134,5.6355,5.6011,5.5848,5.4327,5.3748,5.3639,5.2842,5.2516,5.2498,5.2498,5.2498,5.2498,5.2462,5.1919,5.1285,5.123,5.0144,4.8891,4.8873,4.8294,4.7717,4.7717,4.7717,4.7717,4.7717,4.7717,4.7717,4.7717,4.7717,4.7717,4.7717,4.7717,4.7717,4.7717,4.7717,4.7717,4.7717,4.7717,4.7717,4.7717,4.7717,4.6752,4.4287,4.2532,4.0275,3.708,3.5313,3.4053,3.3346,3.3183,3.3165,3.3292,3.3292,3.3322,3.3393,3.3393,3.3393,3.3393,3.3393,3.3393,3.3393,3.3304,3.2811,4.0347,4.1298,4.1822,3.7947,3.8227,3.8482,3.4861,3.3858,3.3689,3.3678,3.3952,3.4291,3.4639,3.5051,3.5276,3.5176,3.5462,3.5738,0.0,3.6428,3.7145,3.7824,4.1292,4.4298,4.5926,4.7133,4.937,5.3219,5.2732,5.3484,5.6265,5.6138,5.5776,5.5287,5.5269,5.5504,5.5993,5.6265,5.6663,5.7188,5.7188,5.7188,5.7188,5.7188,5.7188,5.7188,5.7188,5.6899,5.6373,5.6102,5.5395,5.4418,5.3892,5.3367,5.2878,5.2589,5.2498,5.2498,5.2498,5.2498,5.2498,5.2498,5.2317,5.1991,5.1448,5.0923,5.0271,4.918,4.8692,4.8366,4.7823,4.7717,4.7717,4.7717,4.7717,4.7717,4.7717,4.7717,4.7717,4.7717,4.7717,4.7717,4.7717,4.7717,4.7717,4.7717,4.7717,4.7717,4.7717,4.7717,4.737,4.6535,4.4527,4.2137,3.9409,3.5715,3.3435,3.3183,3.3214,3.3262,3.331,3.3337,3.3382,3.3393,3.3393,3.3393,3.3393,3.3393,3.3393,3.3393,3.3382,3.3178,4.2282,4.3596,4.4188,4.0258,4.048,4.0523,3.6307,3.5133,3.4678,3.3677,3.3598,3.3689,3.3832,3.3986,3.4193,3.4448,3.4691,3.497,0.0,3.5689,3.6059,3.6474,3.9268,4.1872,4.3674,4.4654,4.6865,5.1038,5.122,5.206,5.4152,5.4852,5.4961,5.449,5.4472,5.4707,5.5178,5.5721,5.6247,5.6772,5.7062,5.7188,5.7188,5.7188,5.7188,5.717,5.6899,5.6482,5.5957,5.5395,5.4599,5.3675,5.3385,5.2951,5.2498,5.2498,5.2498,5.2498,5.2498,5.2498,5.2498,5.2498,5.2498,5.2389,5.1864,5.152,5.114,5.0397,4.9782,4.9275,4.9039,4.8768,4.855,4.855,4.855,4.8478,4.8206,4.8113,4.8022,4.7772,4.7717,4.7717,4.7717,4.7717,4.7717,4.7717,4.7717,4.7717,4.7717,4.7717,4.7717,4.7717,4.5777,4.3258,4.0203,3.5738,3.3212,3.3468,3.3314,3.3201,3.3201,3.3259,3.3286,3.3286,3.3653,3.3668,3.3367,3.3686,3.3683,3.3393,3.3393,3.3382]}]]